     2              OBSERVATION DATA    GPS                 RINEX VERSION / TYPE
ASRINEXO V2.4.4 UX USGS 20-MAY-96 12:18                     PGM / RUN BY / DATE
                                                            COMMENT
Contact: kwendt@isdmnl.wr.usgs.gov (Ph: 415-329-4866)       COMMENT
Contact: kwendt@isdmnl.wr.usgs.gov (Ph: 415-329-4866)       COMMENT
Contact: kwendt@isdmnl.wr.usgs.gov (Ph: 415-329-4866)       COMMENT
Contact: kwendt@isdmnl.wr.usgs.gov (Ph: 415-329-4866)       COMMENT
Original Marker Name: carx Car_1942_USC&GS                  COMMENT
Campaign Name: USGS Parkfield                               COMMENT
4-Character Station Name: CARX                              COMMENT
6-Character Antenna Code: ASHGD3                            COMMENT
Vertical Measurement Point: EGP                             COMMENT
Vertical Offset to Rinex Ref. Point: 0.0594                 COMMENT
Radial Measurement Point: EGP                               COMMENT
Radial Offset to Rinex Ref. Point: 0.1837                   COMMENT
Antenna Height from Field Measurement: 1.3630 m             COMMENT
Additional Antenna Identification Info.:                    COMMENT
The Whopper (700718AB)                                      COMMENT
Original XYZ: -2620524.5500 -4461256.3800 3718400.1200      COMMENT
New XYZ position is based on association with SCEC monument COMMENT
E1F1N2L6+0011. Position of that monument is believed to be  COMMENT
valid to within 1 m horizontally; vertical accuracy         COMMENT
should be no worse than 3-times this value.                 COMMENT
                                                            COMMENT
Revised Rinex header created by UCSD GPS archive for        COMMENT
GSAC on 17-Jul-2000 (2000:199) 23:44:05 GMT                 COMMENT
For assistance contact dagnew@ucsd.edu                      COMMENT
or anderson@python.ucsd.edu                                 COMMENT
                                                            COMMENT
CAR 1942                                                    MARKER NAME
CHS US GEOLOGICAL SURVEY                                    OBSERVER / AGENCY
143 ASHTECH Z-XII3 1F00                                     REC # / TYPE / VERS
401 ASHTECH GEODETIC III                                    ANT # / TYPE
 -2620434.7822 -4460966.9121  3718423.4542                  APPROX POSITION XYZ
        1.2912        0.0000        0.0000                  ANTENNA: DELTA H/E/N
     1     1     0                                          WAVELENGTH FACT L1/2
     5    C1    L1    L2    P1    P2                        # / TYPES OF OBSERV
    30                                                      INTERVAL
  1996     5    15     0     6   30.000000                  TIME OF FIRST OBS
  1996     5    15    23    59   30.000000                  TIME OF LAST OBS
                                                            END OF HEADER
 96  5 15  0  6 30.0000000  0  4 23  6 17 16
  21952493.774      -31499.22719
  18144513.655      -14226.28219
  19874595.151      -21583.65819
  19037451.910       13288.20219
 96  5 15  0  7  0.0000000  0  5 23  5  6 17 16
  21931960.155     -139422.800 9
  20685196.850      103826.75819     70492.58359                  20685206.0814
  18138432.408      -46187.887 9
  19861990.688      -87824.63159    -55642.78159  19861992.3754   19861999.2564
  19045354.033       54812.73459     34859.35759  19045355.1404   19045360.4474
 96  5 15  0  7 30.0000000  0  5 23  5  6 17 16
  24309780.659     -247211.999 9   -174611.27059                  24309796.1474
  23103188.215      207092.98559    150959.66249  23103189.7534   23103196.2714
  20530741.174      -77877.198 9
  22247768.811     -153837.65749   -107081.46549  22247770.6044   22247776.9404
  21451697.244       96870.06149     67631.29549  21451698.2044   21451703.9404
 96  5 15  0  8  0.0000000  0  5 23  5  6 17 16
  24289290.913     -354931.24259   -258548.22859  24289288.8964   24289298.0534
  23122873.904      310544.69549    231571.29249  23122875.5624   23122882.4724
  20524759.617     -109315.614 9     -4728.86559                  20524767.2294
  22235247.099     -219649.92759   -158363.71959  22235247.1344   22235254.2484
  21459802.705      139470.73659    100826.62259  21459804.4274   21459810.8414
 96  5 15  0  8 30.0000000  0  5 23  5  6 17 16
  24268811.718     -462545.24249   -342403.17249  24268809.9464   24268819.7614
  23142593.540      414156.80859    312307.91459  23142593.0024   23142598.8474
  20518827.556     -140483.52459    -29015.56659  20518829.4594   20518835.0854
  22222765.148     -285231.54449   -209466.25649  22222767.2134   22222774.3164
  21468009.883      182596.77449    134431.31649  21468011.2024   21468017.5214
 96  5 15  0  9  0.0000000  0  5 23  5  6 17 16
  24248344.271     -570086.06749   -426201.09149  24248346.0724   24248355.9384
  23162329.739      517889.89349    393138.84549  23162332.7874   23162337.8204
  20512945.439     -171395.99449    -53103.19849  20512947.3024   20512952.1734
  22210327.728     -350589.88949   -260394.79949  22210330.2624   22210336.6024
  21476309.620      226215.95449    168420.28049  21476312.0124   21476318.1554
 96  5 15  0  9 30.0000000  0  6 23  5  6 17 16 26
  24227894.833     -677551.72649   -509940.43849  24227895.2704   24227905.2304
  23182099.076      621754.89149    474072.57249  23182098.2204   23182103.8854
  20507118.778     -202016.34849    -76963.21549  20507120.4424   20507125.8164
  22197941.994     -415681.36249   -311115.39349  22197943.4924   22197950.2274
  21484708.162      270347.46649    202808.47249  21484709.7464   21484715.8834
  24536387.265     -514867.71159   -192987.77259  24536389.2884   24536397.7264
 96  5 15  0 10  0.0000000  0  6 23  5  6 17 16 26
  24207457.558     -784928.77949   -593610.74249  24207463.3834   24207473.3074
  23201887.705      725769.71649    555123.02449  23201890.3094   23201897.5824
  20501354.215     -232305.25749   -100564.95849  20501356.1784   20501361.8184
  22185609.507     -480486.30349   -361612.71849  22185611.1414   22185618.1074
  21493207.460      315008.23749    237609.06849  21493207.8654   21493214.4294
  24520738.210     -597102.36349   -257066.65259  24520741.6404   24520748.9414
 96  5 15  0 10 30.0000000  0  6 23  5  6 17 16 26
  24187046.706     -892198.57149   -677197.49249  24187050.3044   24187058.5904
  23221713.365      829950.15249    636302.48549  23221714.1404   23221723.0134
  20495659.188     -262239.98349   -123890.72549  20495660.2814   20495665.1634
  22173331.671     -545007.42749   -411888.87349  22173333.7404   22173339.3984
  21501808.243      360211.14949    272832.12649  21501810.2194   21501816.3194
  24505104.291     -679279.20959   -321100.48049  24505103.1194   24505111.9794
 96  5 15  0 11  0.0000000  0  6 23  5  6 17 16 26
  24166661.883     -999342.47649   -760686.15149  24166661.6524   24166671.1414
  23241573.865      934319.13749    717628.85149  23241576.3864   23241584.0784
  20490034.011     -291798.56249   -146923.39649  20490035.7404   20490040.0144
  22161108.316     -609238.33649   -461938.88849  22161110.9214   22161116.8274
  21510517.118      405980.61549    308496.65349  21510519.5784   21510525.6624
  24489481.073     -761388.30349   -385081.50949  24489479.5694   24489485.7914
 96  5 15  0 11 30.0000000  0  6 23  5  6 17 16 26
  24146294.011    -1106372.00149   -844085.66649  24146293.6084   24146303.3084
  23261472.460     1038872.08749    799098.56249  23261471.6694   23261478.8904
  20484476.552     -321002.17549   -169679.45649  20484477.9714   20484482.9644
  22148931.649     -673229.11449   -511801.79149  22148933.7104   22148940.2664
  21519330.145      452286.20949    344578.93849  21519331.2194   21519337.3914
  24473863.243     -843447.17349   -449023.41149  24473863.3044   24473870.0804
 96  5 15  0 12  0.0000000  0  6 23  5  6 17 16 26
  24125954.510    -1213248.80449   -927366.19149  24125957.1654   24125966.5864
  23281406.292     1143637.71149    880733.99749  23281408.3214   23281416.1294
  20478988.811     -349840.40349   -192150.78749  20478990.3324   20478995.3824
  22136800.709     -736975.40549   -561474.18149  22136802.9684   22136809.7854
  21528246.749      499140.99249    381089.15749  21528247.9724   21528253.5754
  24458259.453     -925420.49849   -512898.62649  24458263.7294   24458270.8564
 96  5 15  0 12 30.0000000  0  6 23  5  6 17 16 26
  24105648.182    -1319980.03149  -1010533.27349  24105646.3084   24105654.8954
  23301382.206     1248605.49249    962526.97049  23301382.8794   23301390.5444
  20473564.898     -378344.36049   -214361.64949  20473566.1524   20473571.2474
  22124715.038     -800482.68949   -610960.33849  22124717.2154   22124725.0874
  21537264.137      546530.95349    418016.39449  21537265.8804   21537271.8764
  24442675.285    -1007328.01649   -576722.56949  24442676.5124   24442683.1814
 96  5 15  0 13  0.0000000  0  6 23  5  6 17 16 26
  24085363.273    -1426564.75649  -1093586.18349  24085363.7224   24085373.4154
  23321393.215     1353784.13049   1044484.25249  23321398.1814   23321406.2204
  20468203.392     -406518.11349   -236315.20949  20468205.0754   20468209.9924
  22112683.465     -863717.58249   -660234.23349  22112684.4634   22112692.1334
  21546387.280      594467.46549    455369.52149  21546388.1424   21546394.1734
  24427100.710    -1089173.52749   -640498.19649  24427101.9704   24427109.6194
 96  5 15  0 13 30.0000000  0  6 23  5  6 17 16 26
  24065105.969    -1533014.30649  -1176533.76149  24065106.6194   24065116.4054
  23341447.657     1459148.41049   1126586.19849  23341449.0684   23341456.2144
  20462900.789     -434385.46249   -258030.03349  20462902.2154   20462906.7084
  22100701.852     -926683.36949   -709298.43949  22100703.2034   22100709.9324
  21555609.043      642931.57249    493133.76049  21555610.2844   21555615.9374
  24411538.827    -1170969.87449   -704235.52649  24411536.8284   24411543.8184
 96  5 15  0 14  0.0000000  0  6 23  5  6 17 16 26
  24044875.187    -1639330.26149  -1259377.23349  24044874.6344   24044884.0494
  23361529.648     1564680.58849   1208818.96949  23361530.1544   23361539.8584
  20457654.161     -461951.23449   -279509.84749  20457656.1574   20457661.1664
  22088775.409     -989356.94549   -758134.94049  22088776.5064   22088783.1934
  21564931.925      691926.66049    531311.75349  21564933.8404   21564939.2194
  24395977.422    -1252720.51149   -767937.22649  24395980.9534   24395987.1074
 96  5 15  0 14 30.0000000  0  6 23  5  6 17 16 26
  24024666.892    -1745511.57549  -1342115.79249  24024669.4894   24024678.7894
  23381644.164     1670367.33749   1291172.13849  23381643.1964   23381650.3094
  20452469.579     -489199.92949   -300742.59649  20452471.1954   20452476.2374
  22076906.462    -1051728.97749   -806736.46849  22076907.7374   22076913.7374
  21574358.693      741455.59049    569905.73849  21574358.8214   21574363.7754
  24380432.404    -1334426.47849   -831604.10649  24380432.7684   24380439.0134
 96  5 15  0 15  0.0000000  0  6 23  5  6 17 16 26
  24004495.022    -1851520.44549  -1424719.98249  24004496.3654   24004505.6094
  23401787.680     1776222.27149   1373656.38949  23401786.2084   23401793.7094
  20447353.377     -516086.69749   -321693.32349  20447354.9434   20447359.6954
  22065096.175    -1113790.07849   -855095.71849  22065097.1824   22065104.0204
  21583889.884      791546.38249    608937.52749  21583890.7694   21583896.6084
  24364896.935    -1416043.14449   -895201.39249  24364901.9684   24364909.9214
 96  5 15  0 15 30.0000000  0  6 23  5  6 17 16 26
  23984355.839    -1957357.78949  -1507190.51349  23984356.6634   23984365.4554
  23421955.480     1882229.49749   1456259.32349  23421959.1834   23421965.6424
  20442305.217     -542609.73849   -342360.62249  20442307.3434   20442312.4964
  22053339.020    -1175569.18449   -903235.24049  22053341.0294   22053347.6044
  21593523.928      842176.52449    648389.57449  21593525.4354   21593531.1514
  24349387.385    -1497553.97149   -958716.23949  24349389.9834   24349399.0344
 96  5 15  0 16  0.0000000  0  6 23  5  6 17 16 26
  23964248.833    -2063017.12949  -1589522.34549  23964250.0904   23964258.0384
  23442159.370     1988386.89649   1538979.23549  23442160.5824   23442167.3884
  20437330.867     -568753.52549   -362732.40349  20437332.5794   20437337.2814
  22041637.641    -1237066.74049   -951155.37249  22041638.6714   22041645.9974
  21603262.694      893350.80949    688265.62249  21603263.3774   21603269.1914
  24333903.572    -1578952.05749  -1022143.23549  24333900.2804   24333908.5634
 96  5 15  0 16 30.0000000  0  6 23  5  6 17 16 26
  23944177.922    -2168496.05949  -1671713.60449  23944179.0854   23944186.0014
  23462386.678     2094693.83149   1621815.66949  23462389.2254   23462397.0714
  20432429.336     -594509.95149   -382802.34049  20432431.1264   20432436.2344
  22029986.400    -1298288.44849   -998860.55649  22029988.5444   22029995.0854
  21613102.857      945066.39849    728563.47049  21613104.1364   21613110.2984
  24318426.489    -1660235.72349  -1085481.10749  24318431.7384   24318440.9744
 96  5 15  0 17  0.0000000  0  6 23  5  6 17 16 26
  23924141.492    -2273788.73249  -1753759.72149  23924142.0954   23924149.8834
  23482650.330     2201172.26149   1704785.76349  23482651.8924   23482660.6544
  20427601.468     -619881.00249   -402571.98249  20427603.6384   20427608.3454
  22018392.015    -1359223.74249  -1046342.55749  22018393.6754   22018399.3454
  21623047.570      997324.30449    769283.90249  21623048.9644   21623054.5514
  24302982.627    -1741392.36849  -1148719.96449  24302988.8344   24302996.3464
 96  5 15  0 17 30.0000000  0  6 23  5  6 17 16 26
  23904138.158    -2378919.83649  -1835679.92149  23904136.4174   23904143.9304
  23502943.276     2307815.52249   1787884.32349  23502945.3244   23502954.1834
  20422845.637     -644882.56149   -422053.71549  20422846.1754   20422850.9194
  22006849.582    -1419876.36049  -1093604.29349  22006851.3144   22006857.4904
  21633092.303     1050110.11349    810415.69749  21633093.8114   21633099.4254
  24287569.199    -1822427.13249  -1211863.83949  24287570.0244   24287575.5394
 96  5 15  0 18  0.0000000  0  6 23  5  6 17 16 26
  23884159.233    -2483877.02349  -1917464.61249  23884162.3854   23884171.0174
  23523267.488     2414620.21749   1871108.69449  23523269.5634   23523279.3394
  20418158.586     -669506.79049   -441241.41749  20418160.0464   20418165.0414
  21995363.320    -1480236.50849  -1140638.13049  21995365.0954   21995371.6764
  21643241.617     1103438.40949    851970.21349  21643241.9354   21643247.7254
  24272175.268    -1903347.23549  -1274918.36549  24272171.8204   24272176.4424
 96  5 15  0 18 30.0000000  0  6 23  5  6 17 16 26
  23864219.010    -2588681.99549  -1999130.70049  23864219.1364   23864227.8634
  23543623.105     2521582.79349   1954456.04949  23543623.9194   23543633.2134
  20413540.041     -693776.12049   -460152.57549  20413541.6574   20413546.4494
  21983930.961    -1540317.87449  -1187454.73549  21983932.0584   21983939.0534
  21653486.996     1157289.72749    893932.27849  21653489.4844   21653495.0264
  24256792.255    -1984158.00549  -1337887.70749  24256793.5924   24256800.0404
 96  5 15  0 19  0.0000000  0  6 23  5  6 17 16 26
  23844302.038    -2693328.57349  -2080673.36349  23844305.7264   23844315.4034
  23564007.409     2628709.13649   2037931.04149  23564010.5094   23564017.4164
  20408993.377     -717674.03449   -478774.32349  20408994.3194   20408999.1914
  21972553.165    -1600108.12849  -1234044.50449  21972554.0464   21972561.3794
  21663837.775     1211678.53149    936313.15949  21663839.4164   21663845.3594
  24241441.641    -2064838.49549  -1400755.52949  24241439.1274   24241445.0594
 96  5 15  0 19 30.0000000  0  6 23  5  6 17 16 26
  23824423.747    -2797815.51549  -2162091.63849  23824421.9344   23824431.6524
  23584422.713     2735977.35049   2121516.57849  23584423.4144   23584430.7174
  20404519.128     -741185.87249   -497095.23449  20404520.0574   20404524.9094
  21961229.936    -1659608.47049  -1280408.36049  21961231.1944   21961238.7764
  21674289.595     1266603.65849    979111.95849  21674291.2124   21674296.7784
  24226110.115    -2145394.97149  -1463526.73449  24226107.9574   24226117.5334
 96  5 15  0 20  0.0000000  0  6 23  5  6 17 16 26
  23804568.577    -2902135.57349  -2243379.88849  23804569.8414   23804577.6404
  23604858.949     2843383.28549   2205209.41549  23604861.8144   23604868.6004
  20400117.869     -764313.86049   -515117.03949  20400118.8514   20400123.8864
  21949962.069    -1718820.74649  -1326547.76149  21949963.1734   21949971.0284
  21684841.181     1322050.97049   1022317.65449  21684841.9924   21684847.9344
  24210799.819    -2225844.73249  -1526214.82549  24210799.2804   24210809.5524
 96  5 15  0 20 30.0000000  0  6 23  5  6 17 16 26
  23784746.526    -3006293.74849  -2324541.99549  23784748.7424   23784757.6554
  23625324.028     2950932.89949   2289014.19749  23625325.9814   23625333.4894
  20395785.935     -787074.00449   -532852.21349  20395787.6804   20395792.8144
  21938749.125    -1777746.20049  -1372463.65849  21938750.7624   21938757.4084
  21695490.932     1378011.78449   1065923.48149  21695491.6144   21695497.3674
  24195510.342    -2306174.63149  -1588809.50549  24195513.8354   24195522.6324
 96  5 15  0 21  0.0000000  0  6 23  5  6 17 16 26
  23764962.632    -3110259.81749  -2405554.39749  23764965.3214   23764973.0184
  23645817.641     3058628.55349   2372932.76349  23645819.9044   23645827.9914
  20391528.370     -809452.28449   -550289.83149  20391529.0864   20391534.4424
  21927592.524    -1836372.06249  -1418146.11049  21927594.0514   21927600.5254
  21706236.654     1434487.20649   1109930.29949  21706238.1824   21706244.3264
  24180249.036    -2386369.60649  -1651299.03349  24180253.2834   24180260.2574
 96  5 15  0 21 30.0000000  0  6 23  5  6 17 16 26
  23745220.309    -3214019.57549  -2486406.04749  23745220.4584   23745226.8434
  23666346.046     3166479.66749   2456972.48849  23666344.3684   23666351.9324
  20387338.067     -831469.35749   -567445.98149  20387339.3204   20387344.2324
  21916490.379    -1894713.39749  -1463606.85249  21916492.0374   21916498.7174
  21717080.622     1491466.00849   1154329.35949  21717081.3154   21717086.9944
  24165014.958    -2466431.29949  -1713684.70349  24165018.5974   24165024.2734
 96  5 15  0 22  0.0000000  0  6 23  5  6 17 16 26
  23725513.444    -3317580.14649  -2567102.47349  23725514.1764   23725520.1894
  23686898.080     3274487.86049   2541134.60749  23686898.5424   23686905.9764
  20383210.374     -853158.51349   -584346.61649  20383212.0014   20383216.4554
  21905438.741    -1952791.58049  -1508862.54349  21905440.5224   21905446.8084
  21728015.250     1548937.42849   1199112.28249  21728017.1704   21728023.6694
  24149809.450    -2546350.78549  -1775959.54849  24149810.6254   24149818.2244
 96  5 15  0 22 30.0000000  0  6 23  5  6 17 16 26
  23705841.957    -3420949.84049  -2647650.17749  23705843.0634   23705851.1104
  23707479.694     3382645.52149   2625413.21449  23707479.6584   23707487.8884
  20379145.884     -874516.76049   -600989.40749  20379147.3474   20379152.3894
  21894435.722    -2010613.42149  -1553918.49149  21894437.1854   21894443.6624
  21739049.553     1606913.95949   1244288.78949  21739049.9084   21739055.9574
  24134629.729    -2626126.92949  -1838122.70749  24134628.8174   24134636.5284
 96  5 15  0 23  0.0000000  0  6 23  5  6 17 16 26
  23686214.048    -3524100.64649  -2728027.33849  23686215.3434   23686222.5224
  23728087.395     3490961.70149   2709815.33749  23728091.8564   23728100.1324
  20375155.280     -895491.41649   -617333.29449  20375156.3464   20375161.5304
  21883484.227    -2068162.31949  -1598761.75249  21883485.5174   21883492.4754
  21750182.888     1665415.87049   1289874.68749  21750182.9104   21750188.3264
  24119476.863    -2705744.55949  -1900162.34049  24119477.8114   24119485.5444
 96  5 15  0 23 30.0000000  0  6 23  5  6 17 16 26
  23666625.358    -3627041.07049  -2808240.55749  23666625.3394   23666632.8304
  23748727.781     3599413.62149   2794323.24549  23748729.0394   23748738.0214
  20371236.419     -916078.73249   -633375.35249  20371238.6154   20371243.8794
  21872584.273    -2125444.50349  -1643397.18849  21872585.0944   21872592.1334
  21761415.003     1724454.13349   1335878.52149  21761417.2294   21761423.0834
  24104357.652    -2785209.09049  -1962082.67249  24104357.4274   24104364.3134
 96  5 15  0 24  0.0000000  0  6 23  5  6 17 16 26
  23647075.157    -3729774.78949  -2888292.71749  23647075.5754   23647083.5844
  23769385.450     3707974.52749   2878916.05949  23769386.7604   23769396.4764
  20367398.305     -936251.53949   -649094.42749  20367399.6874   20367404.8534
  21861736.858    -2182445.82849  -1687813.77149  21861738.3894   21861745.4204
  21772752.335     1784025.99749   1382298.14449  21772753.3754   21772759.1654
  24089262.059    -2864525.79549  -2023887.83949  24089263.5604   24089271.5534
 96  5 15  0 24 30.0000000  0  6 23  5  6 17 16 26
  23627568.043    -3832277.66149  -2968165.00749  23627569.3954   23627577.9904
  23790061.077     3816623.90549   2963577.81149  23790062.4414   23790071.6304
  20363645.435     -955978.88149   -664466.38749  20363646.2944   20363651.1954
  21850946.861    -2239151.53049  -1731999.99449  21850947.4904   21850954.4694
  21784186.842     1844116.54549   1429121.93449  21784188.0274   21784194.3594
  24074196.385    -2943696.27749  -2085579.06049  24074198.5164   24074205.7804
 96  5 15  0 25  0.0000000  0  6 23  5  6 17 16 26
  23608110.578    -3934526.62249  -3047839.43049  23608112.5584   23608120.7434
  23810754.718     3925355.54749   3048303.60449  23810754.1364   23810762.7854
  20359975.339     -975260.78549   -679491.24549  20359977.0294   20359981.9054
  21840216.549    -2295539.22149  -1775938.43149  21840217.5614   21840223.9064
  21795718.494     1904718.45049   1476344.17649  21795719.9124   21795726.4904
  24059163.776    -3022697.01049  -2147137.98749  24059164.4314   24059171.7014
 96  5 15  0 25 30.0000000  0  6 23  5  6 17 16 26
  23588699.694    -4036540.41349  -3127330.58649  23588699.7964   23588706.6404
  23831461.034     4034170.26549   3133094.14349  23831461.9044   23831469.0774
  20356383.866     -994134.14449   -694197.74749  20356385.3034   20356390.3994
  21829544.839    -2351619.73949  -1819637.49849  21829546.0144   21829551.7984
  21807345.378     1965817.84849   1523954.07949  21807347.0444   21807353.5034
  24044158.077    -3101538.35449  -2208572.71149  24044161.6534   24044168.5184
 96  5 15  0 26  0.0000000  0  6 23  5  6 17 16 26
  23569330.837    -4138318.17449  -3206637.84349  23569331.8644   23569339.6884
  23852189.443     4143096.60449   3217971.67949  23852188.8384   23852197.1504
  20352869.785    -1012599.98949   -708586.71449  20352871.4744   20352876.5584
  21818930.766    -2407393.62249  -1863097.63649  21818932.6044   21818938.5834
  21819064.578     2027398.23449   1571938.77249  21819065.3804   21819071.4744
  24029187.978    -3180206.18949  -2269872.24649  24029191.7154   24029198.6284
 96  5 15  0 26 30.0000000  0  6 23  5  6 17 16 26
  23550004.884    -4239872.86849  -3285771.27249  23550007.0024   23550014.2494
  23872944.826     4252165.07749   3302960.00049  23872945.0144   23872952.2094
  20349427.990    -1030683.24449   -722677.55649  20349430.0084   20349434.9864
  21808376.702    -2462857.16149  -1906315.94649  21808378.1604   21808384.1844
  21830877.397     2089471.72649   1620307.71749  21830877.7904   21830883.4354
  24014256.879    -3258677.76349  -2331018.84949  24014258.9324   24014266.2074
 96  5 15  0 27  0.0000000  0  6 23  5  6 17 16 26
  23530715.298    -4341245.31549  -3364762.71149  23530715.7654   23530723.9794
  23893729.462     4361388.76049   3388069.26349  23893729.2624   23893737.4254
  20346056.614    -1048402.37749   -736484.66449  20346058.1394   20346062.9234
  21797877.662    -2518027.76149  -1949305.98949  21797879.5834   21797885.3574
  21842783.521     2152042.07349   1669063.82449  21842784.2754   21842790.3604
  23999360.658    -3336964.24049  -2392021.22349  23999360.7704   23999368.9684
 96  5 15  0 27 30.0000000  0  6 23  5  6 17 16 26
  23511460.282    -4442433.45949  -3443610.53649  23511460.1034   23511469.5124
  23914545.060     4470783.43849   3473311.76349  23914547.5244   23914554.7554
  20342757.532    -1065741.62749   -749995.75549  20342758.9984   20342763.7524
  21787434.465    -2572906.69749  -1992068.76149  21787436.2694   21787442.4504
  21854787.148     2215120.57849   1718215.89349  21854787.7594   21854793.5924
  23984497.451    -3415055.68149  -2452871.61449  23984500.1784   23984508.3624
 96  5 15  0 28  0.0000000  0  6 23  5  6 17 16 26
  23492238.802    -4543433.74849  -3522311.97549  23492240.0444   23492248.9494
  23935387.903     4580318.60849   3558663.73649  23935390.5304   23935398.3434
  20339531.143    -1082696.83649   -763207.60349  20339532.3714   20339536.8934
  21777045.960    -2627499.01749  -2034608.20349  21777047.6554   21777053.5764
  21866885.203     2278697.41449   1767756.27649  21866886.4944   21866892.0564
  23969681.956    -3492945.79449  -2513565.14249  23969678.8104   23969685.9244
 96  5 15  0 28 30.0000000  0  7 23 22  5  6 17 16 26
  23473056.576    -4644245.28249  -3600866.32949  23473057.1554   23473064.3074
  24607286.219     -492809.43619
  23956256.849     4689963.14049   3644100.95349  23956255.8094   23956263.0094
  20336379.907    -1099254.01349   -776109.30149  20336381.3994   20336386.2864
  21766712.794    -2681803.65849  -2076923.46649  21766714.0504   21766719.5734
  21879078.525     2342774.88849   1817686.76349  21879079.7544   21879085.7504
  23954891.857    -3570651.83949  -2574115.25549  23954890.9284   23954898.1624
 96  5 15  0 29  0.0000000  0  7 23 22  5  6 17 16 26
  23453914.007    -4744836.49849  -3679248.99949  23453915.1964   23453921.7524
  24591719.345     -574614.270 9
  23977133.612     4799696.71349   3729607.57049  23977135.5024   23977145.7954
  20333311.217    -1115381.76949   -788676.38249  20333312.1404   20333317.3174
  21756433.144    -2735818.41749  -2119012.85049  21756434.8614   21756440.9954
  21891365.569     2407345.53649   1868001.53749  21891366.4484   21891373.2234
  23940136.165    -3648182.75249  -2634528.89649  23940138.1474   23940146.1534
 96  5 15  0 29 30.0000000  0  7 23 22  5  6 17 16 26
  23434817.223    -4845199.12249  -3757453.55349  23434816.9754   23434823.6134
  24576229.158     -656029.596 9
  23998031.022     4909499.03149   3815167.72849  23998031.8014   23998039.9634
  20330321.230    -1131091.67749   -800917.85949  20330323.2174   20330327.8594
  21746208.978    -2789550.78549  -2160882.19549  21746209.9834   21746216.4974
  21903745.058     2472395.10749   1918689.50549  21903745.7274   21903751.2234
  23925415.620    -3725540.89049  -2694807.91149  23925417.9644   23925423.9534
 96  5 15  0 30  0.0000000  0  7 23 22  5  6 17 16 26
  23415760.287    -4945316.81649  -3835467.24349  23415764.5044   23415772.6014
  24560810.862     -737032.423 9   -161130.84359                  24560818.2304
  24018942.336     5019384.16449   3900792.40649  24018941.9574   24018949.8914
  20327413.312    -1146368.44949   -812821.83849  20327415.8224   20327420.7894
  21736038.897    -2842988.80049  -2202522.18549  21736040.5234   21736047.4224
  21916215.150     2537928.17749   1969754.22149  21916216.1694   21916222.1274
  23910733.343    -3802724.35149  -2754950.83849  23910727.6804   23910736.0994
 96  5 15  0 30 30.0000000  0  7 23 22  5  6 17 16 26
  23396761.773    -5045177.39049  -3913280.59649  23396762.6044   23396769.3804
  24545475.265     -817626.10159   -223931.10849  24545478.0614   24545481.2874
  24039869.751     5129378.77249   3986502.35449  24039874.7914   24039881.1294
  20324592.169    -1161202.42049   -824380.78449  20324593.1134   20324597.8384
  21725927.848    -2896123.56749  -2243925.87049  21725929.5724   21725936.2724
  21928779.544     2603954.40149   2021203.20649  21928780.2934   21928786.6084
  23896075.172    -3879725.17449  -2814951.43649  23896074.2244   23896084.8374
 96  5 15  0 31  0.0000000  0  7 23 22  5  6 17 16 26
  23377808.171    -5144779.87149  -3990892.84249  23377807.6524   23377816.0844
  24530214.752     -897828.17949   -286426.18459  24530214.7544   24530218.1404
  24060825.007     5239477.38349   4072293.30649  24060826.8794   24060831.7974
  20321847.151    -1175628.70049   -835622.04749  20321847.8284   20321852.6504
  21715871.754    -2948972.48949  -2285106.81849  21715873.1884   21715879.4794
  21941436.430     2670469.23949   2073032.92649  21941437.5854   21941444.2244
  23881461.770    -3956529.52449  -2874798.95949  23881459.7444   23881468.5244
 96  5 15  0 31 30.0000000  0  7 23 22  5  6 17 16 26
  23358899.481    -5244135.98949  -4068313.12749  23358901.6774   23358909.1894
  24515030.383     -977659.44559   -348632.28449  24515022.6134   24515030.4224
  24081795.622     5349664.83749   4158153.48749  24081793.9074   24081800.0614
  20319173.697    -1189668.72849   -846562.32449  20319175.9844   20319181.3114
  21705865.678    -3001549.56149  -2326075.93049  21705867.6624   21705874.6064
  21954185.199     2737459.96449   2125233.48049  21954185.7044   21954191.5564
  23866887.465    -4033138.00749  -2934493.86249  23866882.7874   23866891.3494
 96  5 15  0 32  0.0000000  0  7 23 22  5  6 17 16 26
  23340040.763    -5343238.04149  -4145535.42449  23340041.6674   23340049.8094
  24499894.068    -1057146.69559                  24499894.4324
  24102773.636     5459928.41749   4244073.02249  24102777.1944   24102782.3624
  20316578.061    -1203312.38649   -857193.73349  20316579.7324   20316585.0164
  21695913.784    -3053849.15249  -2366828.83449  21695915.1644   21695921.9064
  21967023.771     2804928.64149   2177806.46649  21967024.4054   21967030.3144
  23852346.229    -4109536.63049  -2994025.17849  23852347.7164   23852351.4554
 96  5 15  0 32 30.0000000  0  6 23  5  6 17 16 26
  23321231.808    -5442080.24949  -4222555.24349  23321232.1674   23321240.6644
  24123768.194     5570255.85449   4330042.37149  24123769.3314   24123777.2464
  20314060.695    -1216545.10249   -867504.93449  20314061.7344   20314066.8854
  21686017.708    -3105859.64549  -2407356.46549  21686018.2734   21686024.4624
  21979953.685     2872877.12449   2230753.31449  21979955.1504   21979960.7954
  23837848.368    -4185707.03849  -3053378.66049  23837850.5964   23837857.7514
 96  5 15  0 33  0.0000000  0  6 23  5  6 17 16 26
  23302468.057    -5540666.40349  -4299375.56549  23302472.5194   23302480.6904
  24144773.333     5680636.47749   4416053.12649  24144773.8264   24144784.0754
  20311622.797    -1229354.11849   -877485.98849  20311624.4054   20311629.2174
  21676176.202    -3157572.97149  -2447652.54149  21676177.2834   21676184.1024
  21992973.170     2941290.28649   2284062.25749  21992973.4744   21992979.4964
  23823390.795    -4261659.91949  -3112562.64749  23823395.7704   23823403.8724
 96  5 15  0 33 30.0000000  0  6 23  5  6 17 16 26
  23283756.944    -5639013.44949  -4376009.53949  23283757.1414   23283765.4414
  24165787.904     5791064.40949   4502100.77049  24165787.9564   24165797.1694
  20309268.338    -1241728.00549   -887127.96849  20309269.3464   20309274.7364
  21666390.589    -3208994.12249  -2487720.93649  21666392.3614   21666399.0864
  22006075.175     3010144.97549   2337715.25449  22006076.5604   22006081.7024
  23808977.594    -4337413.10449  -3171591.00749  23808980.0274   23808987.0714
 96  5 15  0 34  0.0000000  0  6 23  5  6 17 16 26
  23265087.325    -5737129.30949  -4452463.38349  23265087.7164   23265095.1074
  24186812.197     5901550.49749   4588193.72549  24186814.0394   24186822.1734
  20306998.912    -1253655.86449   -896422.40049  20306999.6734   20307005.0704
  21656659.988    -3260130.37449  -2527567.33349  21656661.3734   21656668.0134
  22019261.391     3079441.01849   2391712.17249  22019262.6024   22019268.3954
  23794601.351    -4412961.41249  -3230459.72349  23794604.0974   23794610.8164
 96  5 15  0 34 30.0000000  0  6 23  5  6 17 16 26
  23246462.095    -5835012.89349  -4528736.23549  23246461.3404   23246468.3944
  24207852.139     6012115.20449   4674347.91449  24207852.6954   24207860.1954
  20304812.458    -1265144.06549   -905374.24049  20304813.8594   20304818.8944
  21646980.131    -3310992.59349  -2567200.20649  21646982.6394   21646988.6374
  22032530.168     3149170.76649   2446047.02949  22032531.7024   22032537.7144
  23780266.510    -4488312.65649  -3289174.87149  23780265.8964   23780271.9374
 96  5 15  0 35  0.0000000  0  6 23  5  6 17 16 26
  23227879.955    -5932660.55849  -4604825.24349  23227879.5224   23227885.9944
  24228910.400     6122761.62949   4760565.75349  24228909.0334   24228915.2744
  20302704.941    -1276220.40049   -914005.14049  20302706.1964   20302711.0704
  21637349.633    -3361609.68149  -2606642.05049  21637350.7374   21637356.1624
  22045883.121     3219342.42649   2500726.22949  22045884.5344   22045890.9744
  23765962.747    -4563457.07949  -3347728.87049  23765965.6664   23765974.6104
 96  5 15  0 35 30.0000000  0  6 23  5  6 17 16 26
  23209344.995    -6030051.14349  -4680713.94849  23209345.7944   23209354.0844
  24249982.253     6233497.72949   4846853.49149  24249980.2854   24249987.6014
  20300675.701    -1286884.67449   -922314.96949  20300676.6594   20300681.7414
  21627764.079    -3411977.76349  -2645889.85349  21627766.0854   21627771.2544
  22059326.913     3289987.58849   2555774.39649  22059328.1594   22059334.4654
  23751709.494    -4638360.97549  -3406095.45349  23751712.3294   23751719.7784
 96  5 15  0 36  0.0000000  0  6 23  5  6 17 16 26
  23190859.564    -6127194.64349  -4756410.11249  23190859.7554   23190867.1964
  24271064.901     6344309.30349   4933200.02449  24271068.2944   24271074.9294
  20298721.056    -1297156.17249   -930318.74549  20298722.0054   20298727.2174
  21618228.116    -3462093.08049  -2684940.69949  21618228.9814   21618234.5854
  22072858.258     3361092.69749   2611180.96449  22072858.6124   22072864.9254
  23737501.648    -4713028.42949  -3464277.76549  23737503.9724   23737509.1904
 96  5 15  0 36 30.0000000  0  6 23  5  6 17 16 26
  23172420.126    -6224088.08249  -4831911.43649  23172420.9984   23172429.2114
  24292164.317     6455184.93349   5019596.51749  24292167.1374   24292174.2894
  20296838.558    -1307047.51849   -938026.30249  20296839.8024   20296845.1854
  21608740.052    -3511948.69449  -2723789.18449  21608741.6874   21608748.3934
  22086475.881     3432659.41649   2666947.22949  22086477.1464   22086483.9044
  23723336.634    -4787468.60849  -3522282.98849  23723337.6344   23723345.0534
 96  5 15  0 37  0.0000000  0  6 23  5  6 17 16 26
  23154032.728    -6320734.27249  -4907220.08649  23154030.0614   23154038.2684
  24313268.130     6566100.57249   5106024.19849  24313273.1934   24313282.4844
  20295030.589    -1316549.79649   -945430.68549  20295031.9434   20295036.8654
  21599305.752    -3561526.48749  -2762421.19549  21599307.0584   21599314.0784
  22100184.520     3504690.13849   2723075.06549  22100184.6074   22100190.8234
  23709213.715    -4861680.44249  -3580110.29349  23709215.6744   23709223.6144
 96  5 15  0 37 30.0000000  0  6 23  5  6 17 16 26
  23135682.752    -6417137.35249  -4982339.30349  23135685.8334   23135694.4314
  24334382.840     6677061.18849   5192486.91349  24334387.6854   24334398.4564
  20293297.899    -1325649.68149   -952521.50649  20293300.0454   20293305.3334
  21589930.769    -3610788.00049  -2800806.76049  21589932.5084   21589939.4224
  22113976.513     3577170.42549   2779553.20449  22113977.3304   22113983.0384
  23695134.371    -4935675.45149  -3637768.65549  23695135.2264   23695142.5164
 96  5 15  0 38  0.0000000  0  6 23  5  6 17 16 26
  23117388.569    -6513287.32849  -5057261.30449  23117388.6134   23117397.0904
  24355510.498     6788080.88049   5278995.62949  24355514.2874   24355524.8804
  20291644.745    -1334341.80449   -959294.59149  20291646.0444   20291650.9574
  21580620.881    -3659719.86149  -2838935.45049  21580621.5614   21580628.0094
  22127853.350     3650092.61549   2836375.68649  22127853.9664   22127860.0664
  23681092.326    -5009450.89249  -3695255.94649  23681096.3754   23681102.0884
 96  5 15  0 38 30.0000000  0  6 23  5  6 17 16 26
  23099141.730    -6609167.53649  -5131973.10149  23099142.9004   23099151.9394
  24376652.800     6899157.06849   5365548.32749  24376652.5844   24376661.2894
  20290072.663    -1342607.45749   -965735.36349  20290073.5424   20290077.8414
  21571369.574    -3708332.81049  -2876815.64349  21571371.0724   21571377.4084
  22141816.011     3723465.04449   2893548.99949  22141816.3904   22141822.7224
  23667095.855    -5082997.22349  -3752564.68749  23667100.9344   23667107.7984
 96  5 15  0 39  0.0000000  0  6 23  5  6 17 16 26
  23080948.052    -6704778.53249  -5206475.13649  23080949.0024   23080957.4134
  24397797.735     7010268.81749   5452128.76449  24397797.3304   24397805.9354
  20288576.904    -1350458.73149   -971853.24049  20288578.9674   20288583.8414
  21562177.465    -3756638.92249  -2914456.73349  21562178.7874   21562184.4534
  22155857.622     3797254.10449   2951046.94749  22155858.0914   22155863.4904
  23653147.522    -5156315.61649  -3809695.82549  23653148.4874   23653155.4144
 96  5 15  0 39 30.0000000  0  6 23  5  6 17 16 26
  23062809.382    -6800104.37649  -5280754.96449  23062809.7414   23062817.0144
  24418948.381     7121422.16449   5538741.64249  24418949.2394   24418957.6334
  20287164.350    -1357886.37349   -977640.99849  20287165.5184   20287170.6914
  21553042.563    -3804643.13749  -2951862.56749  21553044.1494   21553049.6544
  22169977.564     3871455.00549   3008865.81449  22169978.2044   22169984.1594
  23639241.027    -5229386.67449  -3866634.24849  23639244.0414   23639249.9594
 96  5 15  0 40  0.0000000  0  6 23  5  6 17 16 26
  23044721.166    -6895164.07949  -5354827.42249  23044720.4634   23044727.2104
  24440105.842     7232588.87149   5625364.88549  24440104.7744   24440112.1784
  20285833.654    -1364880.11349   -983090.65249  20285834.6084   20285839.6334
  21543956.320    -3852387.51849  -2989065.94449  21543958.2774   21543964.5734
  22184170.976     3946049.64549   3066991.49349  22184172.7834   22184178.6934
  23625382.992    -5302219.18249  -3923386.79449  23625384.6134   23625390.6784
 96  5 15  0 40 30.0000000  0  6 23  5  6 17 16 26
  23026676.785    -6989966.77449  -5428699.61149  23026679.4294   23026686.4654
  24461258.118     7343744.82649   5711979.72549  24461256.2494   24461263.4494
  20284585.786    -1371432.43249   -988196.34049  20284587.6414   20284592.4944
  21534917.805    -3899882.91749  -3026075.31149  21534920.2694   21534926.6584
  22198440.140     4021031.23549   3125418.69949  22198441.6224   22198447.1464
  23611564.918    -5374814.10249  -3979954.23849  23611568.7844   23611576.1424
 96  5 15  0 41  0.0000000  0  6 23  5  6 17 16 26
  23008689.060    -7084509.62949  -5502369.31849  23008688.5834   23008696.0724
  24482409.722     7454907.18549   5798599.55249  24482409.7344   24482417.9634
  20283424.948    -1377539.71649   -992955.25549  20283425.7904   20283430.4874
  21525929.790    -3947121.26249  -3062884.38149  21525930.9794   21525936.9944
  22212785.093     4096408.57549   3184154.27549  22212785.4154   22212790.9694
  23597801.594    -5447152.12949  -4036321.48949  23597804.1024   23597811.1484
 96  5 15  0 41 30.0000000  0  6 23  5  6 17 16 26
  22990740.163    -7178818.09149  -5575856.38549  22990742.8244   22990749.0784
  24503565.140     7566084.45849   5885231.03749  24503564.8214   24503573.3254
  20282348.335    -1383194.53549   -997361.60449  20282349.2254   20282354.0364
  21516986.816    -3994115.65749  -3099503.35449  21516987.8394   21516994.0624
  22227204.603     4172189.08749   3243204.01249  22227205.8144   22227211.9434
  23584084.651    -5519232.89349  -4092488.26849  23584087.6234   23584093.9504
 96  5 15  0 42  0.0000000  0  7 23 22  5  6 17 16 26
  22972839.116    -7272892.70949  -5649161.23449  22972839.3274   22972846.9474
  24212634.847      -18160.00619
  24524724.602     7677284.05349   5971879.94049  24524725.2674   24524734.5234
  20281355.137    -1388409.99649  -1001425.59349  20281356.8034   20281361.9694
  21508089.152    -4040873.13049  -3135937.71449  21508090.6384   21508096.2014
  22241702.658     4248378.21549   3302572.16149  22241703.9704   22241710.3794
  23570418.252    -5591063.18149  -4148459.87949  23570419.4694   23570424.7994
 96  5 15  0 42 30.0000000  0  7 23 22  5  6 17 16 26
  22954990.814    -7366683.50449  -5722244.92249  22954991.8374   22954999.2564
  24199055.861      -89450.250 9
  24545891.483     7788534.94449   6058568.78349  24545895.5764   24545904.3634
  20280445.871    -1393194.39049  -1005153.69449  20280446.7194   20280451.5774
  21499242.200    -4087364.93149  -3172165.05049  21499243.8804   21499249.1434
  22256282.841     4324998.48249   3362276.23949  22256284.0744   22256290.6004
  23556802.456    -5662611.61649  -4204211.85549  23556803.1464   23556808.9874
 96  5 15  0 43  0.0000000  0  7 23 22  5  6 17 16 26
  22937196.560    -7460187.02149  -5795104.77549  22937198.0664   22937206.5014
  24185588.016     -160311.559 9
  24567074.269     7899844.24949   6145303.12649  24567076.8614   24567086.7784
  20279616.576    -1397550.96549  -1008548.43249  20279617.5514   20279622.2904
  21490444.751    -4133594.15849  -3208187.79649  21490446.2774   21490452.1684
  22270945.622     4402045.41649   3422312.79649  22270946.3694   22270952.0544
  23543239.016    -5733881.78849  -4259747.02049  23543240.2794   23543247.5804
 96  5 15  0 43 30.0000000  0  7 23 22  5  6 17 16 26
  22919460.691    -7553394.09549  -5867733.62449  22919461.7434   22919470.6314
  24172166.378     -230747.745 9   -169912.54159                  24172178.5844
  24588263.459     8011192.96249   6232068.22849  24588267.3114   24588278.3824
  20278868.440    -1401480.18649  -1011610.15949  20278869.7074   20278874.8504
  21481700.170    -4179548.43849  -3243996.29649  21481701.0394   21481707.4174
  22285687.363     4479506.94749   3482672.41949  22285686.5624   22285692.5984
  23529725.301    -5804887.12249  -4315075.81549  23529728.4124   23529736.0454
 96  5 15  0 44  0.0000000  0  7 23 22  5  6 17 16 26
  22901786.275    -7646273.42549  -5940107.08549  22901788.4084   22901797.4254
  24158848.992     -300752.44059   -224461.58759  24158849.9494   24158860.1674
  24609463.902     8122580.89649   6318863.87049  24609461.6574   24609473.7174
  20278204.450    -1404973.20949  -1014331.99749  20278205.3364   20278210.2194
  21473011.262    -4225208.89949  -3279575.85149  21473012.5724   21473018.4094
  22300507.700     4557393.45549   3543363.19549  22300507.2064   22300513.9934
  23516266.572    -5875616.79449  -4370189.79749  23516269.1024   23516276.3044
 96  5 15  0 44 30.0000000  0  7 23 22  5  6 17 16 26
  22884174.819    -7738830.48649  -6012229.43349  22884176.5054   22884184.5734
  24145612.784     -370317.32959   -278668.00649  24145612.1014   24145618.3914
  24630661.745     8233994.31949   6405679.36049  24630662.9734   24630675.0734
  20277626.312    -1408014.97549  -1016702.20449  20277626.5764   20277631.2454
  21464379.650    -4270567.44749  -3314920.14949  21464380.6754   21464387.0104
  22315407.260     4635697.85049   3604379.58849  22315408.7194   22315414.6624
  23502862.556    -5946059.92849  -4425080.50249  23502864.3074   23502870.6504
 96  5 15  0 45  0.0000000  0  7 23 22  5  6 17 16 26
  22866616.234    -7831107.22349  -6084133.34649  22866616.2504   22866623.9604
  24132451.609     -439454.79249   -332541.33649  24132455.6034   24132465.1684
  24651867.239     8345406.29349   6492493.77049  24651863.3294   24651876.6934
  20277131.136    -1410610.51949  -1018724.70149  20277132.4944   20277137.3824
  21455802.038    -4315640.79849  -3350042.20949  21455803.1764   21455810.0624
  22330384.024     4714401.59949   3665707.16649  22330384.6334   22330390.9504
  23489507.773    -6016238.50849  -4479765.08249  23489509.7584   23489516.4964
 96  5 15  0 45 30.0000000  0  7 23 22  5  6 17 16 26
  22849108.566    -7923099.11449  -6155815.29649  22849110.4454   22849117.2464
  24119384.881     -508157.70549   -386076.01449  24119381.8474   24119390.0104
  24673068.086     8456821.73349   6579310.90549  24673065.8324   24673078.7014
  20276721.866    -1412762.53549  -1020401.58149  20276723.0714   20276727.9034
  21447281.131    -4360420.77949  -3384935.67749  21447281.7864   21447288.6884
  22345439.240     4793512.77749   3727352.21949  22345439.4754   22345445.5064
  23476207.406    -6086136.95849  -4534231.34449  23476208.9244   23476215.7684
 96  5 15  0 46  0.0000000  0  6 23 22  6 17 16 26
  22831657.123    -8014814.86249  -6227282.07349  22831656.6474   22831664.5284
  24106381.476     -576419.36159   -439266.84359  24106388.8504   24106399.2614
  20276394.609    -1414480.89249  -1021740.56949  20276396.2654   20276400.9034
  21438811.029    -4404927.66649  -3419616.34249  21438812.5814   21438819.3744
  22360567.113     4873016.20349   3789302.91949  22360568.1954   22360574.4204
  23462958.561    -6155746.60949  -4588472.58249  23462962.3924   23462968.9904
 96  5 15  0 46 30.0000000  0  6 23 22  6 17 16 26
  22814255.492    -8106253.48049  -6298532.90749  22814255.2894   22814264.1334
  24093491.267     -644240.24949   -492114.25149  24093488.2794   24093493.9264
  20276150.688    -1415760.33049  -1022737.53149  20276151.7434   20276157.2354
  21430395.000    -4449157.43149  -3454081.07149  21430396.2334   21430402.7394
  22375770.836     4952908.14649   3851556.36649  22375771.3454   22375776.3614
  23449769.076    -6225062.55649  -4642484.93949  23449771.3194   23449778.9374
 96  5 15  0 47  0.0000000  0  6 23 22  6 17 16 26
  22796906.897    -8197412.10549  -6369565.58049  22796908.8464   22796916.8214
  24080665.218     -711620.19049   -544618.09949  24080664.7224   24080668.7644
  20275990.263    -1416607.07649  -1023397.30749  20275990.7174   20275996.1034
  21422027.942    -4493121.39149  -3488338.68349  21422029.9584   21422036.6994
  22391044.670     5033169.97249   3914098.04149  22391044.9804   22391050.8734
  23436633.491    -6294100.42849  -4696280.59649  23436634.2314   23436640.8144
 96  5 15  0 47 30.0000000  0  6 23 22  6 17 16 26
  22779613.862    -8288292.29249  -6440381.25849  22779614.9124   22779622.8454
  24067928.772     -778562.79959   -596781.07359  24067925.3114   24067933.5784
  20275910.323    -1417028.13349  -1023725.39549  20275911.6284   20275916.0504
  21413710.398    -4536835.15249  -3522401.33349  21413711.6924   21413718.1924
  22406383.062     5113778.54949   3976909.90149  22406383.8614   22406389.5904
  23423548.486    -6362863.09049  -4749861.83849  23423549.3964   23423555.5594
 96  5 15  0 48  0.0000000  0  6 23 22  6 17 16 26
  22762375.057    -8378888.97349  -6510976.03249  22762375.2774   22762382.8064
  24055271.348     -845070.77549   -648605.43649  24055271.0394   24055277.9354
  20275914.627    -1417001.89649  -1023704.94649  20275915.9944   20275920.8974
  21405441.570    -4580294.79849  -3556265.96449  21405441.5014   21405447.3324
  22421790.569     5194740.19649   4039996.88549  22421790.7564   22421797.0984
  23410515.372    -6431346.57249  -4803225.52749  23410516.6564   23410524.1724
 96  5 15  0 48 30.0000000  0  6 23 22  6 17 16 26
  22745185.673    -8469218.99849  -6581363.01849  22745186.9314   22745193.7124
  24042690.985     -911174.09349   -700114.50049  24042691.3594   24042699.6674
  20276004.660    -1416525.80149  -1023333.95849  20276006.1864   20276011.3934
  21397217.235    -4623507.00049  -3589937.78749  21397218.4954   21397224.2554
  22437262.946     5276050.10249   4103355.23149  22437263.5204   22437269.4744
  23397533.378    -6499566.26049  -4856383.65849  23397534.2874   23397542.3014
 96  5 15  0 49  0.0000000  0  6 23 22  6 17 16 26
  22728046.413    -8559283.71849  -6651543.27449  22728048.0504   22728055.7824
  24030186.749     -976866.62049   -751303.44549  24030189.1884   24030196.5904
  20276181.064    -1415601.89549  -1022614.03249  20276182.5664   20276187.4454
  21389040.369    -4666474.56849  -3623418.98749  21389042.0204   21389047.9644
  22452802.028     5357711.47249   4166987.44449  22452802.9034   22452808.9024
  23384602.253    -6567511.23049  -4909327.72649  23384604.9154   23384612.3924
 96  5 15  0 49 30.0000000  0  6 23 22  6 17 16 26
  22710957.163    -8649090.75849  -6721522.73649  22710958.7524   22710966.8664
  24017765.172    -1042155.44149   -802177.83449  24017766.2504   24017774.0804
  20276441.463    -1414234.17749  -1021548.28249  20276442.5914   20276447.6194
  21380911.746    -4709189.28949  -3656703.15749  21380913.5184   21380919.9504
  22468413.232     5439744.03949   4230908.91049  22468413.6514   22468418.5284
  23371728.037    -6635169.51349  -4962048.38249  23371730.5554   23371737.5364
 96  5 15  0 50  0.0000000  0  6 23 22  6 17 16 26
  22693921.293    -8738618.38749  -6791284.48249  22693921.7144   22693929.9684
  24005423.566    -1107034.78349   -852733.17949  24005419.2204   24005424.4284
  20276788.874    -1412410.46949  -1020127.21249  20276789.6454   20276794.9454
  21372835.514    -4751632.22049  -3689775.54549  21372837.2054   21372843.5454
  22484097.394     5522167.19249   4295134.73149  22484098.2474   22484103.9774
  23358912.315    -6702526.81749  -5014534.49049  23358914.2534   23358919.8424
 96  5 15  0 50 30.0000000  0  6 23 22  6 17 16 26
  22676937.709    -8827857.67249  -6860821.54349  22676939.4874   22676948.5794
  23993154.525    -1171492.06449   -902959.59849  23993151.7174   23993160.1564
  20277219.922    -1410143.12349  -1018360.43649  20277221.2844   20277226.2534
  21364811.497    -4793805.09649  -3722637.50249  21364812.0824   21364818.2284
  22499850.604     5604960.98449   4359649.35549  22499853.7504   22499859.1074
  23346152.785    -6769583.79749  -5066786.59949  23346152.2734   23346160.7914
 96  5 15  0 51  0.0000000  0  6 23 22  6 17 16 26
  22660012.707    -8916787.32949  -6930117.34449  22660015.2494   22660025.0414
  23980974.807    -1235494.33149   -952831.47949  23980974.2584   23980982.5304
  20277735.129    -1407438.36949  -1016252.83449  20277735.9984   20277740.7204
  21356838.241    -4835697.98949  -3755281.28649  21356839.6094   21356845.7974
  22515681.474     5688146.89149   4424469.51449  22515682.6024   22515689.1614
  23333449.347    -6836326.20849  -5118793.60649  23333451.6054   23333458.9774
 96  5 15  0 51 30.0000000  0  6 23 22  6 17 16 26
  22643153.538    -9005391.11349  -6999159.21149  22643154.9574   22643163.7354
  23968882.935    -1299033.12749  -1002342.18149  23968883.5834   23968889.8754
  20278333.932    -1404288.00449  -1013797.99649  20278335.2284   20278340.2324
  21348921.329    -4877301.92549  -3787699.91149  21348922.7154   21348928.5914
  22531585.692     5771724.97649   4489595.27249  22531586.7494   22531593.3424
  23320810.575    -6902735.75549  -5170541.22849  23320813.9944   23320820.2084
 96  5 15  0 52  0.0000000  0  6 23 22  6 17 16 26
  22626356.825    -9093668.20249  -7067946.50449  22626357.6824   22626364.5004
  23956883.031    -1362107.12949  -1051490.73749  23956881.5414   23956889.6944
  20279017.800    -1400699.39749  -1011001.67749  20279018.6264   20279023.2654
  21341057.398    -4918627.92149  -3819901.95349  21341058.6344   21341064.4684
  22547561.509     5855669.98949   4555006.95049  22547561.9874   22547567.4374
  23308236.177    -6968817.55549  -5222033.45949  23308239.2984   23308245.0984
 96  5 15  0 52 30.0000000  0  6 23 22  6 17 16 26
  22609618.481    -9181629.88649  -7136488.03049  22609619.0474   22609625.7464
  23944969.215    -1424703.49949  -1100267.04649  23944970.3524   23944976.7164
  20279783.269    -1396675.81249  -1007866.41949  20279783.4984   20279789.2414
  21333246.013    -4959679.78049  -3851890.38549  21333246.9214   21333253.1164
  22563605.155     5939979.62649   4620702.75549  22563604.8344   22563611.2724
  23295725.436    -7034573.25049  -5273271.59549  23295726.5464   23295732.8114
 96  5 15  0 53  0.0000000  0  6 23 22  6 17 16 26
  22592939.377    -9269281.97149  -7204788.30249  22592940.3704   22592945.9424
  23933148.938    -1486826.88249  -1148674.84649  23933149.0244   23933154.7954
  20280631.667    -1392209.86249  -1004386.45349  20280633.2694   20280639.1934
  21325485.880    -5000457.78249  -3883665.43349  21325486.9824   21325493.2444
  22579718.288     6024656.95049   4686685.05949  22579719.0984   22579724.5674
  23283275.584    -7099990.71849  -5324246.18149  23283278.0854   23283284.5564
 96  5 15  0 53 30.0000000  0  6 23 22  6 17 16 26
  22576317.547    -9356627.42049  -7272849.64649  22576318.8814   22576325.4034
  23921411.106    -1548494.27849  -1196727.33249  23921412.4624   23921417.5744
  20281569.266    -1387289.93849  -1000552.75149  20281570.4414   20281574.8394
  21317776.413    -5040972.28849  -3915235.14949  21317777.3074   21317783.5604
  22595894.558     6109670.63749   4752929.46849  22595896.6924   22595902.4854
  23270892.391    -7165077.01049  -5374962.71349  23270892.7734   23270899.2674
 96  5 15  0 54  0.0000000  0  6 23 22  6 17 16 26
  22559756.834    -9443660.35649  -7340667.47549  22559756.3834   22559763.5784
  23909764.100    -1609706.24849  -1244424.89749  23909763.8054   23909770.0234
  20282592.230    -1381912.64249   -996362.65949  20282593.3184   20282597.9614
  21310116.056    -5081230.44649  -3946605.11549  21310116.4004   21310122.7384
  22612135.772     6195015.56549   4819431.98049  22612137.3574   22612143.0594
  23258561.680    -7229853.13349  -5425437.54549  23258565.2974   23258572.7754
 96  5 15  0 54 30.0000000  0  6 23 22  6 17 16 26
  22543255.006    -9530364.88049  -7408229.40749  22543256.5494   22543264.2294
  23898202.069    -1670464.52949  -1291768.96449  23898202.6834   23898208.7284
  20283703.803    -1376068.12649   -991808.48849  20283705.3974   20283710.2864
  21302502.801    -5121237.91149  -3977779.73649  21302503.0754   21302509.2934
  22628441.147     6280696.47949   4886196.30849  22628441.3244   22628447.6904
  23246297.473    -7294310.77549  -5475664.21349  23246298.9454   23246307.3664
 96  5 15  0 55  0.0000000  0  6 23 22  6 17 16 26
  22526823.366    -9616727.97949  -7475525.29449  22526822.5744   22526829.7474
  23886721.808    -1730786.65149  -1338773.17349  23886722.5744   23886729.5114
  20284904.256    -1369760.36549   -986893.34349  20284905.5014   20284911.0124
  21294934.947    -5160998.92049  -4008762.32049  21294936.6094   21294942.8264
  22644805.682     6366699.60649   4953211.70749  22644807.2894   22644813.5594
  23234095.976    -7358441.24649  -5525635.93649  23234096.5374   23234102.3594
 96  5 15  0 55 30.0000000  0  6 23 22  6 17 16 26
  22510450.081    -9702756.97949  -7542560.83749  22510452.1104   22510458.9734
  23875325.923    -1790685.60049  -1385447.63949  23875325.0074   23875331.8924
  20286189.985    -1363009.49849   -981632.92449  20286190.3364   20286195.1754
  21287413.782    -5200527.64449  -4039563.90549  21287414.7564   21287420.7194
  22661230.568     6453010.07949   5020466.58749  22661231.8194   22661238.0054
  23221951.145    -7422260.66349  -5575365.28449  23221952.3784   23221957.0854
 96  5 15  0 56  0.0000000  0  6 23 22  6 17 16 26
  22494144.069    -9788450.83649  -7609335.22849  22494144.9564   22494152.0354
  23864012.957    -1850138.21849  -1431774.31649  23864011.8424   23864019.0384
  20287557.819    -1355816.70149   -976028.15349  20287559.1894   20287563.9944
  21279937.002    -5239815.25149  -4070177.60349  21279938.5034   21279944.7064
  22677716.950     6539642.64949   5087972.45949  22677717.1344   22677723.2134
  23209866.363    -7485761.36449  -5624846.28449  23209868.9594   23209873.5324
 96  5 15  0 56 30.0000000  0  6 23 22  6 17 16 26
  22477898.698    -9873823.88249  -7675859.62249  22477898.4274   22477905.6584
  23852781.018    -1909150.74849  -1477758.07349  23852781.6154   23852788.3244
  20289010.657    -1348183.96649   -970080.56149  20289010.9854   20289016.5694
  21272507.486    -5278859.63549  -4100601.77549  21272508.3704   21272514.8314
  22694261.792     6626587.37849   5155721.57549  22694262.3024   22694268.5034
  23197844.078    -7548937.63949  -5674074.50349  23197845.7254   23197852.9314
 96  5 15  0 57  0.0000000  0  6 23 22  6 17 16 26
  22461709.501    -9958895.20649  -7742148.92949  22461710.1044   22461717.2924
  23841635.485    -1967715.60649  -1523393.01749  23841637.3784   23841645.4284
  20290544.022    -1340122.71149   -963799.06449  20290545.6314   20290550.5764
  21265125.582    -5317648.80949  -4130827.08149  21265127.4054   21265133.3494
  22710865.423     6713845.25749   5223714.70749  22710867.1694   22710872.9514
  23185882.633    -7611801.66849  -5723059.39349  23185883.2894   23185888.8204
 96  5 15  0 57 30.0000000  0  6 23 22  6 17 16 26
  22445574.744   -10043678.98049  -7808214.16549  22445576.3224   22445583.5464
  23830581.347    -2025822.36649  -1568671.00049  23830579.4814   23830585.2724
  20292161.101    -1331624.11549   -957176.79249  20292162.7364   20292168.0394
  21257793.933    -5356183.21849  -4160853.86549  21257794.3754   21257799.9784
  22727531.482     6801424.95249   5291958.60549  22727533.1234   22727538.9564
  23173976.169    -7674359.40049  -5771805.61249  23173978.7444   23173984.9014
 96  5 15  0 58  0.0000000  0  6 23 22  6 17 16 26
  22429500.942   -10128154.52649  -7874039.22449  22429501.8774   22429508.0994
  23819611.760    -2083447.95149  -1613574.07949  23819614.7254   23819618.2914
  20293866.220    -1322665.81149   -950196.29949  20293867.1054   20293872.3434
  21250513.459    -5394443.80649  -4190667.28549  21250513.8314   21250519.3674
  22744261.803     6889339.30249   5360463.26349  22744262.4264   22744268.9464
  23162137.393    -7736586.99849  -5820294.61149  23162137.6384   23162142.7474
 96  5 15  0 58 30.0000000  0  6 23 22  6 17 16 26
  22413485.184   -10212316.23949  -7939619.74749  22413485.5964   22413492.9544
  23808738.219    -2140597.38849  -1658106.12949  23808737.5354   23808744.5664
  20295660.533    -1313239.09649   -942850.80749  20295661.5664   20295666.3094
  21243286.295    -5432420.32949  -4220259.36349  21243286.3804   21243292.6014
  22761053.426     6977583.13049   5429224.66949  22761054.8334   22761061.6784
  23150361.237    -7798463.95249  -5868510.37149  23150361.7174   23150368.9214
 96  5 15  0 59  0.0000000  0  6 23 22  6 17 16 26
  22397528.675   -10296164.16449  -8004955.75349  22397529.3114   22397537.1254
  23797956.613    -2197258.38049  -1702257.53949  23797956.9884   23797962.7004
  20297542.054    -1303347.22049   -935142.84649  20297543.6174   20297548.8454
  21236111.014    -5470122.38749  -4249637.56749  21236112.3964   21236118.0394
  22777908.432     7066156.59449   5498242.93749  22777909.8264   22777915.6224
  23138655.212    -7859972.05549  -5916438.74749  23138657.0744   23138663.9304
 96  5 15  0 59 30.0000000  0  6 23 22  6 17 16 26
  22381636.773   -10379688.57349  -8070039.66449  22381635.8624   22381643.0304
  23787267.733    -2253430.90349  -1746028.26949  23787267.3094   23787274.3084
  20299515.646    -1292979.04749   -927063.75349  20299516.8754   20299521.8994
  21228984.724    -5507571.68049  -4278818.81949  21228986.0904   21228991.8864
  22794820.784     7155031.97049   5567496.46049  22794822.7234   22794828.7714
  23127024.554    -7921097.52649  -5964068.93549  23127026.0174   23127031.5274
 96  5 15  1  0  0.0000000  0  6 23 22  6 17 16 26
  22365805.908   -10462878.81249  -8134863.16749  22365805.2124   22365812.2504
  23776673.636    -2309107.70149  -1789412.73849  23776673.1644   23776677.9864
  20301579.681    -1282132.76949   -918612.11649  20301580.6784   20301586.0604
  21221907.343    -5544762.46449  -4307798.63449  21221908.4514   21221914.8514
  22811788.347     7244194.24449   5636973.54349  22811789.0944   22811795.4194
  23115468.891    -7981825.04149  -6011389.03649  23115469.1084   23115474.6734
 96  5 15  1  0 30.0000000  0  6 23 22  6 17 16 26
  22350035.284   -10545745.35749  -8199434.43749  22350036.1004   22350043.1704
  23766168.440    -2364296.56049  -1832416.99849  23766170.9844   23766176.5164
  20303733.290    -1270808.75149   -909788.21649  20303735.2604   20303740.8464
  21214878.417    -5581697.55849  -4336579.20749  21214879.8724   21214886.5984
  22828807.071     7333628.14549   5706662.28649  22828808.1274   22828814.6154
  23103984.508    -8042165.65749  -6058407.63449  23103987.0514   23103993.0904
 96  5 15  1  1  0.0000000  0  6 23 22  6 17 16 26
  22334328.766   -10628285.75149  -8263751.55349  22334328.8554   22334336.0884
  23755759.481    -2419006.21549  -1875047.83349  23755759.2184   23755765.8184
  20305977.930    -1259016.08249   -900599.10749  20305979.0054   20305984.8904
  21207896.137    -5618394.67149  -4365174.34149  21207896.7224   21207903.2604
  22845877.689     7423333.57649   5776562.60249  22845878.7114   22845884.4024
  23092574.682    -8102138.68349  -6105139.81149  23092574.6064   23092581.7904
 96  5 15  1  1 30.0000000  0  6 23 22  6 17 16 26
  22318687.582   -10710483.89149  -8327801.97349  22318686.2694   22318693.9174
  23745439.010    -2473238.09349  -1917306.41349  23745439.7544   23745445.2194
  20308313.390    -1246747.74649   -891039.35549  20308313.9934   20308319.2894
  21200961.813    -5654837.51549  -4393571.34049  21200962.1244   21200968.1994
  22863003.522     7513324.49549   5846685.38549  22863003.2404   22863009.4624
  23081230.931    -8161752.21449  -6151591.88349  23081230.1224   23081236.2464
 96  5 15  1  2  0.0000000  0  6 23 22  6 17 16 26
  22303105.020   -10792357.94749  -8391599.86849  22303106.2794   22303113.3094
  23735208.006    -2527017.03049  -1959212.07349  23735207.0944   23735212.6484
  20310734.075    -1234025.98249   -881126.29149  20310734.8444   20310739.8944
  21194076.467    -5691017.99449  -4421763.90149  21194077.1434   21194083.2434
  22880184.264     7603611.88149   5917039.16449  22880184.1494   22880191.2424
  23069947.062    -8221028.03849  -6197780.80549  23069949.2294   23069957.2964
 96  5 15  1  2 30.0000000  0  6 23 22  6 17 16 26
  22287588.877   -10873905.68549  -8455143.47349  22287588.9804   22287595.3934
  23725060.113    -2580342.76349  -2000764.53949  23725058.5464   23725064.1374
  20313240.063    -1220854.43649   -870862.73849  20313241.0654   20313246.5624
  21187238.989    -5726947.27749  -4449760.72349  21187239.9524   21187246.2564
  22897423.620     7694212.51449   5987637.03749  22897424.9074   22897431.3554
  23058733.432    -8279972.36649  -6243711.43649  23058734.5414   23058739.9254
 96  5 15  1  3  0.0000000  0  6 23 22  6 17 16 26
  22272132.557   -10955120.86549  -8518427.95749  22272134.4814   22272141.4774
  23714998.917    -2633201.66449  -2041953.28249  23715000.4554   23715005.0564
  20315831.033    -1207239.08949   -860253.36849  20315832.4364   20315837.3224
  21180448.977    -5762628.77049  -4477564.45949  21180449.9944   21180456.2434
  22914730.006     7785155.22349   6058501.47449  22914730.8194   22914737.5444
  23047581.720    -8338568.28549  -6289370.54449  23047582.7054   23047590.0534
 96  5 15  1  3 30.0000000  0  6 23 22  6 17 16 26
  22256736.379   -11036030.16249  -8581474.09149  22256738.0164   22256745.6114
  23705029.067    -2685599.62449  -2082782.84649  23705027.9224   23705035.1134
  20318504.571    -1193189.25249   -849305.43949  20318505.8684   20318511.0834
  21173703.768    -5798076.18049  -4505185.79049  21173704.5704   21173710.9064
  22932095.378     7876411.57749   6129610.31249  22932096.1594   22932102.4424
  23036497.834    -8396817.68049  -6334759.65849  23036498.4764   23036505.5824
 96  5 15  1  4  0.0000000  0  6 23 22  6 17 16 26
  22241401.943   -11116621.29549  -8644272.31249  22241401.8724   22241409.2964
  23695148.804    -2737520.42549  -2123240.65249  23695147.8654   23695153.4874
  20321264.372    -1178687.56549   -838005.42949  20321265.6444   20321270.4004
  21167005.820    -5833275.72949  -4532613.99249  21167006.1364   21167012.6364
  22949519.443     7967978.18649   6200960.89349  22949520.1944   22949527.3644
  23025484.857    -8454696.63149  -6379860.08649  23025484.9014   23025491.2654
 96  5 15  1  4 30.0000000  0  6 23 22  6 17 16 26
  22226128.293   -11196883.21149  -8706814.00149  22226128.3064   22226135.7744
  23685359.574    -2788958.60449  -2163322.32549  23685360.6254   23685368.1014
  20324110.006    -1163736.28749   -826355.07949  20324110.7224   20324115.5074
  21160351.362    -5868243.70649  -4559861.74749  21160352.0134   21160358.5264
  22966999.421     8059838.29249   6272540.18549  22967001.8784   22967006.9124
  23014546.636    -8512191.90949  -6424661.54949  23014544.4864   23014549.8474
 96  5 15  1  5  0.0000000  0  6 23 22  6 17 16 26
  22210919.360   -11276801.27649  -8769087.73249  22210919.6694   22210927.1774
  23675666.321    -2839906.79949  -2203022.19249  23675664.0524   23675673.6274
  20327045.021    -1148310.45249   -814334.95149  20327045.7314   20327050.8684
  21153746.479    -5902954.06049  -4586908.75849  21153746.9814   21153752.8344
  22984535.525     8151984.84749   6344342.68649  22984536.1014   22984542.0754
  23003680.786    -8569276.89349  -6469143.31149  23003681.3674   23003686.7504
 96  5 15  1  5 30.0000000  0  6 23 22  6 17 16 26
  22195776.862   -11356368.47049  -8831088.07649  22195778.0784   22195785.6374
  23666060.683    -2890371.71949  -2242345.49049  23666061.6004   23666068.3784
  20330071.315    -1132405.47149   -801941.46649  20330072.3594   20330077.2904
  21147191.790    -5937399.20349  -4613749.10649  21147192.3084   21147197.8884
  23002118.771     8244384.10749   6416342.09649  23002118.6854   23002124.8724
  22992891.643    -8625962.06049  -6513313.56449  22992892.8064   22992900.2134
 96  5 15  1  6  0.0000000  0  6 23 22  6 17 16 26
  22180704.918   -11435578.29749  -8892809.95749  22180705.4564   22180711.7384
  23656547.947    -2940359.17849  -2281296.71149  23656548.2284   23656556.6724
  20333187.466    -1116028.69149   -789180.35849  20333189.0764   20333194.2654
  21140685.797    -5971583.49649  -4640386.19449  21140687.2244   21140692.6714
  23019749.359     8337039.27349   6488540.90749  23019751.1634   23019756.4044
  22982179.400    -8682250.41849  -6557174.63149  22982181.9814   22982188.9494
 96  5 15  1  6 30.0000000  0  6 23 22  6 17 16 26
  22165701.938   -11514420.39849  -8954245.30349  22165702.2604   22165709.3244
  23647129.557    -2989851.52449  -2319862.14649  23647130.3364   23647138.3264
  20336396.535    -1099168.52949   -776042.58349  20336397.7324   20336402.8424
  21134230.955    -6005508.93649  -4666821.57949  21134231.4134   21134236.6444
  23037432.224     8429963.87949   6560949.68449  23037433.5414   23037439.5274
  22971548.425    -8738135.00449  -6600721.04749  22971548.9844   22971555.0154
 96  5 15  1  7  0.0000000  0  6 23 22  6 17 16 26
  22150769.503   -11592889.56149  -9015390.03649  22150769.7604   22150777.3294
  23637809.767    -3038834.81149  -2358030.91949  23637809.5234   23637815.2614
  20339700.160    -1081805.46449   -762512.94149  20339701.7084   20339706.9044
  21127826.918    -6039156.47749  -4693040.42949  21127828.4684   21127834.3994
  23055168.082     8523163.86649   6633573.04649  23055168.3364   23055175.0274
  22960989.525    -8793625.78649  -6643960.58849  22960989.2374   22960994.7894
 96  5 15  1  7 30.0000000  0  6 23 22  6 17 16 26
  22135909.510   -11670976.66349  -9076237.06649  22135910.6084   22135917.9304
  23628585.531    -3087302.12949  -2395797.62049  23628585.3954   23628593.6874
  20343098.582    -1063946.61249   -748596.95749  20343099.8324   20343104.8244
  21121475.184    -6072532.72949  -4719047.88049  21121477.0134   21121482.9714
  23072957.916     8616648.98249   6706418.59349  23072959.3034   23072964.3404
  22950501.295    -8848731.54649  -6686900.11649  22950502.1654   22950508.3454
 96  5 15  1  8  0.0000000  0  6 23 22  6 17 16 26
  22121121.290   -11748698.77649  -9136799.68149  22121120.5564   22121127.8634
  23619456.193    -3135280.13749  -2433183.05049  23619456.1454   23619462.7934
  20346588.324    -1045612.10149   -734310.34449  20346589.5484   20346593.9564
  21115170.539    -6105664.52449  -4744864.85449  21115172.3134   21115178.2884
  23090798.197     8710401.04149   6779472.13449  23090798.6444   23090804.8874
  22940086.811    -8903460.37649  -6729545.91649  22940087.8254   22940093.7474
 96  5 15  1  8 30.0000000  0  6 23 22  6 17 16 26
  22106399.208   -11826057.26049  -9197078.93449  22106399.5034   22106407.0634
  23610418.943    -3182770.81049  -2470188.74049  23610418.5634   23610426.4024
  20350168.543    -1026798.30249   -719650.24749  20350169.1134   20350174.2574
  21108915.284    -6138538.16949  -4770480.67549  21108917.0084   21108922.3384
  23108687.842     8804409.34849   6852725.34349  23108688.2144   23108694.4744
  22929744.929    -8957807.52149  -6771894.30349  22929745.4854   22929751.4434
 96  5 15  1  9  0.0000000  0  6 23 22  6 17 16 26
  22091745.664   -11903060.93949  -9257081.70649  22091746.2514   22091753.7984
  23601472.826    -3229784.21249  -2506822.53649  23601472.7474   23601479.3324
  20353836.625    -1007521.39549   -704629.27749  20353837.4754   20353842.9204
  21102709.326    -6171152.50749  -4795894.42949  21102710.2514   21102716.7044
  23126623.548     8898665.66649   6926171.79949  23126624.2434   23126631.0544
  22919475.617    -9011764.20249  -6813938.42849  22919478.4964   22919483.9364
 96  5 15  1  9 30.0000000  0  6 23 22  6 17 16 26
  22077157.151   -11979723.23049  -9316818.48649  22077158.0154   22077165.4174
  23592618.034    -3276319.60349  -2543083.86949  23592618.2744   23592623.3004
  20357589.979     -987792.40249   -689256.02449  20357591.7044   20357596.5154
  21096550.094    -6203517.28749  -4821113.72949  21096551.8024   21096557.6234
  23144606.140     8993160.60949   6999804.21349  23144606.6714   23144613.2844
  22909290.107    -9065299.14749  -6855653.92749  22909291.4584   22909296.8914
 96  5 15  1 10  0.0000000  0  6 23 22  6 17 16 26
  22062630.095   -12056063.63549  -9376304.44549  22062630.8184   22062638.1234
  23583851.960    -3322376.60749  -2578972.43249  23583853.0904   23583859.0184
  20361431.645     -967611.75249   -673530.83149  20361431.8384   20361436.8824
  21090439.360    -6235632.05849  -4846138.21149  21090440.3524   21090446.8774
  23162632.640     9087884.43849   7073614.96849  23162632.5284   23162638.6844
  22899184.589    -9118403.77649  -6897034.13449  22899185.0194   22899191.0104
 96  5 15  1 10 30.0000000  0  6 23 22  6 17 16 26
  22048160.965   -12132099.80449  -9435553.34949  22048161.6134   22048168.8544
  23575182.725    -3367945.03349  -2614480.29349  23575181.4594   23575186.5914
  20365355.403     -946989.44749   -657461.49249  20365356.4044   20365360.8884
  21084374.524    -6267507.58049  -4870976.27049  21084374.5214   21084381.0064
  23180700.787     9182835.55249   7147602.83449  23180701.3074   23180705.4964
  22889157.936    -9171087.87749  -6938086.65049  22889159.7544   22889165.4684
 96  5 15  1 11  0.0000000  0  6 23 22  6 17 16 26
  22033753.773   -12207815.15249  -9494552.25349  22033753.6724   22033760.3414
  23566606.577    -3413003.79449  -2649591.00549  23566607.7794   23566612.9204
  20369364.351     -925919.33549   -641043.22149  20369366.0064   20369371.0084
  21078349.636    -6299164.32449  -4895643.85449  21078350.4134   21078356.4264
  23198814.175     9278018.14549   7221771.07149  23198813.6154   23198819.1784
  22879214.954    -9223341.12449  -6978803.43249  22879216.6404   22879222.3174
 96  5 15  1 11 30.0000000  0  6 23 22  6 17 16 26
  22019411.037   -12283183.38049  -9553280.68449  22019411.5684   22019418.4014
  23558135.130    -3457522.69249  -2684281.04749  23558135.4194   23558140.6344
  20373463.661     -904379.44949   -624258.89949  20373464.5084   20373469.7394
  21072367.782    -6330592.03749  -4920132.96949  21072369.5424   21072376.1494
  23216972.261     9373445.54149   7296130.05249  23216973.8874   23216978.0644
  22869354.513    -9275159.21649  -7019181.14349  22869355.6844   22869361.1554
 96  5 15  1 12  0.0000000  0  6 23 22  6 17 16 26
  22005141.400   -12358167.22949  -9611709.61049  22005142.0454   22005148.8924
  23549768.874    -3501480.50849  -2718533.89949  23549770.6004   23549775.2404
  20377654.231     -882357.23949   -607098.73749  20377655.0784   20377660.2634
  21066434.192    -6361781.29949  -4944436.27649  21066435.0244   21066440.7764
  23235181.903     9469142.02649   7370698.71949  23235182.5924   23235189.2984
  22859575.271    -9326545.89649  -7059222.70049  22859577.1404   22859583.1664
 96  5 15  1 12 30.0000000  0  6 23 22  6 17 16 26
  21990950.253   -12432741.17349  -9669819.13449  21990951.0014   21990957.8294
  23541512.248    -3544872.68349  -2752345.97349  23541513.8694   23541519.7314
  20381936.351     -859854.74349   -589564.34149  20381937.8854   20381942.6014
  21060543.783    -6392732.89149  -4968554.38849  21060544.7144   21060550.7424
  23253444.413     9565107.23049   7445476.78349  23253443.8194   23253450.7884
  22849877.955    -9377502.56449  -7098929.17449  22849879.9844   22849886.1684
 96  5 15  1 13  0.0000000  0  6 23 22  6 17 16 26
  21976837.008   -12506904.46249  -9727608.67149  21976838.1304   21976845.5594
  23533359.030    -3587727.80849  -2785739.58549  23533358.7764   23533364.5724
  20386308.704     -836873.96849   -571657.26249  20386310.1594   20386315.9474
  21054700.570    -6423441.83549  -4992483.42849  21054700.9804   21054707.1284
  23271756.420     9661340.77249   7520463.91049  23271757.1234   23271763.2704
  22840260.617    -9428043.94549  -7138312.04049  22840262.3494   22840268.4404
 96  5 15  1 13 30.0000000  0  6 23 22  6 17 16 26
  21962799.039   -12580678.98549  -9785095.27249  21962799.7674   21962806.8334
  23525299.302    -3630081.59149  -2818742.52849  23525298.1394   23525303.5284
  20390770.802     -813427.05949   -553386.94549  20390772.2304   20390777.3134
  21048906.167    -6453892.38349  -5016211.11149  21048906.6244   21048912.4644
  23290115.484     9757825.47549   7595646.75749  23290117.4794   23290122.9684
  22830719.302    -9478180.76849  -7177379.65349  22830721.9754   22830728.4984
 96  5 15  1 14  0.0000000  0  6 23 22  6 17 16 26
  21948833.763   -12654068.13449  -9842281.54249  21948834.0314   21948841.0414
  23517328.797    -3671963.96149  -2851378.14449  23517328.5114   23517334.5844
  20395323.976     -789504.32649   -534745.85249  20395324.4984   20395329.1254
  21043162.449    -6484071.46549  -5039727.27049  21043164.1234   21043169.4644
  23308524.465     9854548.64549   7671015.42549  23308524.4114   23308528.7624
  22821258.683    -9527898.47149  -7216120.68449  22821260.6734   22821267.3044
 96  5 15  1 14 30.0000000  0  6 23 22  6 17 16 26
  21934937.301   -12727089.18349  -9899180.97549  21934938.4214   21934945.7434
  23509445.509    -3713386.09849  -2883655.10649  23509445.7114   23509453.2524
  20399970.528     -765083.13049   -515716.33149  20399971.2394   20399977.0714
  21037473.486    -6513972.43749  -5063026.69949  21037474.0484   21037479.3354
  23326973.935     9951499.84449   7746561.78749  23326973.7544   23326978.8374
  22811882.156    -9577184.23749  -7254525.14649  22811882.3384   22811888.1914
 96  5 15  1 15  0.0000000  0  6 23 22  6 17 16 26
  21921106.934   -12799772.26249  -9955817.07149  21921107.0474   21921114.8884
  23501649.848    -3754355.71649  -2915579.47649  23501650.1114   23501656.4644
  20404712.233     -740165.68649   -496300.13349  20404713.5394   20404718.5354
  21031831.538    -6543622.09349  -5086130.29849  21031831.9984   21031837.7534
  23345458.931    10048646.99749   7822260.82849  23345461.2074   23345466.0484
  22802580.905    -9626056.17349  -7292607.12249  22802581.9104   22802588.2434
 96  5 15  1 15 30.0000000  0  6 23 22  6 17 16 26
  21907340.311   -12872111.58549 -10012185.32949  21907341.4674   21907349.0714
  23493946.552    -3794835.40449  -2947122.08449  23493947.1504   23493953.8184
  20409548.560     -714746.99549   -476493.36949  20409550.1834   20409555.5634
  21026231.790    -6573039.78949  -5109053.15749  21026233.4974   21026239.7274
  23363978.920    10145967.29549   7898094.79349  23363979.5764   23363985.9024
  22793362.444    -9674497.06849  -7330353.23949  22793363.5344   22793369.7414
 96  5 15  1 16  0.0000000  0  6 23 22  6 17 16 26
  21893643.020   -12944094.50449 -10068275.85949  21893643.5084   21893650.3414
  23486343.684    -3834790.49249  -2978255.89649  23486344.0824   23486351.4684
  20414482.609     -688825.33149   -456294.67449  20414482.6394   20414487.9854
  21020676.312    -6602235.39249  -5131802.96649  21020677.5434   21020684.0804
  23382533.122    10243477.00249   7974076.37049  23382535.1034   23382540.1994
  22784225.615    -9722516.01249  -7367770.56649  22784226.2634   22784231.6194
 96  5 15  1 16 30.0000000  0  6 23 22  6 17 16 26
  21880013.022   -13015718.29349 -10124086.54249  21880014.1414   21880020.8754
  23478846.230    -3874190.55649  -3008957.24049  23478847.1304   23478853.1494
  20419509.476     -662408.53049   -435710.16049  20419510.2714   20419514.6454
  21015160.257    -6631226.77249  -5154393.63549  21015160.8764   21015166.9994
  23401127.153    10341190.50749   8050216.74549  23401128.9004   23401134.5924
  22775166.421    -9770120.08349  -7404864.60249  22775167.3684   22775173.3664
 96  5 15  1 17  0.0000000  0  6 23 22  6 17 16 26
  21866454.188   -13086966.82349 -10179604.79249  21866455.8194   21866462.8554
  23471456.497    -3913033.35149  -3039224.33749  23471455.2784   23471460.9404
  20424624.818     -635520.60249   -414758.53449  20424626.5594   20424631.6184
  21009683.391    -6660008.33049  -5176820.81049  21009684.2744   21009689.9224
  23419760.539    10439107.04749   8126515.32749  23419762.1464   23419766.7054
  22766185.424    -9817316.87849  -7441641.29149  22766185.5974   22766192.5924
 96  5 15  1 17 30.0000000  0  6 23 22  6 17 16 26
  21852972.860   -13157818.65149 -10234813.92449  21852973.2414   21852980.1634
  23464165.826    -3951337.59749  -3069071.77949  23464167.2814   23464171.7184
  20429831.323     -608162.91249   -393440.86249  20429832.4184   20429837.8184
  21004251.623    -6688550.59349  -5199061.51649  21004252.1904   21004258.3784
  23438436.472    10537251.06949   8202991.16649  23438438.1234   23438443.5494
  22757285.465    -9864073.52049  -7478074.99949  22757288.4704   22757294.5264
 96  5 15  1 18  0.0000000  0  6 23 22  6 17 16 26
  21839566.066   -13228274.00849 -10289714.14349  21839566.2814   21839572.8864
  23456974.182    -3989133.81749  -3098523.38149  23456973.0484   23456979.4574
  20435126.256     -580337.70149   -371758.89549  20435127.3064   20435132.8534
  20998867.031    -6716841.19749  -5221106.12749  20998868.9914   20998874.7384
  23457161.925    10635640.89049   8279658.53149  23457161.4534   23457166.8004
  22748475.518    -9910383.49249  -7514160.65349  22748476.2954   22748481.7574
 96  5 15  1 18 30.0000000  0  6 23 22  6 17 16 26
  21826231.539   -13298344.91049 -10344314.79949  21826232.3684   21826238.5634
  23449872.785    -4026447.20349  -3127598.70649  23449873.2974   23449879.8614
  20440509.968     -552044.73449   -349712.44849  20440511.4034   20440516.6564
  20993530.426    -6744892.81849  -5242964.51649  20993530.7224   20993537.2394
  23475925.939    10734250.04149   8356496.79849  23475927.0414   23475932.4144
  22739749.132    -9956231.84249  -7549886.61249  22739751.1374   22739756.5994
 96  5 15  1 19  0.0000000  0  6 23 22  6 17 16 26
  21812973.882   -13368014.38949 -10398602.64049  21812974.2924   21812980.8344
  23442864.509    -4063280.77349  -3156300.15949  23442864.5184   23442869.9404
  20445986.970     -523270.83049   -327291.24249  20445987.4824   20445991.9674
  20988241.768    -6772681.45849  -5264617.99549  20988242.7134   20988249.1514
  23494732.742    10833081.39449   8433508.22049  23494732.4674   23494738.1964
  22731116.812   -10001601.95449  -7585239.91949  22731118.5354   22731123.0524
 96  5 15  1 19 30.0000000  0  6 23 22  6 17 16 26
  21799787.823   -13437312.62749 -10452601.21249  21799787.0534   21799793.5734
  23435943.431    -4099651.27149  -3184640.77749  23435943.1154   23435949.6744
  20451549.649     -494033.74749   -304509.11649  20451550.5974   20451555.6804
  20982998.780    -6800233.65449  -5286087.23249  20982999.8494   20983006.3624
  23513575.925    10932116.57749   8510678.45749  23513577.6574   23513584.3684
  22722572.181   -10046506.51249  -7620230.44649  22722573.2834   22722578.4734
 96  5 15  1 20  0.0000000  0  6 23 22  6 17 16 26
  21786669.121   -13506243.83749 -10506313.80649  21786670.1374   21786676.0054
  23429116.614    -4135526.65049  -3212595.60649  23429116.5404   23429122.4224
  20457202.278     -464325.94649   -281360.18549  20457203.6724   20457208.8494
  20977799.548    -6827552.40249  -5307374.55449  20977801.3734   20977807.4514
  23532460.524    11031350.26149   8588003.37849  23532461.3884   23532467.4764
  22714111.161   -10090962.44149  -7654871.38049  22714113.1764   22714119.1454
 96  5 15  1 20 30.0000000  0  6 23 22  6 17 16 26
  21773620.966   -13574814.94649 -10559745.79249  21773621.8924   21773627.3164
  23422383.730    -4170901.41349  -3240160.34749  23422384.0284   23422391.1394
  20462943.674     -434158.57449   -257853.16149  20462944.9384   20462949.6704
  20972647.249    -6854632.32649  -5328475.77949  20972648.2064   20972653.7184
  23551379.016    11130767.01549   8665470.95249  23551379.4634   23551385.7454
  22705734.630   -10134982.72249  -7689172.86749  22705736.6984   22705742.6004
 96  5 15  1 21  0.0000000  0  6 23 22  6 17 16 26
  21760643.173   -13643014.64149 -10612888.34649  21760643.3674   21760649.6264
  23415750.923    -4205763.43549  -3267325.52949  23415751.1084   23415756.8454
  20468770.114     -403542.69949   -233996.64749  20468770.4974   20468775.5634
  20967543.821    -6881448.60549  -5349371.57649  20967545.0724   20967550.9134
  23570335.865    11230375.81749   8743088.15549  23570335.1214   23570341.6484
  22697443.110   -10178567.57849  -7723135.04649  22697442.6274   22697447.9544
 96  5 15  1 21 30.0000000  0  6 23 22  6 17 16 26
  21747733.580   -13710848.80549 -10665746.09949  21747734.4214   21747741.3944
  23409217.293    -4240097.32649  -3294079.19549  23409216.4814   23409223.1684
  20474679.980     -372475.36849   -209788.34049  20474682.1334   20474687.5804
  20962492.347    -6907996.28249  -5370058.06849  20962493.1014   20962499.3484
  23589327.117    11330176.60249   8820854.97849  23589326.5664   23589331.8784
  22689233.217   -10221700.56549  -7756745.13849  22689234.4524   22689240.1274
 96  5 15  1 22  0.0000000  0  7 23 22  6 17 16 26 21
  21734894.864   -13778310.50149 -10718313.64849  21734896.7154   21734904.0404
  23402786.551    -4273891.87549  -3320412.61249  23402785.1784   23402791.1964
  20480681.291     -340945.61149   -185219.73149  20480682.4814   20480687.8854
  20957491.094    -6934275.60349  -5390535.45649  20957492.4974   20957498.7074
  23608354.677    11430171.93449   8898773.38649  23608355.3804   23608360.6834
  22681114.047   -10264363.05849  -7789988.61749  22681115.9874   22681122.3714
  25058920.382    -3653234.96559  -2835125.58459  25058923.8854   25058930.1184
 96  5 15  1 22 30.0000000  0  7 23 22  6 17 16 26 21
  21722130.682   -13845393.29349 -10770585.92849  21722131.3754   21722138.6664
  23396458.068    -4307145.79049  -3346324.74149  23396457.7374   23396463.8294
  20486768.390     -308958.90349   -160295.03649  20486769.7444   20486774.5824
  20952539.460    -6960296.85349  -5410811.74549  20952540.6264   20952546.7494
  23627418.668    11530355.43149   8976838.41449  23627419.2324   23627424.6674
  22673090.207   -10306532.67049  -7822848.01749  22673091.0654   22673097.2934
  25040357.613    -3750815.07149  -2911161.88049  25040355.0454   25040363.8864
 96  5 15  1 23  0.0000000  0  7 23 22  6 17 16 26 21
  21709439.200   -13912089.94349 -10822557.31849  21709439.6054   21709446.3494
  23390233.737    -4339848.55649  -3371807.42249  23390234.5464   23390240.1814
  20492944.779     -276499.36049   -135001.89749  20492945.8064   20492951.4794
  20947633.104    -6986079.95449  -5430902.45949  20947634.0174   20947640.9024
  23646518.050    11630724.73049   9055048.23249  23646518.2494   23646524.8494
  22665160.419   -10348199.66249  -7855315.76249  22665161.8224   22665168.5684
  25021805.770    -3848282.83849  -2987110.62949  25021805.1024   25021818.9374
 96  5 15  1 23 30.0000000  0  7 23 22  6 17 16 26 21
  21696819.583   -13978406.94949 -10874232.87449  21696819.9954   21696826.8734
  23384114.641    -4372009.29549  -3396867.73749  23384114.6244   23384120.4514
  20499215.759     -243547.71149   -109325.30349  20499216.9684   20499221.8094
  20942765.360    -7011656.49649  -5450832.23049  20942767.3644   20942773.8044
  23665648.818    11731257.86249   9133385.69949  23665649.5754   23665656.2844
  22657324.117   -10389376.64649  -7887401.70449  22657326.2184   22657332.3514
  25003279.602    -3945633.11949  -3062967.85749  25003279.7464   25003290.6104
 96  5 15  1 24  0.0000000  0  7 23 22  6 17 16 26 21
  21684273.762   -14044336.50249 -10925606.49549  21684274.0294   21684280.4894
  23378096.030    -4403632.74249  -3421509.37749  23378096.5914   23378102.9454
  20505582.389     -210089.43049    -83253.92949  20505583.7084   20505588.6324
  20937936.922    -7037035.47749  -5470608.03949  20937938.1084   20937944.1014
  23684809.512    11831944.18449   9211842.55649  23684809.3754   23684815.8424
  22649580.635   -10430085.15649  -7919122.57749  22649580.6884   22649585.3934
  24984778.200    -4042862.62449  -3138730.96449  24984778.7304   24984789.4424
 96  5 15  1 24 30.0000000  0  7 23 22  6 17 16 26 21
  21671801.639   -14109877.26049 -10976677.15849  21671802.0404   21671808.6354
  23372178.747    -4434728.75449  -3445740.02149  23372179.3444   23372185.1524
  20512045.736     -176124.14249    -56787.49549  20512046.9044   20512052.1464
  20933146.390    -7062214.27749  -5490227.86249  20933146.7274   20933152.2804
  23703994.475    11932767.38349   9290406.06249  23703996.5054   23704001.7284
  22641917.223   -10470346.90049  -7950495.31749  22641918.0184   22641923.7284
  24966299.542    -4139983.61749  -3214409.51349  24966298.2864   24966305.0284
 96  5 15  1 25  0.0000000  0  7 23 22  6 17 16 26 21
  21659404.565   -14175019.51149 -11027437.29549  21659405.8024   21659412.4654
  23366364.747    -4465291.98249  -3469555.51249  23366363.7474   23366369.3934
  20518609.179     -141632.03849    -29910.54949  20518610.3634   20518615.8644
  20928398.752    -7087160.78149  -5509666.68549  20928399.7714   20928405.5174
  23723208.942    12033742.94549   9369088.27649  23723211.0204   23723217.7234
  22634341.432   -10510156.80549  -7981515.99849  22634342.2764   22634348.9814
  24947838.134    -4236986.47449  -3289996.01349  24947840.1564   24947846.1774
 96  5 15  1 25 30.0000000  0  7 23 22  6 17 16 26 21
  21647083.927   -14239768.02849 -11077890.62249  21647084.2194   21647091.3924
  23360648.958    -4495323.72049  -3492956.85649  23360648.4704   23360653.7784
  20525273.215     -106612.26449     -2622.43249  20525274.6194   20525280.0864
  20923699.279    -7111855.68549  -5528909.46549  20923700.5204   20923705.7674
  23742455.373    12134881.05549   9447897.17549  23742456.9454   23742463.0764
  22626853.255   -10549501.53249  -8012174.18649  22626855.0014   22626861.3764
  24929401.497    -4333865.80749  -3365486.24849  24929403.0004   24929413.0894
 96  5 15  1 26  0.0000000  0  7 23 22  6 17 16 26 21
  21634835.507   -14304132.44749 -11128044.65549  21634836.2504   21634842.4644
  23355031.898    -4524842.00349  -3515958.09249  23355031.6184   23355037.4024
  20532030.182      -71101.24249     25048.47249  20532032.2834   20532037.3064
  20919047.747    -7136299.36349  -5547956.48649  20919048.3174   20919054.6784
  23761734.110    12236189.48349   9526838.77749  23761734.8794   23761741.3394
  22619457.285   -10588374.21549  -8042464.51449  22619458.3804   22619464.0724
  24910983.027    -4430642.42349  -3440896.46249  24910986.1704   24910992.6114
 96  5 15  1 26 30.0000000  0  8 28 23 22  6 17 16 26 21
  24746663.238    -2485760.52119  -1920450.73519  24746664.608    24746669.576
  21622660.313   -14368111.62949 -11177898.49949  21622661.1884   21622667.5784
  23349512.253    -4553847.59249  -3538559.84649  23349512.4164   23349517.6484
  20538875.242      -35131.13649     53077.11649  20538876.7304   20538882.2624
  20914442.857    -7160494.32549  -5566809.70049  20914444.0354   20914450.5284
  23781045.194    12337673.24749   9605916.99449  23781046.5134   23781052.9504
  22612156.305   -10626745.65049  -8072364.26349  22612157.0024   22612162.3414
  24892589.663    -4527312.34549  -3516223.57849  24892591.1924   24892600.7834
 96  5 15  1 27  0.0000000  0  8 28 23 22  6 17 16 26 21
  24727650.343    -2585698.155 9  -1998324.239 9  24727647.487    24727654.137
  21610560.179   -14431693.66949 -11227442.87949  21610561.8564   21610568.3194
  23344090.899    -4582331.05949  -3560754.75949  23344091.8594   23344097.9424
  20545805.435        1285.66349     81453.83349  20545806.7384   20545812.3734
  20909885.266    -7184447.23449  -5585474.29149  20909886.1694   20909892.4404
  23800390.535    12439335.76349   9685134.50949  23800392.6034   23800398.7374
  22604950.415   -10664604.27049  -8101864.39749  22604952.1244   22604958.1104
  24874219.472    -4623858.01849  -3591453.86349  24874219.9154   24874228.8854
 96  5 15  1 27 30.0000000  0  8 28 23 22  6 17 16 26 21
  24708630.542    -2685620.161 9  -2076185.557 9  24708634.223    24708640.387
  21598540.978   -14494859.59049 -11276663.01049  21598542.0724   21598548.2474
  23338770.612    -4610289.14349  -3582540.26849  23338770.8544   23338777.6364
  20552822.331       38155.45049    110183.52949  20552823.1514   20552828.2844
  20905370.613    -7208172.53949  -5603961.53349  20905371.2864   20905377.6234
  23819772.069    12541181.00249   9764494.40049  23819771.9044   23819779.9024
  22597842.370   -10701950.19749  -8130965.05449  22597844.9614   22597851.6344
  24855871.493    -4720267.19049  -3666577.75749  24855874.4254   24855880.4104
 96  5 15  1 28  0.0000000  0  8 28 23 22  6 17 16 26 21
  24689624.873    -2785540.13319  -2154045.17519  24689620.061    24689625.088
  21586598.537   -14557618.95149 -11325566.34549  21586599.3034   21586605.2324
  23333549.042    -4637733.93849  -3603925.82849  23333548.7744   23333554.9454
  20559918.706       75444.97749    139240.29749  20559919.1944   20559924.3414
  20900894.249    -7231696.32849  -5622291.75049  20900895.0454   20900900.6624
  23839180.808    12643172.38649   9843968.17749  23839180.6764   23839187.9564
  22590830.449   -10738810.50249  -8159687.31049  22590830.6814   22590836.9414
  24837552.698    -4816562.04659  -3741612.60349  24837550.9994   24837558.0534
 96  5 15  1 28 30.0000000  0  7 23 22  6 17 16 26 21
  21574733.246   -14619970.77149 -11374152.12749  21574733.8364   21574740.3614
  23328428.522    -4664644.14949  -3624894.82549  23328427.6874   23328434.4654
  20567098.688      113186.11149    168648.98249  20567100.0954   20567106.0854
  20896456.110    -7255009.93349  -5640458.18549  20896458.1954   20896464.3854
  23858613.260    12745299.27749   9923547.54549  23858615.0404   23858621.4234
  22583906.558   -10775193.99849  -8188038.04149  22583907.9484   22583913.0504
  24819248.838    -4912732.10149  -3816550.17249  24819249.3114   24819254.5874
 96  5 15  1 29  0.0000000  0  7 23 22  6 17 16 26 21
  21562943.689   -14681919.37649 -11422423.71349  21562945.5874   21562951.4534
  23323407.791    -4691027.44049  -3645453.24249  23323407.6574   23323414.1484
  20574373.916      151419.57649    198441.30549  20574376.1184   20574381.8714
  20892064.197    -7278099.32249  -5658449.91349  20892064.9224   20892071.2384
  23878072.825    12847553.94749  10003226.47149  23878073.6584   23878080.3214
  22577069.730   -10811123.16149  -8216034.73049  22577070.6724   22577075.5044
  24800967.822    -5008786.19049  -3891397.40049  24800969.6284   24800975.0934
 96  5 15  1 29 30.0000000  0  7 23 22  6 17 16 26 21
  21551227.919   -14743489.47949 -11470400.35549  21551229.0404   21551234.9864
  23318481.395    -4716910.48049  -3665621.84149  23318482.3404   23318488.9204
  20581747.271      190155.26349    228624.93949  20581748.2014   20581752.6754
  20887711.354    -7300972.62949  -5676273.27049  20887712.7604   20887718.5004
  23897553.587    12949923.11549  10082994.62249  23897553.6944   23897561.1484
  22570317.951   -10846601.01649  -8243679.76849  22570319.1694   22570324.2864
  24782706.913    -5104751.61149  -3966175.53549  24782706.4284   24782715.2774
 96  5 15  1 30  0.0000000  0  7 23 22  6 17 16 26 21
  21539586.457   -14804662.67649 -11518067.71349  21539588.2444   21539594.3844
  23313657.081    -4742270.67649  -3685383.03849  23313656.5884   23313662.7254
  20589217.182      229413.88049    259216.05949  20589218.2264   20589223.8174
  20883406.587    -7323589.10549  -5693896.49349  20883408.5804   20883414.3894
  23917057.977    13052426.77749  10162867.57449  23917059.5644   23917065.6414
  22563659.491   -10881588.16649  -8270942.42149  22563661.6024   22563667.7164
  24764465.150    -5200607.27549  -4040868.16749  24764466.4204   24764474.6014
 96  5 15  1 30 30.0000000  0  7 23 22  6 17 16 26 21
  21528021.706   -14865441.21549 -11565427.54149  21528022.2274   21528028.9754
  23308926.924    -4767121.98249  -3704747.68949  23308927.4224   23308933.5624
  20596785.918      269189.03449    290209.67449  20596787.3164   20596792.8164
  20879152.031    -7345953.65849  -5711323.39649  20879152.7084   20879158.4304
  23936590.039    13155060.62349  10242841.96449  23936590.3044   23936597.0164
  22557094.013   -10916090.95749  -8297827.67349  22557095.6314   22557101.1454
  24746249.815    -5296342.09349  -4115466.62749  24746250.0574   24746257.1774
 96  5 15  1 31  0.0000000  0  7 23 22  6 17 16 26 21
  21516533.167   -14925815.12349 -11612472.09149  21516533.6454   21516540.0404
  23304295.680    -4791461.69249  -3723713.67949  23304295.9924   23304301.1974
  20604449.016      309457.50049    321587.69149  20604450.0804   20604455.6814
  20874943.002    -7368070.17149  -5728557.02749  20874943.7524   20874950.1224
  23956146.722    13257835.25449  10322926.06149  23956147.8094   23956153.7084
  22550625.125   -10950087.50249  -8324318.41149  22550625.7114   22550631.7734
  24728058.200    -5391934.84849  -4189954.38749  24728058.0454   24728065.8514
 96  5 15  1 31 30.0000000  0  7 23 22  6 17 16 26 21
  21505120.078   -14985786.38649 -11659202.89449  21505121.3034   21505127.3234
  23299763.142    -4815277.63249  -3742271.57049  23299763.5124   23299769.4024
  20612195.953      350173.25649    353314.25449  20612197.8694   20612203.5894
  20870777.447    -7389959.15949  -5745613.37749  20870778.8644   20870784.5334
  23975730.391    13360752.16549  10403121.01549  23975732.5204   23975738.2524
  22544254.317   -10983559.24149  -8350400.23249  22544256.3494   22544261.8664
  24709898.698    -5487374.01549  -4264322.46649  24709896.8804   24709905.6604
 96  5 15  1 32  0.0000000  0  7 23 22  6 17 16 26 21
  21493784.588   -15045359.97149 -11705623.79949  21493784.7084   21493790.7564
  23295333.299    -4838556.28049  -3760410.78849  23295332.9084   23295338.0314
  20620024.717      391311.38349    385369.90949  20620026.3394   20620031.4834
  20866656.005    -7411621.97149  -5762493.48049  20866656.5064   20866662.1654
  23995340.845    13463798.99849  10483417.19749  23995341.7254   23995347.7674
  22537983.747   -11016521.13249  -8376084.76949  22537984.2194   22537989.8784
  24691762.247    -5582660.32049  -4338571.44049  24691764.1674   24691772.6534
 96  5 15  1 32 30.0000000  0  7 23 22  6 17 16 26 21
  21482522.260   -15104544.15149 -11751741.28549  21482522.1464   21482528.3444
  23291008.345    -4861278.95749  -3778116.78049  23291008.7204   23291013.9834
  20627937.111      432888.91449    417767.96849  20627938.0234   20627943.5964
  20862573.716    -7433065.75249  -5779202.89749  20862575.5714   20862581.7174
  24014976.047    13566979.88449  10563817.86549  24014976.4654   24014983.1504
  22531807.380   -11048968.43449  -8401368.32949  22531809.8694   22531814.6274
  24673662.740    -5677789.12349  -4412697.67349  24673661.0464   24673668.4064
 96  5 15  1 33  0.0000000  0  7 23 22  6 17 16 26 21
  21471330.023   -15163349.35149 -11797563.47749  21471331.8344   21471338.2584
  23286790.533    -4883442.95749  -3795387.43049  23286791.6274   23286797.3744
  20635935.039      474920.66049    450519.95949  20635936.5464   20635942.4104
  20858535.701    -7454286.01649  -5795738.14949  20858537.7264   20858543.3434
  24034636.855    13670296.57149  10644324.33849  24034637.0344   24034642.6604
  22525734.212   -11080890.03449  -8426242.23949  22525735.8954   22525739.9654
  24655583.047    -5772785.74949  -4486720.92649  24655584.8514   24655592.2794
 96  5 15  1 33 30.0000000  0  7 23 22  6 17 16 26 21
  21460212.519   -15221778.46549 -11843092.60349  21460213.6954   21460219.7294
  23282676.259    -4905059.93649  -3812231.81949  23282677.6304   23282683.0254
  20644023.343      517419.53549    483635.93949  20644024.2474   20644029.8434
  20854540.832    -7475280.44749  -5812097.42749  20854542.4564   20854547.8474
  24054319.128    13773735.04949  10724925.72449  24054319.6354   24054328.1104
  22519753.053   -11112315.63249  -8450729.66649  22519754.5494   22519760.5854
  24637528.745    -5867671.32949  -4560657.66249  24637529.6564   24637535.4964
 96  5 15  1 34  0.0000000  0  8 28 23 22  6 17 16 26 21
  24461750.626     -106800.20919
  21449168.747   -15279812.48649 -11888313.88449  21449170.0344   21449176.1314
  23278669.310    -4926118.06049  -3828640.76049  23278670.6104   23278676.3424
  20652206.194      560428.09449    517149.05549  20652208.4914   20652213.4684
  20850593.341    -7496027.84949  -5828264.22149  20850594.3104   20850599.8584
  24074027.554    13877301.23949  10805626.62149  24074027.4834   24074034.8994
  22513866.565   -11143243.93249  -8474829.62049  22513869.1724   22513874.7264
  24619495.250    -5962439.24649  -4634502.70449  24619494.7254   24619503.1144
 96  5 15  1 34 30.0000000  0  8 28 23 22  6 17 16 26 21
  24442788.680     -206440.71119                  24442789.574
  21438201.220   -15337452.33349 -11933228.01249  21438201.4794   21438207.7914
  23274766.907    -4946634.99249  -3844627.97549  23274766.1384   23274771.9834
  20660488.498      603938.89149    551053.53349  20660488.4574   20660493.5684
  20846689.451    -7516542.52049  -5844249.66249  20846690.7954   20846696.0764
  24093758.517    13980989.42249  10886422.55749  24093759.0894   24093767.0124
  22508077.348   -11173676.61549  -8498543.33949  22508078.1574   22508083.5874
  24601481.839    -6057090.12749  -4708256.53549  24601483.3624   24601489.6844
 96  5 15  1 35  0.0000000  0  8 28 23 22  6 17 16 26 21
  24423836.265     -306053.715 9                  24423834.347
  21427311.862   -15394670.16549 -11977813.31549  21427313.3784   21427319.9544
  23270964.933    -4966615.97949  -3860197.57649  23270964.7714   23270971.3044
  20668859.662      647937.99149    585338.52149  20668860.6954   20668866.7304
  20842831.584    -7536811.62449  -5860043.75349  20842833.3424   20842838.9724
  24113515.038    14084804.89749  10967317.72149  24113515.0764   24113521.6524
  22502381.536   -11203612.17449  -8521869.71049  22502382.2104   22502387.8964
  24583497.290    -6151608.68649  -4781907.28749  24583496.7464   24583504.2044
 96  5 15  1 35 30.0000000  0  8 28 23 22  6 17 16 26 21
  24404876.614     -405648.253 9    -62776.83119  24404887.093
  21416503.057   -15451476.98449 -12022078.33549  21416503.4444   21416509.7314
  23267260.356    -4986076.10949  -3875361.34049  23267261.4024   23267268.0874
  20677319.798      692398.95949    619983.41549  20677321.3154   20677327.4004
  20839016.226    -7556865.35049  -5875670.02849  20839017.0304   20839022.8064
  24133289.713    14188725.82749  11048295.04549  24133290.1784   24133297.4054
  22496775.049   -11233072.47749  -8544825.73749  22496775.8374   22496780.9054
  24565532.881    -6246006.43649  -4855463.89149  24565534.2104   24565541.1234
 96  5 15  1 36  0.0000000  0  8 28 23 22  6 17 16 26 21
  24385932.530     -505215.21919   -140361.467 9  24385933.292    24385939.750
  21405770.770   -15507875.09549 -12066024.87149  21405770.7574   21405777.0164
  23263657.049    -5005011.26049  -3890116.01349  23263657.6754   23263664.8624
  20685867.350      737316.31949    654983.92349  20685869.0144   20685874.7204
  20835241.729    -7576702.41949  -5891127.48649  20835242.2134   20835247.5854
  24153086.884    14292757.24249  11129358.45449  24153087.4114   24153093.6294
  22491262.652   -11262033.17449  -8567392.47549  22491264.3804   22491269.7194
  24547595.172    -6340272.18949  -4928917.65649  24547596.5814   24547601.8204
 96  5 15  1 36 30.0000000  0  8 28 23 22  6 17 16 26 21
  24366993.470     -604742.874 9   -217915.480 9  24366993.550    24367000.469
  21395114.948   -15563859.49549 -12109649.02549  21395117.1054   21395123.0784
  23260152.503    -5023426.11449  -3904465.24249  23260153.5154   23260160.8964
  20694500.616      782685.03349    690336.14549  20694502.0074   20694507.8104
  20831509.883    -7596310.15649  -5906406.22649  20831510.8914   20831516.9504
  24172906.273    14396907.55449  11210514.51049  24172907.1594   24172912.3264
  22485851.292   -11290474.97449  -8589554.86749  22485852.0984   22485857.9774
  24529680.907    -6434389.98449  -5002256.11349  24529684.6694   24529693.6784
 96  5 15  1 37  0.0000000  0  8 28 23 22  6 17 16 26 21
  24348061.773     -704234.414 9   -295441.327 9  24348061.951    24348068.896
  21384537.641   -15619449.49049 -12152965.85649  21384538.8754   21384544.6594
  23256747.736    -5041329.73849  -3918416.11749  23256748.0334   23256754.1064
  20703219.904      828501.51249    726037.29949  20703221.0174   20703226.6714
  20827819.593    -7615703.96149  -5921518.27649  20827820.5544   20827826.0244
  24192747.562    14501170.19449  11291758.05849  24192747.4364   24192754.8064
  22480534.313   -11318409.66749  -8611322.12249  22480536.5974   22480542.1064
  24511798.088    -6528378.08149  -5075493.54649  24511800.1624   24511807.6274
 96  5 15  1 37 30.0000000  0  8 28 23 22  6 17 16 26 21
  24329138.889     -803675.667 9   -372927.991 9  24329138.786    24329145.144
  21374034.557   -15674644.63849 -12195975.01149  21374035.6644   21374041.6604
  23253441.506    -5058700.82649  -3931952.02449  23253442.3074   23253448.7324
  20712029.620      874793.51149    762108.95849  20712030.3644   20712035.7504
  20824171.760    -7634876.78449  -5936458.12649  20824171.9484   20824177.6614
  24212609.973    14605549.96749  11373092.91349  24212609.1734   24212617.4044
  22475319.400   -11345821.75849  -8632682.16849  22475320.6294   22475325.4764
  24493941.965    -6622223.46149  -5148619.73849  24493941.2324   24493949.3914
 96  5 15  1 38  0.0000000  0  8 28 23 22  6 17 16 26 21
  24310220.450     -903073.255 9   -450380.616 9  24310224.094    24310230.114
  21363604.340   -15729455.24849 -12238684.52749  21363605.3974   21363611.4604
  23250235.836    -5075551.44449  -3945082.35149  23250235.4794   23250242.2254
  20720926.971      921555.94449    798547.19149  20720928.7004   20720934.4134
  20820563.803    -7653828.93049  -5951226.02349  20820565.2954   20820571.0124
  24232490.445    14710030.65249  11454506.40049  24232492.6004   24232498.8674
  22470203.150   -11372706.19749  -8653631.03149  22470203.6914   22470208.7714
  24476111.528    -6715918.32849  -5221628.65749  24476111.9134   24476120.8564
 96  5 15  1 38 30.0000000  0  8 28 23 22  6 17 16 26 21
  24291320.150    -1002429.387 9   -527800.963 9  24291317.728    24291323.418
  21353248.198   -15783880.93949 -12281094.11349  21353248.5734   21353254.5774
  23247127.512    -5091879.70049  -3957805.66049  23247128.4144   23247134.0494
  20729916.592      968794.67749    835356.57449  20729918.1164   20729923.6794
  20816996.688    -7672572.69249  -5965831.55449  20816998.7284   20817004.5874
  24252388.596    14814597.35949  11535986.91949  24252390.2854   24252397.1184
  22465185.643   -11399054.68249  -8674162.28249  22465189.4114   22465195.8204
  24458311.106    -6809471.82749  -5294527.43549  24458309.3954   24458317.3744
 96  5 15  1 39  0.0000000  0  8 28 23 22  6 17 16 26 21
  24272420.573    -1101734.692 9   -605181.704 9  24272419.953    24272425.513
  21342966.771   -15837904.17749 -12323190.10649  21342967.9994   21342974.5594
  23244122.100    -5107664.44549  -3970105.44749  23244123.7654   23244130.1354
  20739000.784     1016529.53249    872552.55649  20739002.1244   20739007.1624
  20813470.819    -7691106.93949  -5980273.81449  20813471.9374   20813477.6504
  24272303.339    14919240.14649  11617526.69649  24272303.6084   24272308.2794
  22460278.155   -11424861.23449  -8694271.22549  22460278.8934   22460284.5874
  24440537.241    -6902877.45649  -5367310.96349  24440535.7154   24440543.0974
 96  5 15  1 39 30.0000000  0  8 28 23 22  6 17 16 26 21
  24253528.279    -1200974.058 9   -682511.031 9  24253534.340    24253539.523
  21332768.637   -15891499.29649 -12364952.48649  21332769.4114   21332775.6734
  23241224.435    -5122893.37449  -3981972.12349  23241225.6414   23241231.9424
  20748181.902     1064778.07949    910148.81449  20748182.7984   20748188.7934
  20809989.464    -7709404.00849  -5994531.24849  20809990.4014   20809995.9884
  24292231.600    15023960.32149  11699126.77349  24292231.1694   24292237.9534
  22455476.006   -11450093.40649  -8713932.60449  22455477.5604   22455482.7534
  24422793.694    -6996107.61449  -5439957.77749  24422793.5474   24422801.9104
 96  5 15  1 40  0.0000000  0  8 28 23 22  6 17 16 26 21
  24234664.052    -1300151.056 9   -759791.802 9  24234661.757    24234668.040
  21322651.258   -15944666.32049 -12406381.28549  21322651.9634   21322658.1894
  23238430.652    -5137583.61049  -3993419.05049  23238430.0484   23238435.9084
  20757456.317     1113520.71249    948130.06249  20757458.2804   20757463.9734
  20806553.258    -7727458.71049  -6008599.82949  20806554.3584   20806560.0194
  24312173.750    15128758.43249  11780787.58649  24312174.1464   24312179.4134
  22450785.569   -11474743.69049  -8733140.54749  22450787.7104   22450792.1534
  24405080.021    -7089179.12949  -5512480.96349  24405081.7244   24405091.3894
 96  5 15  1 40 30.0000000  0  8 28 23 22  6 17 16 26 21
  24215801.265    -1399269.868 9   -837027.215 9  24215800.271    24215806.837
  21312616.084   -15997398.69949 -12447471.41949  21312617.3324   21312623.1444
  23235737.393    -5151732.16549  -4004443.88549  23235738.0794   23235743.6304
  20766824.594     1162747.61549    986488.65749  20766826.0834   20766831.2134
  20803163.343    -7745271.61749  -6022480.00149  20803164.8014   20803170.8454
  24332133.735    15233656.55749  11862526.34049  24332133.6704   24332141.4964
  22446203.396   -11498827.03649  -8751906.72049  22446203.4524   22446209.5434
  24387399.058    -7182103.73049  -5584889.69249  24387399.0044   24387407.8474
 96  5 15  1 41  0.0000000  0  8 28 23 22  6 17 16 26 21
  24196948.974    -1498318.360 9   -914207.847 9  24196951.685    24196957.557
  21302667.914   -16049684.24349 -12488213.35049  21302667.9514   21302673.4554
  23233149.332    -5165334.02949  -4015042.73849  23233149.4654   23233154.9594
  20776282.985     1212455.58049   1025222.10549  20776284.8404   20776290.8834
  20799822.765    -7762826.05049  -6036158.77649  20799824.0394   20799830.0234
  24352120.026    15338674.43949  11944358.44049  24352118.6224   24352125.3234
  22441722.497   -11522360.81849  -8770244.69749  22441724.7874   22441730.8404
  24369748.708    -7274858.34649  -5657165.95749  24369748.4644   24369756.1374
 96  5 15  1 41 30.0000000  0  8 28 23 22  6 17 16 26 21
  24178115.548    -1597301.565 9   -991337.566 9  24178114.496    24178121.672
  21292797.741   -16101544.95549 -12528624.24249  21292799.2084   21292804.4514
  23230662.594    -5178403.66449  -4025226.88149  23230662.8884   23230668.3724
  20785829.837     1262622.56349   1064313.23849  20785831.5564   20785837.4404
  20796531.592    -7780124.59449  -6049638.16349  20796532.4304   20796538.5264
  24372129.149    15443827.25849  12026295.68549  24372128.5204   24372136.0034
  22437348.168   -11545356.46649  -8788163.34549  22437349.5244   22437354.4834
  24352127.426    -7367447.85149  -5729313.57149  24352128.7064   24352138.5314
 96  5 15  1 42  0.0000000  0  8 28 23 22  6 17 16 26 21
  24159293.311    -1696227.201 9  -1068422.407 9  24159290.796    24159296.461
  21283009.607   -16152984.02349 -12568706.59049  21283010.6314   21283015.8774
  23228274.962    -5190945.92049  -4035000.06749  23228275.9084   23228281.9884
  20795460.691     1313229.19949   1103746.94249  20795461.6884   20795467.4624
  20793284.001    -7797189.16749  -6062935.23549  20793285.1454   20793290.8304
  24392163.305    15549111.41649  12108335.23949  24392164.2844   24392171.4594
  22433068.817   -11567845.60049  -8805687.30249  22433070.6814   22433074.9394
  24334534.249    -7459883.17349  -5801341.03349  24334539.9354   24334547.8314
 96  5 15  1 42 30.0000000  0  8 28 23 22  6 17 16 26 21
  24140478.943    -1795087.971 9  -1145456.743 9  24140479.370    24140483.346
  21273301.037   -16204003.73549 -12608462.16949  21273301.6524   21273307.2514
  23225991.630    -5202947.12849  -4044351.66349  23225992.2154   23225997.7474
  20805177.648     1364296.36749   1143539.52849  20805179.6274   20805185.4434
  20790079.827    -7814026.87949  -6076055.51749  20790080.7474   20790086.7634
  24412220.326    15654512.76549  12190466.11649  24412221.7484   24412228.0094
  22428884.268   -11589840.95149  -8822826.48149  22428884.6884   22428889.2164
  24316983.732    -7552143.48349  -5873232.11749  24316982.1694   24316991.4934
 96  5 15  1 43  0.0000000  0  8 28 23 22  6 17 16 26 21
  24121675.893    -1893888.785 9  -1222444.348 9  24121678.064    24121682.040
  21263667.743   -16254626.76349 -12647908.65049  21263668.2534   21263674.5174
  23223806.647    -5214433.76049  -4053302.30649  23223806.0954   23223812.6664
  20814983.297     1415823.57549   1183690.58449  20814984.4114   20814990.9194
  20786917.551    -7830640.89649  -6089001.49849  20786919.0264   20786925.0974
  24432290.056    15759982.75149  12272650.48649  24432291.4684   24432298.6884
  22424790.170   -11611345.62649  -8839583.34449  22424791.3154   22424797.0744
  24299456.398    -7644240.06449  -5944995.62849  24299458.5284   24299466.2704
 96  5 15  1 43 30.0000000  0  8 28 23 22  6 17 16 26 21
  24102887.655    -1992624.179 9  -1299380.995 9  24102887.373    24102893.591
  21254110.982   -16304845.17749 -12687039.85149  21254111.6834   21254118.0734
  23221717.439    -5225407.00449  -4061852.89349  23221718.5314   23221724.7804
  20824876.811     1467808.51749   1224198.30649  20824877.3414   20824883.1374
  20783800.087    -7847023.58949  -6101767.23049  20783801.5234   20783807.8794
  24452372.600    15865512.20449  12354881.22649  24452373.2054   24452379.5694
  22420796.085   -11632336.06149  -8855939.50049  22420798.0564   22420803.1234
  24281956.974    -7736197.38449  -6016650.61849  24281959.5004   24281967.6864
 96  5 15  1 44  0.0000000  0  8 28 23 22  6 17 16 26 21
  24084109.770    -2091296.763 9  -1376268.674 9  24084110.833    24084116.526
  21244633.926   -16354647.62049 -12725846.91449  21244635.0424   21244640.7404
  23219728.680    -5235864.92849  -4070001.94549  23219727.9944   23219735.1234
  20834856.956     1520262.48549   1265071.52149  20834859.0674   20834864.5664
  20780726.391    -7863174.82149  -6114352.59549  20780727.9594   20780734.2304
  24472461.204    15971077.71649  12437140.01349  24472462.7044   24472468.1674
  22416900.724   -11652805.65749  -8871889.80249  22416902.2244   22416907.9494
  24264480.796    -7828028.14949  -6088206.98749  24264483.5494   24264492.6664
 96  5 15  1 44 30.0000000  0  8 28 23 22  6 17 16 26 21
  24065352.757    -2189899.300 9  -1453101.779 9  24065347.226    24065353.426
  21235233.310   -16404047.45049 -12764340.25849  21235234.8134   21235240.0544
  23217835.259    -5245812.78649  -4077753.54749  23217835.5634   23217842.6824
  20844931.790     1573199.57949   1306321.19549  20844932.5324   20844938.4634
  20777699.717    -7879085.25149  -6126750.32549  20777700.6604   20777706.6284
  24492558.574    16076680.52649  12519427.87649  24492558.0984   24492563.3154
  22413110.567   -11672727.83249  -8887413.53749  22413111.0864   22413116.4694
  24247033.269    -7919728.76149  -6159661.95749  24247033.4314   24247041.8004
 96  5 15  1 45  0.0000000  0  8 28 23 22  6 17 16 26 21
  24046598.995    -2288419.224 9  -1529870.515 9  24046599.815    24046606.649
  21225916.502   -16453012.30549 -12802494.65949  21225917.1724   21225922.4344
  23216040.428    -5255235.46949  -4085095.90849  23216041.7644   23216048.7044
  20855095.577     1626619.87649   1347947.37749  20855097.6054   20855103.7934
  20774718.987    -7894747.64049  -6138954.77949  20774720.1434   20774725.7624
  24512663.480    16182335.54949  12601756.43349  24512663.0434   24512669.4484
  22409429.158   -11692074.15149  -8902488.54749  22409429.9374   22409434.9824
  24229608.439    -8011286.56049  -6231005.64149  24229610.1604   24229619.4374
 96  5 15  1 45 30.0000000  0  8 28 23 22  6 17 16 26 21
  24027865.659    -2386863.592 9  -1606580.374 9  24027865.885    24027872.540
  21216682.356   -16501535.53049 -12840304.93049  21216683.1614   21216689.3314
  23214352.385    -5264117.48049  -4092016.96849  23214351.9064   23214358.0924
  20865351.282     1680514.01549   1389942.79649  20865353.0754   20865359.8044
  20771780.622    -7910190.14749  -6150987.90149  20771781.5614   20771787.0824
  24532782.726    16288061.84149  12684140.50749  24532782.5544   24532788.0734
  22405858.067   -11710844.10349  -8917114.43849  22405857.7694   22405863.0114
  24212220.275    -8102679.50249  -6302220.86149  24212218.6554   24212228.0224
 96  5 15  1 46  0.0000000  0  8 28 23 22  6 17 16 26 21
  24009146.617    -2485238.874 9  -1683236.404 9  24009145.790    24009152.066
  21207528.478   -16549638.17049 -12877787.47649  21207529.6134   21207535.6024
  23212765.054    -5272453.96149  -4098512.93049  23212765.5224   23212773.1984
  20875699.559     1734895.54549   1432317.99549  20875701.8344   20875708.0574
  20768879.425    -7925437.79449  -6162869.17649  20768880.1984   20768885.6404
  24552913.110    16393852.67249  12766574.89449  24552914.0014   24552918.0964
  22402393.119   -11729040.54549  -8931293.47349  22402395.2354   22402400.5314
  24194861.952    -8193883.53949  -6373288.87949  24194864.1584   24194872.8074
 96  5 15  1 46 30.0000000  0  8 28 23 22  6 17 16 26 21
  23990441.342    -2583539.115 9  -1759833.954 9  23990440.434    23990447.420
  21198454.909   -16597319.24749 -12914941.53549  21198455.8084   21198461.9824
  23211285.692    -5280230.42649  -4104572.53349  23211285.1984   23211292.6394
  20886141.990     1789759.04649   1475068.74549  20886142.5834   20886147.8014
  20766012.721    -7940501.54649  -6174607.15649  20766013.7364   20766019.5144
  24573054.843    16499708.99949  12849060.29349  24573056.9244   24573063.8764
  22399039.125   -11746667.32549  -8945028.61249  22399040.6144   22399046.1114
  24177545.996    -8284880.53149  -6444195.55649  24177547.9454   24177556.2614
 96  5 15  1 47  0.0000000  0  8 28 23 22  6 17 16 26 21
  23971750.914    -2681752.861 9  -1836364.096 9  23971750.902    23971757.227
  21189465.881   -16644554.14749 -12951747.91049  21189467.3454   21189473.4284
  23209915.123    -5287429.16249  -4110181.95549  23209915.7924   23209922.1524
  20896670.332     1845090.88749   1518184.43049  20896671.7894   20896677.0544
  20763182.884    -7955371.06749  -6186193.78349  20763183.9264   20763189.8394
  24593212.755    16605634.61249  12931599.71449  24593214.3824   24593219.7164
  22395792.345   -11763727.15749  -8958321.96649  22395794.2524   22395799.4104
  24160269.950    -8375664.77449  -6514936.47849  24160271.6994   24160280.1804
 96  5 15  1 47 30.0000000  0  8 28 23 22  6 17 16 26 21
  23953081.234    -2779863.464 9  -1912813.896 9  23953082.304    23953085.259
  21180560.862   -16691357.71449 -12988218.18049  21180561.0764   21180566.9364
  23208657.526    -5294043.73849  -4115336.18849  23208656.5364   23208663.2604
  20907290.184     1900897.42849   1561670.01149  20907291.6894   20907296.7514
  20760394.607    -7970019.80049  -6197608.38149  20760396.2604   20760402.5604
  24613387.690    16711654.18349  13014212.32049  24613387.5034   24613396.0104
  22392653.591   -11780216.04649  -8971170.42749  22392656.3134   22392661.9014
  24143034.906    -8466239.95649  -6585514.48549  24143035.5924   24143043.2724
 96  5 15  1 48  0.0000000  0  8 28 23 22  6 17 16 26 21
  23934430.176    -2877876.984 9  -1989188.045 9  23934430.378    23934434.261
  21171731.996   -16737748.87149 -13024367.08349  21171732.8924   21171738.6494
  23207507.192    -5300087.59949  -4120045.70649  23207507.4194   23207512.1644
  20917996.162     1957159.80449   1605510.81249  20917997.6664   20918003.1794
  20757651.287    -7984434.59949  -6208840.68849  20757652.6134   20757658.9744
  24633576.940    16817736.05549  13096873.48149  24633576.6974   24633582.4254
  22389622.931   -11796155.15749  -8983590.49049  22389623.7074   22389629.4064
  24125833.363    -8556645.97949  -6655960.66849  24125832.6424   24125840.3364
 96  5 15  1 48 30.0000000  0  8 28 23 22  6 17 16 26 21
  23915793.915    -2975804.973 9  -2065495.540 9  23915794.698    23915800.506
  21162980.876   -16783734.12449 -13060199.71749  21162982.2124   21162987.7284
  23206462.230    -5305581.79849  -4124326.91149  23206462.0054   23206466.9684
  20928781.804     2013838.29949   1649675.85249  20928783.5964   20928788.7314
  20754954.887    -7998609.54749  -6219886.09349  20754955.5304   20754961.8624
  24653772.961    16923871.76649  13179576.58949  24653771.8994   24653779.5854
  22386690.144   -11811564.52449  -8995597.76449  22386691.1784   22386696.7154
  24108653.858    -8646906.98049  -6726293.84449  24108656.7274   24108664.6934
 96  5 15  1 49  0.0000000  0  8 28 23 22  6 17 16 26 21
  23897176.933    -3073644.823 9  -2141734.357 9  23897176.802    23897181.286
  21154307.407   -16829311.97349 -13095714.89249  21154308.8584   21154314.6134
  23205515.593    -5310553.04849  -4128200.64349  23205515.0854   23205520.4494
  20939648.080     2070933.62149   1694165.69749  20939648.9004   20939653.7624
  20752306.575    -8012527.51249  -6230731.25449  20752307.3034   20752313.2114
  24673983.763    17030075.06349  13262332.35149  24673982.0914   24673990.3864
  22383858.597   -11826438.10049  -9007187.53249  22383860.9084   22383865.9124
  24091506.530    -8737024.11249  -6796514.92149  24091507.3284   24091515.8114
 96  5 15  1 49 30.0000000  0  8 28 23 22  6 17 16 26 21
  23878571.273    -3171401.622 9  -2217908.442 9  23878573.490    23878578.343
  21145711.546   -16874485.69449 -13130915.15449  21145712.2324   21145718.5534
  23204668.800    -5315003.38049  -4131668.43949  23204668.5114   23204673.8694
  20950595.879     2128474.97949   1739003.08149  20950597.8874   20950603.7564
  20749705.665    -8026188.92749  -6241376.50149  20749707.2874   20749713.1604
  24694200.858    17136338.50849  13345135.02049  24694202.6234   24694210.3254
  22381132.140   -11840774.72749  -9018358.90049  22381132.6114   22381137.2784
  24074386.432    -8826989.19149  -6866617.52049  24074387.3104   24074395.3334
 96  5 15  1 50  0.0000000  0  8 28 23 22  6 17 16 26 21
  23859988.295    -3269070.065 9  -2294013.702 9  23859987.970    23859993.231
  21137197.775   -16919225.28149 -13165777.13849  21137198.6084   21137204.6234
  23203921.712    -5318929.98249  -4134728.13649  23203921.6544   23203927.7924
  20961634.713     2186480.56749   1784202.22549  20961636.1154   20961641.8264
  20747155.972    -8039594.55949  -6251822.44049  20747156.3014   20747162.3314
  24714430.967    17242656.30249  13427980.01549  24714433.6904   24714442.7274
  22378509.244   -11854560.23449  -9029100.81849  22378510.3134   22378514.6874
  24057302.497    -8916768.25449  -6936575.16949  24057301.5934   24057311.0664
 96  5 15  1 50 30.0000000  0  8 28 23 22  6 17 16 26 21
  23841417.833    -3366647.391 9  -2370047.941 9  23841419.615    23841425.357
  21128769.570   -16963517.27249 -13200290.34449  21128770.3054   21128776.3654
  23203269.366    -5322353.79249  -4137396.04049  23203269.9124   23203276.0194
  20972763.488     2244960.28549   1829770.78949  20972764.7244   20972770.0474
  20744649.002    -8052762.78349  -6262083.38949  20744650.6364   20744656.7524
  24734678.174    17349039.39849  13510875.89749  24734680.0064   24734686.2314
  22375990.637   -11867785.39349  -9039406.12249  22375992.8884   22375998.7484
  24040256.425    -9006340.31549  -7006371.51949  24040258.0754   24040266.4284
 96  5 15  1 51  0.0000000  0  8 28 23 22  6 17 16 26 21
  23822872.554    -3464126.454 9  -2446005.626 9  23822871.108    23822875.786
  21120427.760   -17007354.75249 -13234449.39349  21120428.4114   21120434.2894
  23202713.674    -5325274.86849  -4139672.20449  23202714.1634   23202720.8454
  20983986.037     2303941.19249   1875729.92149  20983988.4764   20983994.0924
  20742185.130    -8065709.89949  -6272172.05249  20742186.8644   20742193.1354
  24754932.758    17455480.17449  13593816.74749  24754935.3994   24754940.8824
  22373583.393   -11880439.21649  -9049266.21049  22373584.2704   22373589.5794
  24023251.127    -9095692.82949  -7075996.79449  24023254.3264   24023263.8894
 96  5 15  1 51 30.0000000  0  8 28 23 22  6 17 16 26 21
  23804341.205    -3561497.873 9  -2521879.434 9  23804341.291    23804346.058
  21112170.646   -17050743.90749 -13268259.09649  21112171.5504   21112178.0114
  23202258.470    -5327670.08549  -4141538.61549  23202257.5204   23202265.1504
  20995307.055     2363425.90649   1922081.62149  20995308.0294   20995314.0004
  20739763.258    -8078445.19049  -6282095.66449  20739763.7414   20739769.2754
  24775197.789    17561970.64149  13676796.29349  24775198.8434   24775206.1674
  22371284.453   -11892515.43949  -9058676.22849  22371286.6824   22371291.8434
  24006290.803    -9184826.58249  -7145451.60749  24006291.8624   24006301.1984
 96  5 15  1 52  0.0000000  0  8 28 23 22  6 17 16 26 21
  23785831.747    -3658768.356 9  -2597674.594 9  23785830.696    23785835.664
  21103995.537   -17093701.66649 -13301732.65349  21103996.8104   21104003.0444
  23201898.835    -5329554.37149  -4143006.87749  23201899.8584   23201906.5904
  21006714.267     2423377.38849   1968797.03249  21006716.2994   21006722.1684
  20737374.438    -8090994.67949  -6291874.48849  20737375.6954   20737381.0344
  24795467.616    17668494.23549  13759801.64749  24795469.8174   24795476.5244
  22369095.419   -11904026.85549  -9067646.11349  22369096.1654   22369101.0004
  23989367.507    -9273763.00549  -7214752.65049  23989368.8834   23989377.2664
 96  5 15  1 52 30.0000000  0  8 28 23 22  6 17 16 26 21
  23767342.405    -3755929.447 9  -2673384.504 9  23767341.584    23767346.490
  21095901.022   -17136240.57149 -13334879.83049  21095901.6734   21095907.8644
  23201642.130    -5330917.13549  -4144068.78049  23201640.5914   23201648.1534
  21018211.182     2483793.69449   2015874.61949  21018213.1654   21018218.7044
  20735023.952    -8103350.43449  -6301502.35449  20735024.5884   20735029.9444
  24815744.572    17775050.67949  13842832.61049  24815746.2614   24815753.2024
  22367010.763   -11914973.91549  -9076176.26149  22367013.0264   22367018.1534
  23972476.126    -9362523.87949  -7283916.91949  23972478.3964   23972485.6034
 96  5 15  1 53  0.0000000  0  7 28 23 22  6 17 26 21
  23748873.678    -3852987.481 9  -2749014.126 9  23748872.957    23748877.589
  21087882.156   -17178378.54049 -13367714.58449  21087883.2054   21087889.4134
  23201484.703    -5331741.50549  -4144711.15749  23201483.8944   23201490.7894
  21029792.887     2544652.06149   2063296.69049  21029794.4564   21029799.6664
  20732710.450    -8115501.60949  -6310970.79849  20732711.7904   20732717.7534
  22365035.024   -11925363.82349  -9084272.24949  22365035.8674   22365041.1864
  23955618.702    -9451127.56249  -7352958.67949  23955617.2194   23955624.5464
 96  5 15  1 53 30.0000000  0  7 28 23 22  6 17 26 21
  23730421.809    -3949938.745 9  -2824560.529 9  23730424.402    23730428.907
  21079941.077   -17220112.35049 -13400234.40349  21079941.8594   21079947.9174
  23201430.133    -5332022.05449  -4144929.77849  23201430.7664   23201437.6634
  21041456.068     2605943.63749   2111056.35149  21041457.2284   21041463.5454
  20730440.855    -8127426.74249  -6320263.10649  20730442.3944   20730448.2954
  22363163.033   -11935202.58549  -9091938.78049  22363163.7244   22363168.8014
  23938783.004    -9539583.15749  -7421885.05449  23938785.1924   23938792.7324
 96  5 15  1 54  0.0000000  0  7 28 23 22  6 17 26 21
  23711996.535    -4046786.792 9  -2900026.520 9  23711994.731    23711999.147
  21072075.778   -17261443.60149 -13432440.54149  21072076.5834   21072082.3544
  23201477.278    -5331770.55849  -4144733.81649  23201478.1634   23201484.4744
  21053202.175     2667673.23849   2159157.31149  21053204.1364   21053210.3744
  20728217.723    -8139113.69449  -6329369.82349  20728218.6424   20728224.4074
  22361394.878   -11944486.04549  -9099172.61649  22361396.8544   22361402.3574
  23921977.829    -9627898.48349  -7490702.13449  23921978.5914   23921987.6734
 96  5 15  1 54 30.0000000  0  7 28 23 22  6 17 26 21
  23693587.364    -4143514.697 9  -2975398.893 9  23693587.492    23693593.762
  21064290.720   -17302357.89649 -13464321.77349  21064291.2644   21064296.7914
  23201628.640    -5330982.30649  -4144119.60649  23201628.4064   23201634.6764
  21065040.080     2729867.69949   2207620.49649  21065040.0164   21065044.7894
  20726044.126    -8150533.42049  -6338268.31049  20726045.8174   20726051.3864
  22359739.494   -11953184.89049  -9105950.90449  22359741.7104   22359746.7984
  23905200.387    -9716054.83049  -7559395.32749  23905203.2274   23905211.0514
 96  5 15  1 55  0.0000000  0  7 28 23 22  6 17 26 21
  23675199.430    -4240128.783 9  -3050682.581 9  23675202.153    23675208.948
  21056583.787   -17342856.11049 -13495878.78649  21056584.3524   21056590.3254
  23201878.734    -5329663.08949  -4143091.65749  23201879.2044   23201885.4934
  21076961.392     2792523.75549   2256443.34249  21076962.8904   21076967.9254
  20723920.045    -8161699.47849  -6346969.13749  20723921.2194   20723926.5574
  22358194.690   -11961305.43149  -9112278.56549  22358196.0644   22358201.3134
  23888456.247    -9804050.43249  -7627963.25149  23888457.7544   23888465.7284
 96  5 15  1 55 30.0000000  0  7 28 23 22  6 17 26 21
  23656840.877    -4336613.628 9  -3125865.558 9  23656841.190    23656847.835
  21048958.467   -17382927.53849 -13527103.25149  21048959.2804   21048965.1254
  23202231.115    -5327808.83449  -4141646.78049  23202231.8684   23202237.7544
  21088977.444     2855670.57149   2305648.59449  21088979.1044   21088985.3334
  20721842.554    -8172613.21049  -6355473.34949  20721843.8684   20721849.7084
  22356762.525   -11968831.45749  -9118142.96649  22356763.9034   22356768.9344
  23871747.232    -9891864.69149  -7696389.87049  23871747.1024   23871756.0724
 96  5 15  1 56  0.0000000  0  7 28 23 22  6 17 26 21
  23638501.951    -4432988.285 9  -3200962.658 9  23638502.123    23638508.282
  21041412.279   -17422582.68149 -13558003.33749  21041412.7144   21041418.8174
  23202680.657    -5325441.96249  -4139802.48249  23202682.2004   23202688.3874
  21101081.936     2919277.88249   2355212.66249  21101083.4394   21101089.7244
  20719806.232    -8183308.47449  -6363807.32249  20719808.4854   20719814.7554
  22355441.279   -11975776.42449  -9123554.59849  22355442.8774   22355447.5834
  23855069.584    -9979498.22349  -7764675.66449  23855070.5824   23855080.3274
 96  5 15  1 56 30.0000000  0  7 28 23 22  6 17 26 21
  23620188.058    -4529225.033 9  -3275952.347 9  23620188.667    23620193.651
  21033953.280   -17461778.64949 -13588545.63049  21033954.1104   21033959.8214
  23203236.336    -5322526.64049  -4137530.80549  23203236.7204   23203243.4384
  21113275.851     2983353.18649   2405141.41549  21113276.4434   21113282.0854
  20717818.550    -8193765.58249  -6371955.71949  20717819.0334   20717824.7724
  22354232.978   -11982124.28449  -9128500.95349  22354234.5084   22354239.6994
  23838436.371   -10066891.64949  -7832774.37149  23838440.7534   23838448.5074
 96  5 15  1 57  0.0000000  0  7 28 23 22  6 17 26 21
  23601898.503    -4625327.818 9  -3350837.592 9  23601900.145    23601906.880
  21026581.118   -17500519.24049 -13618733.07549  21026581.9094   21026587.5084
  23203897.374    -5319056.97849  -4134827.16249  23203897.2504   23203903.0684
  21125556.010     3047888.25649   2455428.43949  21125557.3514   21125562.6274
  20715871.065    -8203992.91749  -6379925.06049  20715872.6184   20715878.3884
  22353136.477   -11987887.88349  -9132992.05749  22353137.3724   22353142.5904
  23821857.830   -10154039.47449  -7900681.71749  23821856.9884   23821864.3824
 96  5 15  1 57 30.0000000  0  7 28 23 22  6 17 26 21
  23583639.427    -4721304.890 9  -3425624.882 9  23583637.765    23583642.386
  21019293.477   -17538820.02749 -13648577.81649  21019293.6794   21019299.1204
  23204659.364    -5315052.58749  -4131706.84949  23204659.0744   23204665.1374
  21137920.254     3112867.58349   2506061.61149  21137922.4934   21137928.6454
  20713968.172    -8213992.14349  -6387716.64549  20713969.7014   20713975.5114
  22352147.880   -11993075.81249  -9137034.57749  22352150.1964   22352155.5044
  23805316.517   -10240942.22649  -7968398.07149  23805319.3634   23805327.8464
 96  5 15  1 58  0.0000000  0  7 28 23 22  6 17 26 21
  23565398.683    -4817145.129 9  -3500305.535 9  23565399.194    23565404.886
  21012089.396   -17576677.10449 -13678076.80949  21012089.8934   21012095.4104
  23205525.463    -5310501.10849  -4128160.27149  23205525.4354   23205530.9114
  21150370.148     3178288.43049   2557038.89949  21150371.2704   21150377.7754
  20712112.834    -8223746.20749  -6395317.20249  20712113.6234   20712119.4974
  22351272.804   -11997680.04449  -9140622.25749  22351274.1024   22351279.4214
  23788827.434   -10327600.61149  -8035924.01949  23788828.9144   23788837.2424
 96  5 15  1 58 30.0000000  0  7 28 23 22  6 17 26 21
  23547187.669    -4912845.611 9  -3574877.291 9  23547188.498    23547193.832
  21004962.431   -17614122.57349 -13707255.07149  21004963.8574   21004969.8824
  23206496.158    -5305397.66649  -4124183.56649  23206495.8514   23206502.7734
  21162905.514     3244164.58449   2608370.92149  21162907.4484   21162913.2684
  20710303.148    -8233252.00749  -6402724.31049  20710304.4644   20710310.5044
  22350507.317   -12001704.29949  -9143758.01649  22350508.8924   22350513.8324
  23772377.419   -10414040.95849  -8103280.05549  23772380.0754   23772387.9404
 96  5 15  1 59  0.0000000  0  7 28 23 22  6 17 26 21
  23529004.103    -5008405.634 9  -3649339.616 9  23529004.031    23529008.517
  20997911.043   -17651176.44149 -13736128.19349  20997912.5554   20997918.7514
  23207569.268    -5299746.48449  -4119780.05049  23207571.9014   23207578.0764
  21175531.736     3310506.26549   2660065.66349  21175531.7804   21175537.2744
  20708540.641    -8242519.15449  -6409945.45249  20708541.4614   20708547.3734
  22349851.938   -12005153.58249  -9146445.75349  22349852.2364   22349857.0874
  23755963.165   -10500302.47649  -8170496.75149  23755965.2204   23755974.2684
 96  5 15  1 59 30.0000000  0  7 28 23 22  6 17 26 21
  23510843.378    -5103829.877 9  -3723696.137 9  23510845.408    23510849.151
  20990935.881   -17687834.59649 -13764692.96549  20990936.8064   20990943.0984
  23208748.686    -5293556.25349  -4114956.50149  23208749.4214   23208756.9974
  21188238.359     3377290.37549   2712105.21549  21188239.9574   21188246.3494
  20706819.051    -8251561.15449  -6416991.15849  20706820.9204   20706826.5584
  22349301.368   -12008038.23349  -9148693.51149  22349302.9834   22349308.3194
  23739581.325   -10586399.02849  -8237584.89549  23739581.3524   23739588.6284
 96  5 15  2  0  0.0000000  0  7 28 23 22  6 17 26 21
  23492712.879    -5199122.004 9  -3797949.697 9  23492712.054    23492716.285
  20984037.620   -17724080.96649 -13792936.87449  20984039.1884   20984045.3844
  23210025.662    -5286843.33649  -4109725.65549  23210026.5204   23210034.2004
  21201026.894     3444497.44449   2764474.30349  21201029.3624   21201035.1494
  20705137.978    -8260396.43849  -6423875.79149  20705139.2654   20705145.0644
  22348856.540   -12010369.50049  -9150510.08449  22348859.2424   22348864.7074
  23723224.899   -10672340.95349  -8304552.56949  23723227.7544   23723233.9314
 96  5 15  2  0 30.0000000  0  7 28 23 22  6 17 26 21
  23474604.581    -5294270.925 9  -3872091.669 9  23474605.323    23474610.133
  20977225.808   -17759881.29149 -13820833.21449  20977226.9324   20977232.7524
  23211402.503    -5279616.16349  -4104094.07549  23211402.5214   23211410.5004
  21213901.144     3512139.82749   2817182.58449  21213902.0154   21213907.8844
  20703495.823    -8269026.50049  -6430600.50949  20703497.0864   20703502.5824
  22348519.859   -12012145.25949  -9151893.78749  22348521.7614   22348526.6274
  23706905.390   -10758106.83949  -8371383.06249  23706906.7884   23706914.3524
 96  5 15  2  1  0.0000000  0  7 28 23 22  6 17 26 21
  23456526.467    -5389267.593 9  -3946115.021 9  23456528.014    23456532.699
  20970505.298   -17795195.72949 -13848350.93349  20970506.8934   20970512.7264
  23212874.299    -5271885.43949  -4098070.13349  23212873.6874   23212881.1394
  21226853.490     3580211.85349   2870225.68249  21226855.1264   21226861.5454
  20701893.301    -8277450.65249  -6437164.77649  20701893.9914   20701899.7364
  22348290.043   -12013355.39949  -9152836.70549  22348291.4014   22348296.0344
  23690622.332   -10843669.37449  -8438055.11449  23690623.1864   23690632.4254
 96  5 15  2  1 30.0000000  0  7 28 23 22  6 17 26 21
  23438475.734    -5484115.973 9  -4020022.815 9  23438478.774    23438484.854
  20963879.087   -17830021.31249 -13875487.72849  20963879.8564   20963885.7764
  23214435.533    -5263680.66649  -4091676.82549  23214435.1504   23214441.5844
  21239886.901     3648703.15849   2923595.48849  21239888.4164   21239894.4714
  20700326.174    -8285679.09949  -6443576.55249  20700328.2274   20700334.0074
  22348169.517   -12013989.54749  -9153330.81249  22348170.8934   22348175.2894
  23674381.452   -10929016.95449  -8504559.66349  23674382.2934   23674391.2474
 96  5 15  2  2  0.0000000  0  7 28 23 22  6 17 26 21
  23420458.512    -5578804.074 9  -4093805.700 9  23420460.206    23420466.113
  20957342.522   -17864367.18349 -13902250.71949  20957343.8334   20957349.6064
  23216087.746    -5254996.03849  -4084909.58449  23216087.5684   23216095.0214
  21253007.667     3717642.31649   2977314.23449  21253007.7404   21253012.9134
  20698798.832    -8293703.87649  -6449829.61949  20698800.7014   20698806.6124
  22348159.804   -12014034.97949  -9153366.17649  22348161.7594   22348167.0054
  23658181.230   -11014143.75549  -8570892.18049  23658183.8604   23658191.6054
 96  5 15  2  2 30.0000000  0  7 28 23 22  6 17 26 21
  23402468.824    -5673342.925 9  -4167472.303 9  23402469.718    23402476.631
  20950891.158   -17898275.34749 -13928672.64049  20950891.6724   20950897.4364
  23217833.483    -5245816.70149  -4077756.86249  23217834.4864   23217840.5224
  21266210.326     3787029.84349   3031382.42249  21266211.7494   21266217.4804
  20697310.769    -8301526.83849  -6455925.43549  20697312.4294   20697318.2264
  22348264.342   -12013493.72449  -9152944.38049  22348264.4624   22348270.2104
  23642025.544   -11099056.55849  -8637057.92849  23642025.8274   23642031.9414
 96  5 15  2  3  0.0000000  0  7 28 23 22  6 17 26 21
  23384510.794    -5767737.127 9  -4241026.211 9  23384508.211    23384513.574
  20944517.991   -17931768.14149 -13954770.89449  20944518.1224   20944523.6564
  23219676.945    -5236130.57749  -4070209.23449  23219677.6054   23219683.6234
  21279496.971     3856857.16049   3085793.27449  21279499.1464   21279505.3344
  20695863.433    -8309135.29949  -6461854.10749  20695864.7224   20695870.7084
  22348477.904   -12012362.58249  -9152062.94749  22348479.5074   22348484.8464
  23625905.995   -11183762.70349  -8703062.63949  23625906.7804   23625913.8834
 96  5 15  2  3 30.0000000  0  7 28 23 22  6 17 26 21
  23366574.032    -5861971.097 9  -4314455.265 9  23366575.322    23366580.778
  20938222.460   -17964849.17049 -13980548.28849  20938222.8524   20938228.3754
  23221624.557    -5225907.33549  -4062243.09149  23221623.3484   23221628.9064
  21292872.319     3927139.37349   3140558.57849  21292873.5274   21292879.6404
  20694462.870    -8316493.66549  -6467587.89549  20694464.4024   20694470.1314
  22348808.864   -12010628.00249  -9150711.30549  22348810.6454   22348815.2964
  23609828.518   -11268253.30849  -8768899.40149  23609829.2594   23609835.9814
 96  5 15  2  4  0.0000000  0  7 28 23 22  6 17 26 21
  23348672.900    -5956055.753 9  -4387767.971 9  23348671.807    23348677.613
  20932001.096   -17997537.66849 -14006019.81949  20932002.6854   20932008.1984
  23223672.432    -5215133.06249  -4053847.57249  23223673.6264   23223679.9284
  21306328.731     3997859.16649   3195664.83349  21306331.0504   21306336.9354
  20693112.547    -8323590.19549  -6473117.65549  20693113.9774   20693119.6624
  22349249.489   -12008309.37149  -9148904.56349  22349251.6114   22349256.4594
  23593789.490   -11352534.45549  -8834572.95949  23593790.6734   23593797.7544
 96  5 15  2  4 30.0000000  0  7 28 23 22  6 17 26 21
  23330798.160    -6049976.993 9  -4460953.341 9  23330798.805    23330804.806
  20925861.448   -18029808.07149 -14031165.55649  20925861.7434   20925867.4584
  23225830.434    -5203794.08149  -4045012.01249  23225830.7244   23225837.2664
  21319871.886     4069028.08649   3251121.04249  21319873.8764   21319879.7374
  20691817.939    -8330393.72349  -6478419.10449  20691819.2924   20691825.1584
  22349807.051   -12005386.63549  -9146627.07949  22349807.3904   22349811.8724
  23577794.319   -11436588.84449  -8900069.82549  23577794.9384   23577802.5344
 96  5 15  2  5  0.0000000  0  7 28 23 22  6 17 26 21
  23312956.610    -6143737.531 9  -4534013.491 9  23312957.075    23312962.502
  20919799.201   -18061653.03449 -14055979.79149  20919801.2684   20919807.3124
  23228089.487    -5191923.35449  -4035762.10449  23228090.0264   23228096.2954
  21333499.850     4140635.52849   3306918.99949  21333500.4314   21333506.2544
  20690576.669    -8336917.73449  -6483502.74749  20690578.0144   20690583.2304
  22350473.910   -12001872.80349  -9143888.99649  22350475.9164   22350481.3254
  23561839.579   -11520431.26249  -8965401.53649  23561840.8694   23561848.4784
 96  5 15  2  5 30.0000000  0  7 28 23 22  6 17 26 21
  23295142.728    -6237342.014 9  -4606952.034 9  23295143.926    23295149.564
  20913819.884   -18093079.52049 -14080467.93249  20913821.1154   20913827.0024
  23230446.303    -5179537.35449  -4026110.67549  23230446.3984   23230453.3914
  21347205.219     4212672.78749   3363051.88049  21347208.2304   21347214.8014
  20689383.484    -8343187.65749  -6488388.40149  20689384.7744   20689390.0614
  22351252.844   -11997775.80549  -9140696.46649  22351255.4164   22351260.4934
  23545925.202   -11604068.54849  -9030573.39849  23545925.5214   23545932.6104
 96  5 15  2  6  0.0000000  0  7 28 23 22  6 17 26 21
  23277364.959    -6330781.509 9  -4679762.026 9  23277363.172    23277369.120
  20907921.854   -18124076.93449 -14104621.73149  20907922.6894   20907928.6674
  23232902.453    -5166633.83749  -4016056.00549  23232902.7594   23232908.9104
  21360999.209     4285151.91349   3419529.07449  21361000.5874   21361006.9274
  20688236.225    -8349216.68749  -6493086.34849  20688237.4364   20688243.1394
  22352144.270   -11993094.66649  -9137048.78849  22352146.1414   22352151.8834
  23530046.889   -11687495.52649  -9095581.36949  23530049.8894   23530057.2604
 96  5 15  2  6 30.0000000  0  7 28 23 22  6 17 26 21
  23259614.881    -6424045.831 9  -4752435.497 9  23259615.747    23259621.599
  20902107.661   -18154631.43049 -14128430.40649  20902108.3884   20902114.4984
  23235452.979    -5153226.19549  -4005608.50749  23235453.7454   23235460.8524
  21374877.036     4358076.75349   3476353.57749  21374878.1054   21374883.8794
  20687130.607    -8355028.49849  -6497615.03549  20687131.3624   20687137.4754
  22353147.104   -11987836.02649  -9132951.12049  22353147.6384   22353152.6584
  23514216.126   -11770707.99349  -9160422.19949  23514214.7724   23514223.2694
 96  5 15  2  7  0.0000000  0  7 28 23 22  6 17 26 21
  23241901.712    -6517136.482 9  -4824973.644 9  23241901.944    23241907.115
  20896374.669   -18184756.52449 -14151904.48649  20896375.5654   20896381.5994
  23238098.238    -5139329.02849  -3994779.56549  23238098.0514   23238105.8064
  21388835.948     4431423.90549   3533507.16649  21388836.0524   21388841.5084
  20686060.907    -8360646.29149  -6501992.53049  20686062.5634   20686068.1504
  22354253.039   -11982018.04149  -9128417.60749  22354254.1444   22354259.1194
  23498418.544   -11853704.45649  -9225094.71449  23498421.2154   23498429.3294
 96  5 15  2  7 30.0000000  0  7 28 23 22  6 17 26 21
  23224218.449    -6610059.518 9  -4897381.194 9  23224218.815    23224224.881
  20890720.652   -18214466.86549 -14175055.37349  20890721.9564   20890727.8224
  23240838.688    -5124935.03649  -3983563.48049  23240837.7744   23240844.5334
  21402870.571     4505181.67349   3590980.73849  21402871.6634   21402877.6424
  20685029.524    -8366072.46149  -6506220.70849  20685030.4704   20685035.8764
  22355462.613   -11975652.33249  -9123457.29549  22355465.0604   22355470.2994
  23482669.122   -11936484.21849  -9289598.37749  23482668.3714   23482676.4024
 96  5 15  2  8  0.0000000  0  7 28 23 22  6 17 26 21
  23206568.620    -6702811.373 9  -4969655.335 9  23206568.591    23206575.376
  20885145.970   -18243760.62849 -14197881.65949  20885147.6164   20885153.2644
  23243671.437    -5110046.38749  -3971961.94249  23243670.8734   23243678.3464
  21416983.355     4579347.77149   3648772.47649  21416984.4794   21416990.9114
  20684034.308    -8371300.31449  -6510294.35549  20684035.0344   20684041.0074
  22356779.407   -11968745.95349  -9118075.67249  22356779.9844   22356784.3874
  23466955.897   -12019042.59149  -9353929.52049  23466958.0724   23466965.4524
 96  5 15  2  8 30.0000000  0  7 28 23 22  6 17 26 21
  23188949.358    -6795389.448 9  -5041794.070 9  23188951.004    23188957.695
  20879651.734   -18272638.57749 -14220383.92849  20879652.4484   20879657.7934
  23246595.243    -5094676.08349  -3959985.09849  23246595.4564   23246602.4314
  21431170.964     4653908.59549   3706871.78049  21431173.2014   21431178.8294
  20683076.986    -8376326.08249  -6514210.53249  20683078.0274   20683084.1724
  22358194.886   -11961293.84049  -9112268.81449  22358198.5174   22358202.7364
  23451291.332   -12101368.48649  -9418079.50849  23451292.3704   23451299.1344
 96  5 15  2  9  0.0000000  0  7 28 23 22  6 17 26 21
  23171367.527    -6887786.545 9  -5113791.786 9  23171368.127    23171374.495
  20874235.681   -18301097.66249 -14242559.80949  20874236.3794   20874241.7674
  23249615.886    -5078806.23949  -3947619.00249  23249615.7844   23249623.4654
  21445436.666     4728872.41649   3765285.07049  21445438.2994   21445444.4184
  20682162.620    -8381131.04049  -6517954.65549  20682164.0514   20682170.1294
  22359722.131   -11953269.58949  -9106016.12349  22359723.6014   22359730.1324
  23435669.942   -12183457.29249  -9482044.75249  23435671.4424   23435677.1564
 96  5 15  2  9 30.0000000  0  7 28 23 22  6 17 26 21
  23153820.975    -6979993.126 9  -5185641.056 9  23153821.893    23153827.967
  20868900.965   -18329124.44049 -14264398.82849  20868902.7944   20868908.7704
  23252732.020    -5062425.60749  -3934854.88549  23252732.7314   23252739.5954
  21459782.208     4804255.65449   3824025.19049  21459783.7604   21459789.6354
  20681293.228    -8385702.25449  -6521516.64449  20681294.3474   20681300.2684
  22361363.755   -11944653.09949  -9099301.96849  22361364.1594   22361368.9114
  23420096.063   -12265301.39749  -9545819.33649  23420096.0534   23420103.8184
 96  5 15  2 10  0.0000000  0  7 28 23 22  6 17 26 21
  23136309.405    -7072014.793 9  -5257346.225 9  23136311.338    23136317.049
  20863650.375   -18356721.69949 -14285903.15949  20863651.5934   20863657.3374
  23255943.337    -5045550.61449  -3921705.55749  23255944.1324   23255950.6244
  21474205.920     4880053.38849   3883088.29249  21474207.3724   21474213.4814
  20680465.656    -8390052.48449  -6524906.42449  20680466.7754   20680472.7464
  22363115.156   -11935435.65049  -9092119.52849  22363117.9274   22363122.4734
  23404561.732   -12346912.35349  -9609412.23649  23404565.9704   23404573.2144
 96  5 15  2 10 30.0000000  0  7 28 23 22  6 17 26 21
  23118833.649    -7163852.393 9  -5328907.956 9  23118835.101    23118840.815
  20858481.145   -18383891.12349 -14307074.10949  20858481.8734   20858487.5294
  23259252.099    -5028170.47149  -3908162.61049  23259251.1384   23259257.6074
  21488711.251     4956276.36049   3942482.78249  21488711.2954   21488718.1904
  20679680.755    -8394180.40249  -6528122.98149  20679681.3884   20679686.9914
  22364986.080   -11925611.05949  -9084463.99149  22364987.8664   22364992.5854
  23389076.033   -12428302.57149  -9672833.11549  23389077.8274   23389085.2754
 96  5 15  2 11  0.0000000  0  7 28 23 22  6 17 26 21
  23101394.457    -7255504.339 9  -5400325.037 9  23101394.246    23101400.064
  20853392.111   -18410626.49849 -14327906.83949  20853394.0034   20853399.5224
  23262655.495    -5010276.20449  -3894219.03349  23262655.7404   23262663.2724
  21503296.669     5032936.28249   4002217.73749  21503299.5814   21503306.2294
  20678938.160    -8398080.96649  -6531162.38249  20678938.7314   20678944.3404
  22366973.288   -11915175.19749  -9076332.13649  22366974.1124   22366978.7794
  23373628.677   -12509489.25249  -9736095.40249  23373628.9664   23373636.9734
 96  5 15  2 11 30.0000000  0  7 28 23 22  6 17 26 21
  23083987.871    -7346967.498 9  -5471595.003 9  23083989.453    23083995.385
  20848387.559   -18436930.50849 -14348403.44349  20848388.5424   20848394.4114
  23266158.704    -4991868.13849  -3879875.10249  23266158.6924   23266165.9324
  21517971.909     5110042.99349   4062300.84849  21517973.1584   21517979.1954
  20678239.952    -8401742.72549  -6534015.70049  20678242.2694   20678247.7224
  22369074.948   -11904130.23849  -9067725.65549  22369075.0744   22369081.2434
  23358215.016   -12590486.79549  -9799210.30549  23358215.8094   23358222.5394
 96  5 15  2 12  0.0000000  0  7 28 23 22  6 17 26 21
  23066618.670    -7438246.483 9  -5542721.449 9  23066620.186    23066624.923
  20843461.621   -18462816.76949 -14368574.52949  20843462.3614   20843468.3764
  23269760.278    -4972947.58149  -3865131.83349  23269759.9364   23269766.7304
  21532730.042     5187593.57049   4122729.81049  21532730.8624   21532736.1864
  20677588.755    -8405169.81249  -6536686.14249  20677589.7824   20677595.5264
  22371287.378   -11892491.41949  -9058656.44549  22371290.2804   22371294.4764
  23342833.856   -12671309.85449  -9862189.24249  23342835.2454   23342842.1654
 96  5 15  2 12 30.0000000  0  7 28 23 22  6 17 26 21
  23049285.787    -7529335.780 9  -5613700.100 9  23049286.435    23049291.330
  20838615.363   -18488283.23849 -14388418.50349  20838616.0754   20838621.6524
  23273455.689    -4953519.26549  -3849992.91349  23273457.1614   23273463.1064
  21547568.110     5265576.74049   4183495.87649  21547570.3414   21547576.3374
  20676980.976    -8408359.85749  -6539171.88349  20676982.6124   20676988.4974
  22373613.959   -11880268.44149  -9049132.02749  22373615.8294   22373621.0024
  23327490.226   -12751947.95949  -9925024.07549  23327490.0054   23327498.3744
 96  5 15  2 13  0.0000000  0  7 28 23 22  6 17 26 21
  23031990.212    -7620224.541 9  -5684522.484 9  23031990.571    23031994.902
  20833849.250   -18513333.60649 -14407938.24049  20833849.3804   20833855.0934
  23277247.739    -4933601.15049  -3834472.32549  23277247.3854   23277253.7894
  21562488.328     5343981.48449   4244590.38549  21562490.5694   21562496.8144
  20676421.361    -8411303.65749  -6541465.74749  20676422.1414   20676428.2424
  22376056.025   -11867451.26049  -9039144.59549  22376055.0034   22376059.8864
  23312185.388   -12832380.82749  -9987698.98649  23312183.8894   23312191.9014
 96  5 15  2 13 30.0000000  0  7 28 23 22  6 17 26 21
  23014735.196    -7710903.137 9  -5755181.103 9  23014735.290    23014739.868
  20829161.043   -18537969.74749 -14427135.21449  20829161.0554   20829166.9784
  23281128.883    -4913199.09749  -3818574.65249  23281129.7564   23281135.5614
  21577487.886     5422799.91849   4306007.24749  21577488.6564   21577495.4144
  20675908.061    -8413999.04749  -6543566.05049  20675909.3084   20675915.1094
  22378600.242   -11854048.08949  -9028700.56049  22378604.6114   22378610.5064
  23296921.210   -12912577.21649 -10050189.63049  23296922.9394   23296931.0664
 96  5 15  2 14  0.0000000  0  7 28 23 22  6 17 26 21
  22997517.586    -7801381.896 9  -5825683.987 9  22997517.432    22997521.634
  20824549.867   -18562195.37849 -14446012.30949  20824550.7234   20824556.9234
  23285097.477    -4892339.70949  -3802320.61049  23285098.6424   23285105.4314
  21592558.455     5501999.67549   4367721.32249  21592559.8574   21592566.4864
  20675437.236    -8416477.23249  -6545497.10649  20675438.0464   20675443.7014
  22381262.829   -11840081.73049  -9017817.66849  22381262.9554   22381268.3914
  23281707.029   -12992523.94049 -10112485.71449  23281708.9314   23281717.4444
 96  5 15  2 14 30.0000000  0  8 28 23 22  3  6 17 26 21
  22980337.888    -7891656.193 9  -5896027.563 9  22980338.474    22980343.203
  20820019.875   -18586000.49949 -14464561.73649  20820020.9314   20820026.8164
  23289152.536    -4871028.79849  -3785714.71649  23289154.9454   23289160.2724
  24771961.212    -3998033.05759  -2606513.32959  24771958.2424   24771962.8054
  21607701.643     5581574.58849   4429727.66049  21607703.0454   21607709.1494
  20675005.823    -8418739.47849  -6547259.89949  20675007.5734   20675012.9204
  22384026.795   -11825544.99749  -9006490.35049  22384029.7914   22384035.4394
  23266541.614   -13072213.91749 -10174581.74649  23266545.2104   23266552.6704
 96  5 15  2 15  0.0000000  0  8 28 23 22  3  6 17 26 21
  22963197.834    -7981725.576 9  -5966211.465 9  22963198.265    22963203.892
  20815571.104   -18609384.64249 -14482783.11649  20815571.4954   20815576.9894
  23293298.280    -4849250.05649  -3768744.29149  23293298.2664   23293305.0934
  24752398.052    -4100816.24549  -2686604.05649  24752398.9404   24752409.8854
  21622917.445     5661536.92349   4492035.87549  21622919.5304   21622925.3734
  20674618.261    -8420777.02449  -6548847.59549  20674619.6474   20674625.6064
  22386904.998   -11810440.13249  -8994720.30249  22386904.0254   22386909.4434
  23251426.676   -13151654.89349 -10236483.75549  23251427.6314   23251435.9674
 96  5 15  2 15 30.0000000  0  8 28 23 22  3  6 17 26 21
  22946098.784    -8071573.617 9  -6036222.894 9  22946101.216    22946106.066
  20811205.932   -18632323.38049 -14500657.42049  20811206.2224   20811211.7414
  23297539.328    -4826961.17349  -3751376.33649  23297539.5774   23297546.2704
  24732851.039    -4203535.07949  -2766644.67649  24732854.8904   24732860.5164
  21638213.682     5741916.11149   4554668.96449  21638214.7974   21638221.0454
  20674275.459    -8422584.34149  -6550255.88849  20674275.7154   20674281.6774
  22389886.996   -11794746.17849  -8982491.23449  22389890.7174   22389895.4774
  23236355.552   -13230845.30849 -10298190.51449  23236358.8184   23236365.7814
 96  5 15  2 16  0.0000000  0  8 28 23 22  3  6 17 26 21
  22929045.920    -8161201.537 9  -6106062.804 9  22929045.755    22929051.269
  20806922.634   -18654825.79149 -14518191.73449  20806923.9614   20806929.5944
  23301881.351    -4804147.35049  -3733599.34849  23301881.2384   23301887.3794
  24713317.768    -4306174.68849  -2846623.46049  24713320.4504   24713330.7634
  21653588.036     5822710.89949   4617625.88449  21653589.6874   21653595.7304
  20673975.570    -8424160.28749  -6551483.89449  20673976.4464   20673981.7074
  22392993.083   -11778443.28249  -8969787.66749  22392992.0954   22392997.3574
  23221332.602   -13309808.65649 -10359720.33149  23221332.3004   23221339.1614
 96  5 15  2 16 30.0000000  0  8 28 23 22  3  6 17 26 21
  22912031.190    -8250609.620 9  -6175731.400 9  22912031.971    22912037.043
  20802721.679   -18676901.58949 -14535393.62549  20802722.9614   20802729.0594
  23306321.640    -4780802.03949  -3715408.21749  23306323.3114   23306330.0784
  24693803.038    -4408726.99659  -2926534.31459  24693803.8414   24693813.9694
  21669040.406     5903914.80349   4680901.59549  21669041.7464   21669048.6474
  20673720.468    -8425492.91249  -6552522.29649  20673722.2804   20673728.4434
  22396208.143   -11761535.87849  -8956613.03549  22396210.3664   22396214.8154
  23206344.890   -13388557.84249 -10421083.27649  23206346.9744   23206353.2114
 96  5 15  2 17  0.0000000  0  8 28 23 22  3  6 17 26 21
  22895059.712    -8339807.543 9  -6245236.252 9  22895058.901    22895063.384
  20798598.275   -18698568.61749 -14552277.00849  20798599.7284   20798605.6834
  23310863.738    -4756944.18949  -3696817.69749  23310864.5154   23310870.1834
  24674299.151    -4511203.69359  -3006386.25459  24674299.7954   24674315.0434
  21684566.525     5985511.65049   4744483.51249  21684569.4574   21684575.8944
  20673509.578    -8426604.60649  -6553388.54249  20673510.7854   20673516.8634
  22399536.220   -11744044.97849  -8942983.75449  22399538.5284   22399544.4364
  23191401.109   -13467104.01649 -10482288.02649  23191400.3064   23191407.1114
 96  5 15  2 17 30.0000000  0  8 28 23 22  3  6 17 26 21
  22878124.307    -8428793.687 9  -6314576.081 9  22878124.891    22878129.549
  20794552.867   -18719830.61049 -14568844.77249  20794554.0544   20794559.4074
  23315495.067    -4732607.03149  -3677853.70249  23315495.8324   23315500.9814
  24654809.823    -4613611.54659  -3086184.49659  24654814.9954   24654822.5034
  21700166.202     6067478.73149   4808353.96049  21700167.3344   21700174.0094
  20673338.765    -8427508.28149  -6554092.70849  20673339.1514   20673344.7704
  22402976.169   -11725974.46849  -8928902.85549  22402977.7974   22402982.6864
  23176489.146   -13545447.99249 -10543335.23049  23176492.5364   23176500.0204
 96  5 15  2 18  0.0000000  0  8 28 23 22  3  6 17 26 21
  22861231.472    -8517564.214 9  -6383747.895 9  22861232.112    22861236.506
  20790584.393   -18740688.36449 -14585097.54749  20790584.7424   20790590.5754
  23320212.040    -4707819.50449  -3658538.76649  23320212.5584   23320218.9554
  24635335.576    -4715941.32958                                  24635350.2224
  21715830.193     6149795.01249   4872496.44749  21715831.6064   21715838.2054
  20673207.203    -8428195.16149  -6554627.94549  20673208.4044   20673214.4144
  22406521.733   -11707349.55449  -8914389.90149  22406521.8124   22406526.2494
  23161625.643   -13623572.04649 -10604211.06949  23161625.7204   23161632.6834
 96  5 15  2 18 30.0000000  0  8 28 23 22  3  6 17 26 21
  22844383.227    -8606102.910 9  -6452739.071 9  22844383.594    22844388.441
  20786697.229   -18761116.06349 -14601015.21749  20786697.8534   20786703.4844
  23325015.627    -4682582.50249  -3638873.59849  23325015.3194   23325021.2754
  24615881.266    -4818178.39658                                  24615882.4494
  21731566.646     6232491.03049   4936934.83649  21731567.3634   21731574.6474
  20673117.375    -8428665.11249  -6554994.14349  20673118.8514   20673124.5764
  22410168.119   -11688177.28149  -8899450.42749  22410169.8614   22410174.3494
  23146803.224   -13701454.12449 -10664898.33849  23146804.3584   23146812.2614
 96  5 15  2 19  0.0000000  0  8 28 23 22  3  6 17 26 21
  22827577.496    -8694411.127 9  -6521550.643 9  22827578.246    22827584.315
  20782889.989   -18781118.39249 -14616601.42249  20782891.4744   20782896.8174
  23329902.254    -4656904.86249  -3618865.06749  23329901.0734   23329907.8494
  24596453.439    -4920309.77658                                  24596450.7674
  21747377.545     6315585.79949   5001683.97049  21747380.3924   21747387.4064
  20673067.386    -8428927.22149  -6555198.38049  20673069.0054   20673074.3674
  22413920.103   -11668450.52549  -8884078.90649  22413923.2024   22413929.2524
  23132028.618   -13779094.86249 -10725397.55749  23132029.6214   23132037.2594
 96  5 15  2 19 30.0000000  0  8 28 23 22  3  6 17 26 21
  22810815.352    -8782494.269 9  -6590186.828 9  22810816.206    22810822.517
  20779163.629   -18800708.31549 -14631866.26549  20779163.8454   20779168.6604
  23334870.775    -4630782.00849  -3598509.61249  23334872.2974   23334878.6184
  24577035.245    -5022333.39348                                  24577042.0674
  21763268.045     6399078.75149   5066743.36349  21763269.2474   21763275.9654
  20673059.818    -8428969.17249  -6555231.07349  20673060.9224   20673066.2024
  22417784.420   -11648161.62349  -8868269.35349  22417784.7564   22417789.3064
  23117300.486   -13856496.03849 -10785710.11449  23117300.2944   23117308.3814
 96  5 15  2 20  0.0000000  0  8 28 23 22  3  6 17 26 21
  22794101.802    -8870331.947 9  -6658631.749 9  22794102.183    22794108.025
  20775517.212   -18819864.19149 -14646792.89849  20775518.1104   20775523.7054
  23339935.858    -4604170.26449  -3577773.20449  23339936.6784   23339943.0364
  24557643.293    -5124236.647 9
  21779237.068     6483001.09249   5132137.33949  21779239.2104   21779245.2374
  20673097.623    -8428773.13049  -6555078.31649  20673097.9944   20673103.7744
  22421756.056   -11627281.91249  -8851999.40949  22421758.2254   22421761.8624
  23102619.989   -13933634.07949 -10845817.64049  23102621.9474   23102629.5664
 96  5 15  2 20 30.0000000  0  8 28 23 22  3  6 17 26 21
  22777430.689    -8957940.021 9  -6726897.764 9  22777431.344    22777436.702
  20771951.860   -18838601.01649 -14661393.00049  20771952.6184   20771958.3234
  23345089.425    -4577089.94749  -3556671.67849  23345089.3174   23345096.5214
  24538272.891    -5226039.202 9
  21795285.903     6567344.74749   5197859.59349  21795288.9374   21795295.2864
  20673177.091    -8428351.23849  -6554749.56349  20673178.5504   20673184.1434
  22425845.316   -11605804.51349  -8835263.75349  22425845.7724   22425849.2564
  23087988.642   -14010529.85849 -10905736.38349  23087989.9274   23087996.4334
 96  5 15  2 21  0.0000000  0  8 28 23 22  3  6 17 26 21
  22760806.409    -9045306.648 9  -6794975.627 9  22760806.392    22760811.223
  20768464.339   -18856925.38849 -14675671.70849  20768465.5564   20768471.5784
  23350331.172    -4549543.49749  -3535206.92249  23350331.2354   23350338.5504
  24518924.448    -5327750.707 9
  21811413.217     6652089.74649   5263894.58949  21811415.1214   21811421.3684
  20673304.534    -8427683.62149  -6554229.33949  20673305.7944   20673311.3804
  22430047.042   -11583706.63649  -8818044.62349  22430050.1184   22430054.8244
  23073405.402   -14087168.14049 -10965454.45849  23073405.9584   23073412.5464
 96  5 15  2 21 30.0000000  0  8 28 23 22  3  6 17 26 21
  22744229.268    -9132417.515 9  -6862854.211 9  22744230.186    22744234.560
  20765057.532   -18874826.18049 -14689620.36349  20765059.2724   20765065.3344
  23355660.565    -4521529.02949  -3513377.49049  23355662.4854   23355667.7534
  24499587.288    -5429374.815 9
  21827612.744     6737225.08649   5330233.68149  21827615.9004   21827622.9194
  20673479.484    -8426760.88849  -6553510.31749  20673481.1404   20673487.0144
  22434372.457   -11560986.15649  -8800340.37149  22434372.5394   22434377.5764
  23058871.830   -14163534.83549 -11024960.92849  23058873.7164   23058879.2914
 96  5 15  2 22  0.0000000  0  8 28 23 22  3  6 17 26 21
  22727700.694    -9219280.888 9  -6930539.932 9  22727700.357    22727704.926
  20761730.271   -18892314.40949 -14703247.53849  20761731.1054   20761737.2744
  23361075.698    -4493071.66249  -3491202.93849  23361077.2804   23361084.0904
  24480256.818    -5530923.903 9
  21843889.539     6822737.72949   5396866.83849  21843888.8324   21843895.1794
  20673700.292    -8425603.12149  -6552608.15449  20673701.4804   20673707.4404
  22438806.958   -11537670.36049  -8782172.19849  22438810.0714   22438814.5124
  23044390.110   -14239643.60649 -11084266.40249  23044390.6754   23044396.4914
 96  5 15  2 22 30.0000000  0  8 28 23 22  3  6 17 26 21
  22711217.490    -9305894.298 9  -6998030.877 9  22711217.870    22711222.161
  20758478.915   -18909401.99449 -14716562.52749  20758479.4914   20758485.2294
  23366575.894    -4464172.92249  -3468684.46949  23366576.6984   23366582.5274
  24460949.681    -5632389.126 9
  21860231.684     6908628.98149   5463795.03249  21860233.0794   21860239.6454
  20673965.437    -8424209.60049  -6551522.29849  20673966.5834   20673972.3974
  22443358.796   -11513774.89549  -8763552.31749  22443358.1464   22443362.0884
  23029953.371   -14315506.94949 -11143380.63749  23029954.1574   23029960.0564
 96  5 15  2 23  0.0000000  0  8 28 23 22  3  6 17 26 21
  22694782.374    -9392252.769 9  -7065323.180 9  22694783.915    22694788.397
  20755301.484   -18926090.73649 -14729566.72549  20755303.5034   20755308.9364
  23372166.236    -4434797.74649  -3445794.73349  23372166.9274   23372172.7634
  24441661.179    -5733759.510 9
  21876650.035     6994901.39649   5531020.23249  21876651.2724   21876657.3584
  20674273.054    -8422588.52749  -6550259.12849  20674275.0394   20674280.5094
  22448012.078   -11489313.26149  -8744491.28649  22448012.2964   22448017.6414
  23015560.882   -14391132.46449 -11202309.56949  23015562.8014   23015570.0634
 96  5 15  2 23 30.0000000  0  8 28 23 22  3  6 17 26 21
  22678398.073    -9478358.066 9  -7132418.204 9  22678398.316    22678403.048
  20752203.097   -18942377.36849 -14742257.58149  20752204.6134   20752209.8494
  23377849.363    -4404930.09049  -3422521.24449  23377850.3714   23377856.4294
  24422387.615    -5835018.429 9
  21893139.464     7081554.36649   5598541.96849  21893140.8124   21893147.2944
  20674626.240    -8420738.77149  -6548817.77149  20674627.6484   20674632.3814
  22452769.407   -11464301.13349  -8725001.31649  22452771.9364   22452776.8394
  23001214.212   -14466536.02349 -11261065.54049  23001213.8014   23001221.8464
 96  5 15  2 24  0.0000000  0  8 28 23 22  3  6 17 26 21
  22662058.672    -9564216.358 9  -7199320.744 9  22662059.910    22662065.165
  20749177.850   -18958276.34149 -14754646.37249  20749179.1114   20749184.5534
  23383626.874    -4374570.06149  -3398864.08549  23383626.9664   23383634.5934
  24403135.006    -5936169.38019
  21909699.239     7168583.11149   5666356.49349  21909700.9994   21909707.9644
  20675021.929    -8418658.16749  -6547196.52649  20675023.3584   20675028.8284
  22457634.360   -11438749.63849  -8705091.03549  22457634.9794   22457638.8814
  22986901.628   -14541730.53849 -11319658.64049  22986904.0034   22986912.6984
 96  5 15  2 24 30.0000000  0  8 28 23 22  3  6 17 26 21
  22645770.725    -9649815.304 9  -7266021.195 9  22645771.183    22645776.669
  20746230.052   -18973771.08549 -14766720.17849  20746230.7024   20746235.6014
  23389502.299    -4343704.51549  -3374813.02849  23389502.0244   23389507.5444
  24383920.101    -6037204.71919
  21926331.420     7255979.20849   5734457.30949  21926332.1544   21926339.3444
  20675464.950    -8416329.20649  -6545381.75349  20675466.5644   20675472.1774
  22462601.049   -11412637.68649  -8684744.05449  22462602.6614   22462607.3174
  22972634.145   -14616706.03749 -11378081.06249  22972636.8364   22972644.5344
 96  5 15  2 25  0.0000000  0  8 28 23 22  3  6 17 26 21
  22629532.125    -9735141.605 9  -7332509.207 9  22629534.364    22629539.798
  20743361.426   -18988844.81249 -14778465.92349  20743362.3904   20743367.5764
  23395469.874    -4312341.80149  -3350374.58749  23395469.4464   23395474.9734
  24364714.654    -6138112.967 9
  21943032.188     7343742.97149   5802844.55649  21943033.4104   21943040.0844
  20675958.884    -8413730.00549  -6543356.41749  20675960.9094   20675966.3244
  22467680.913   -11385941.63149  -8663941.93249  22467683.5514   22467688.5014
  22958417.517   -14691430.80649 -11436308.10649  22958418.0354   22958424.6084
 96  5 15  2 25 30.0000000  0  8 28 23 22  3  6 17 26 21
  22613348.354    -9820199.064 9  -7398787.741 9  22613348.832    22613354.014
  20740573.781   -19003498.44949 -14789884.32549  20740573.7624   20740578.9614
  23401524.113    -4280525.32849  -3325582.53349  23401524.1884   23401530.1624
  24345533.623    -6238909.748 9
  21959799.085     7431863.35349   5871509.70149  21959801.9944   21959808.8324
  20676504.942    -8410863.17249  -6541122.53849  20676506.2934   20676512.3404
  22472873.417   -11358654.03749  -8642678.85749  22472875.8954   22472880.2304
  22944245.680   -14765904.59849 -11494339.58749  22944246.3574   22944252.5964
 96  5 15  2 26  0.0000000  0  8 28 23 22  3  6 17 26 21
  22597211.708    -9904997.061 9  -7464864.092 9  22597212.535    22597217.475
  20737863.049   -19017736.41149 -14800978.82249  20737864.3314   20737869.4394
  23407661.152    -4248281.09949  -3300457.17449  23407660.2764   23407666.8804
  24326370.651    -6339599.277 9
  21976637.335     7520336.62149   5940449.86949  21976639.0494   21976645.1064
  20677098.096    -8407748.69749  -6538695.66649  20677098.7424   20677104.9194
  22478181.403   -11330768.49149  -8620949.83649  22478181.4714   22478187.0584
  22930118.904   -14840131.23249 -11552178.46649  22930120.7334   22930127.5484
 96  5 15  2 26 30.0000000  0  8 28 23 22  3  6 17 26 21
  22581130.039    -9989510.299 9  -7530718.558 9  22581130.185    22581134.561
  20735239.649   -19031523.56649 -14811722.03749  20735240.6414   20735245.6764
  23413877.851    -4215597.92849  -3274989.77749  23413879.5814   23413886.0924
  24307238.896    -6440143.594 9   -215109.91359                  24307245.2374
  21993544.065     7609188.20649   6009684.83849  21993546.4564   21993553.1974
  20677738.301    -8404386.34249  -6536075.64049  20677738.9414   20677744.5274
  22483607.038   -11302249.75749  -8598727.43449  22483609.2314   22483613.6184
  22916047.441   -14914082.20449 -11609802.54549  22916048.6564   22916055.0384
 96  5 15  2 27  0.0000000  0  8 28 23 22  3  6 17 26 21
  22565097.077   -10073760.111 9  -7596367.752 9  22565098.014    22565103.013
  20732697.072   -19044885.80649 -14822134.15549  20732697.7824   20732703.0334
  23420175.882    -4182503.61349  -3249202.01049  23420176.7604   23420183.3724
  24288127.795    -6540562.402 9   -293358.28249                  24288135.3954
  22010523.072     7698408.59449   6079207.18249  22010524.2854   22010530.7164
  20678416.318    -8400817.80949  -6533294.97149  20678418.2174   20678423.6444
  22489148.313   -11273130.58449  -8576037.17049  22489149.7414   22489155.6994
  22902024.442   -14987773.39749 -11667224.19949  22902026.0464   22902031.1384
 96  5 15  2 27 30.0000000  0  8 28 23 22  3  6 17 26 21
  22549115.839   -10157738.762 9  -7661805.641 9  22549116.766    22549122.115
  20730235.317   -19057821.41349 -14832213.82949  20730236.2304   20730241.2184
  23426555.116    -4148982.65149  -3223081.80049  23426554.8494   23426562.3634
  24269043.965    -6640854.05459   -371507.57959  24269045.9324   24269052.8014
  22027571.087     7788006.79049   6149023.94949  22027573.8724   22027581.2784
  20679134.026    -8397046.03049  -6530355.92849  20679135.7364   20679141.1174
  22494802.849   -11243416.84349  -8552883.59949  22494804.3074   22494809.6264
  22888053.286   -15061203.27549 -11724442.22249  22888052.8354   22888058.5574
 96  5 15  2 28  0.0000000  0  8 28 23 22  3  6 17 26 21
  22533186.958   -10241446.259 9  -7727032.257 9  22533187.556    22533192.501
  20727852.215   -19070338.45649 -14841967.35449  20727854.1564   20727859.4214
  23433016.636    -4115023.93649  -3196620.48549  23433017.0204   23433024.9574
  24249983.992    -6741019.25759   -449558.36049  24249986.1884   24249991.6464
  22044692.256     7877979.28249   6219132.39549  22044695.2074   22044701.9674
  20679889.995    -8393074.36749  -6527261.12249  20679891.4204   20679897.0794
  22500566.779   -11213138.73649  -8529290.23649  22500566.7174   22500571.5014
  22874127.084   -15134367.13049 -11781452.97649  22874128.7204   22874136.3814
 96  5 15  2 28 30.0000000  0  8 28 23 22  3  6 17 26 21
  22517311.077   -10324876.805 9  -7792043.066 9  22517310.710    22517316.672
  20725550.971   -19082435.40249 -14851393.52549  20725552.5374   20725557.6764
  23439563.524    -4080619.25049  -3169811.66349  23439563.8474   23439571.5134
  24230946.796    -6841077.82349   -527526.05949  24230945.0424   24230951.6764
  22061884.548     7968321.62549   6289528.98549  22061886.9094   22061893.8114
  20680683.714    -8388902.31049  -6524010.16749  20680685.1604   20680691.2464
  22506428.518   -11182321.18049  -8505276.53749  22506431.2254   22506435.4644
  22860256.655   -15207264.66049 -11838256.21049  22860257.1684   22860264.7994
 96  5 15  2 29  0.0000000  0  8 28 23 22  3  6 17 26 21
  22501488.136   -10408022.626 9  -7856831.992 9  22501488.774    22501494.523
  20723326.645   -19094122.15049 -14860500.06449  20723328.4194   20723333.5894
  23446200.642    -4045749.77549  -3142640.64449  23446199.9124   23446206.8284
  24211927.716    -6941030.97349   -605411.57149  24211924.9004   24211929.5194
  22079147.538     8059027.31549   6360208.72949  22079147.5764   22079153.9454
  20681522.796    -8384496.26049  -6520576.88449  20681524.1214   20681529.7914
  22512395.757   -11150971.62149  -8480848.32049  22512395.9164   22512401.4664
  22846434.421   -15279894.11749 -11894850.55749  22846436.5804   22846443.8454
 96  5 15  2 29 30.0000000  0  8 28 23 22  3  6 17 26 21
  22485720.639   -10490880.560 9  -7921396.604 9  22485722.184    22485726.381
  20721181.774   -19105397.30049 -14869285.87149  20721182.6824   20721188.2464
  23452924.848    -4010406.60049  -3115100.52049  23452925.7254   23452932.6064
  24192921.894    -7040865.72349   -683204.79349  24192925.2404   24192932.2074
  22096474.569     8150090.71949   6431167.24349  22096476.1404   22096482.7594
  20682410.156    -8379834.90649  -6516944.66249  20682410.9804   20682416.7884
  22518461.041   -11119090.96749  -8456006.24949  22518463.4564   22518467.5174
  22832664.980   -15352263.40149 -11951242.17149  22832665.4294   22832672.8194
 96  5 15  2 30  0.0000000  0  8 28 23 22  3  6 17 26 21
  22470009.316   -10573447.529 9  -7985734.493 9  22470010.080    22470014.813
  20719114.713   -19116262.24449 -14877752.04849  20719115.1594   20719120.3844
  23459739.025    -3974600.03749  -3087199.33949  23459739.5824   23459745.9234
  24173955.615    -7140560.85149   -760889.20949  24173955.6774   24173960.8664
  22113873.300     8241510.62749   6502403.47749  22113873.1014   22113880.0374
  20683346.921    -8374913.19549  -6513109.56449  20683347.4874   20683353.3454
  22524632.257   -11086669.69349  -8430742.91649  22524633.3234   22524637.8864
  22818940.182   -15424386.84049 -12007442.22349  22818940.9964   22818947.6524
 96  5 15  2 30 30.0000000  0  8 28 23 22  3  6 17 26 21
  22454353.190   -10655722.296 9  -8049844.673 9  22454354.102    22454357.960
  20717122.793   -19126727.31749 -14885906.63549  20717123.7714   20717128.7284
  23466640.392    -3938330.67149  -3058937.51349  23466641.7254   23466647.7004
  24155013.689    -7240103.57249   -838454.91749  24155011.7954   24155017.9984
  22131335.711     8333281.10349   6573912.91349  22131336.0134   22131342.9454
  20684332.270    -8369730.24749  -6509070.89149  20684333.9844   20684339.3494
  22530908.877   -11053674.42049  -8405032.30049  22530911.3734   22530916.7184
  22805261.178   -15496272.60149 -12063457.05049  22805261.5754   22805268.5634
 96  5 15  2 31  0.0000000  0  8 28 23 22  3  6 17 26 21
  22438750.856   -10737710.825 9  -8113731.817 9  22438752.253    22438756.063
  20715203.601   -19136809.24849 -14893762.66849  20715205.0924   20715209.9764
  23473627.851    -3901615.73749  -3030328.48249  23473627.4154   23473633.3844
  24136096.410    -7339483.67449   -915893.89849  24136100.6794   24136107.0534
  22148864.318     8425398.08849   6645692.36149  22148865.6184   22148872.4944
  20685368.834    -8364282.95949  -6504826.23649  20685370.2004   20685375.6824
  22537298.886   -11020098.35349  -8378869.12649  22537300.6084   22537305.8224
  22791624.892   -15567926.58449 -12119291.27949  22791626.1964   22791632.8884
 96  5 15  2 31 30.0000000  0  8 28 23 22  3  6 17 26 21
  22423206.553   -10819404.834 9  -8177389.469 9  22423205.926    22423210.914
  20713360.997   -19146492.00149 -14901307.65049  20713362.3104   20713367.4754
  23480695.654    -3864474.46649  -3001387.26249  23480696.2124   23480701.8814
  24117219.647    -7438693.65049   -993200.36049  24117221.6934   24117228.4074
  22166462.242     8517878.71149   6717755.12849  22166464.5004   22166470.2384
  20686453.128    -8358584.52649  -6500385.88749  20686454.5844   20686460.3844
  22543800.034   -10985936.82549  -8352249.75749  22543801.0894   22543806.4084
  22778033.764   -15639345.72649 -12174942.50949  22778035.5174   22778043.0024
 96  5 15  2 32  0.0000000  0  8 28 23 22  3  6 17 26 21
  22407718.039   -10900787.849 9  -8240804.772 9  22407719.071    22407724.842
  20711597.936   -19155758.87349 -14908528.58249  20711599.0694   20711604.4804
  23487845.666    -3826908.72549  -2972115.28149  23487844.9784   23487850.8744
  24098372.818    -7537733.21149  -1070374.02849  24098375.5394   24098380.8224
  22184134.725     8610737.78049   6790112.76849  22184134.9644   22184140.4674
  20687585.364    -8352635.20349  -6495750.04149  20687586.8744   20687592.4504
  22550411.364   -10951174.49349  -8325162.22849  22550416.4494   22550421.3694
  22764492.811   -15710509.38449 -12230394.66449  22764492.9584   22764499.8694
 96  5 15  2 32 30.0000000  0  8 28 23 22  3  6 17 26 21
  22392287.561   -10981876.719 9  -8303990.899 9  22392288.268    22392293.514
  20709911.810   -19164624.51649 -14915436.86549  20709912.7514   20709917.6794
  23495072.152    -3788931.84849  -2942522.92649  23495071.0554   23495077.5334
  24079554.839    -7636633.27549  -1147438.98249  24079554.9104   24079561.6534
  22201872.146     8703956.04349   6862750.31649  22201873.8394   22201879.8844
  20688760.407    -8346457.83249  -6490936.49549  20688762.3144   20688767.8914
  22557139.297   -10915834.60949  -8297624.64449  22557141.5244   22557146.6794
  22750996.836   -15781424.75149 -12285653.35049  22750998.5684   22751005.4824
 96  5 15  2 33  0.0000000  0  8 28 23 22  3  6 17 26 21
  22376913.442   -11062660.647 9  -8366939.401 9  22376915.356    22376921.560
  20708302.377   -19173079.65749 -14922025.27349  20708302.9744   20708308.5264
  23502373.785    -3750548.69149  -2912613.99349  23502374.1854   23502382.1394
  24060762.002    -7735383.72049  -1224387.37549  24060764.4444   24060771.2444
  22219681.577     8797547.04749   6935678.30849  22219682.6934   22219689.7134
  20689980.076    -8340043.39349  -6485938.21449  20689982.4224   20689988.7914
  22563971.047   -10879933.94249  -8269650.10549  22563973.5334   22563978.4434
  22737551.140   -15852084.40549 -12340712.77049  22737552.2324   22737558.9384
 96  5 15  2 33 30.0000000  0  8 28 23 22  3  6 17 26 21
  22361599.361   -11143146.584 9  -8429655.705 9  22361599.675    22361605.781
  20706768.307   -19181139.97149 -14928306.02749  20706769.1714   20706774.7644
  23509754.488    -3711769.29849  -2882396.28249  23509754.1114   23509761.7484
  24042000.191    -7833986.53149  -1301220.70849  24042001.0584   24042006.5314
  22237559.177     8891493.71149   7008883.47249  22237560.5684   22237567.0304
  20691242.984    -8333411.89849  -6480770.80849  20691244.6974   20691250.9324
  22570908.804   -10843488.20249  -8241250.84749  22570908.8064   22570914.1764
  22724150.765   -15922502.19149 -12395583.71549  22724152.3084   22724159.2044
 96  5 15  2 34  0.0000000  0  8 28 23 22  3  6 17 26 21
  22346342.159   -11223320.341 9  -8492128.749 9  22346343.277    22346348.876
  20705309.939   -19188806.06249 -14934279.59149  20705310.3904   20705315.7414
  23517214.946    -3672563.39349  -2851846.25049  23517215.4494   23517222.7964
  24023267.512    -7932424.19759  -1377925.38749  24023268.5534   24023273.8114
  22255505.031     8985787.30149   7082358.98849  22255503.3774   22255511.2124
  20692551.021    -8326546.38849  -6475421.06149  20692551.8254   20692556.6144
  22577949.239   -10806475.70549  -8212409.96849  22577951.2314   22577956.7204
  22710798.561   -15992670.78949 -12450260.49849  22710799.8754   22710806.4754
 96  5 15  2 34 30.0000000  0  8 28 23 22  3  6 17 26 21
  22331145.832   -11303178.280 9  -8554355.688 9  22331146.578    22331152.242
  20703922.645   -19196096.63149 -14939960.53549  20703923.1154   20703928.2554
  23524755.921    -3632932.28149  -2820964.86949  23524756.7644   23524763.5944
  24004568.876    -8030681.75359  -1454489.71049  24004570.4414   24004576.4094
  22273509.684     9080415.51549   7156095.27749  22273511.4314   22273518.6814
  20693900.164    -8319448.55449  -6469890.26449  20693902.0484   20693907.2864
  22585100.391   -10768902.61849  -8183132.27449  22585101.2174   22585106.0404
  22697493.567   -16062590.64949 -12504743.45549  22697495.0264   22697501.1094
 96  5 15  2 35  0.0000000  0  8 28 23 22  3  6 17 26 21
  22316011.198   -11382714.262 9  -8616331.754 9  22316011.515    22316016.950
  20702607.251   -19203004.63649 -14945343.37749  20702608.7264   20702613.5854
  23532378.198    -3592884.99149  -2789759.20449  23532378.2574   23532384.1974
  23985906.339    -8128754.20459  -1530909.80159  23985906.8534   23985913.2764
  22291580.095     9175369.80949   7230085.61449  22291581.2414   22291587.9934
  20695296.440    -8312113.41249  -6464174.53649  20695297.9154   20695303.1624
  22592355.172   -10730779.54149  -8153426.03349  22592356.6334   22592360.5964
  22684237.290   -16132249.75149 -12559023.23749  22684239.1124   22684244.8034
 96  5 15  2 35 30.0000000  0  8 28 23 22  3  6 17 26 21
  22300936.499   -11461932.619 9  -8678060.325 9  22300937.146    22300941.735
  20701368.343   -19209516.56849 -14950417.59149  20701369.3364   20701374.4734
  23540077.293    -3552418.18949  -2758226.64649  23540078.7734   23540085.3504
  23967276.493    -8226656.08449  -1607196.96949  23967278.1324   23967282.3214
  22309707.077     9270631.26349   7304315.31249  22309709.1264   22309716.0184
  20696737.756    -8304542.57349  -6458275.15649  20696738.7064   20696743.8584
  22599712.661   -10692108.77749  -8123293.01449  22599714.9644   22599719.8174
  22671033.850   -16201641.03349 -12613094.32149  22671034.0284   22671040.2454
 96  5 15  2 36  0.0000000  0  8 28 23 22  3  6 17 26 21
  22285921.179   -11540835.558 9  -8739543.119 9  22285922.062    22285926.781
  20700204.808   -19215631.46149 -14955182.42949  20700205.7124   20700211.1454
  23547858.546    -3511533.01749  -2726368.08149  23547859.5044   23547866.1164
  23948674.251    -8324405.76549  -1683365.51949  23948675.9534   23948682.7434
  22327893.153     9366191.04249   7378777.47749  22327893.0324   22327899.2064
  20698222.159    -8296736.90949  -6452192.81049  20698223.5964   20698229.3254
  22607175.065   -10652897.71949  -8092738.98049  22607176.8934   22607182.3114
  22657881.544   -16270750.87649 -12666946.09949  22657882.4724   22657888.1364
 96  5 15  2 36 30.0000000  0  8 28 23 22  3  6 17 26 21
  22270965.941   -11619421.537 9  -8800778.927 9  22270967.548    22270972.143
  20699118.487   -19221341.30849 -14959631.65149  20699118.9374   20699124.3444
  23555717.397    -3470237.55249  -2694189.83649  23555718.1154   23555723.7594
  23930100.872    -8422016.46149  -1759425.76449  23930101.3384   23930107.1204
  22346134.115     9462059.67749   7453480.28649  22346136.2684   22346141.8074
  20699750.968    -8288699.93949  -6445930.22649  20699752.8544   20699758.8214
  22614736.991   -10613156.96849  -8061772.14949  22614739.7944   22614744.1964
  22644787.887   -16339557.74549 -12720561.79549  22644788.8324   22644794.6114
 96  5 15  2 37  0.0000000  0  8 28 23 22  3  6 17 26 21
  22256077.244   -11697671.845 9  -8861753.173 9  22256077.305    22256081.642
  20698115.317   -19226611.95649 -14963738.63649  20698116.3274   20698121.6064
  23563660.325    -3428498.15249  -2661665.64749  23563659.9374   23563665.9934
  23911553.208    -8519476.67349  -1835368.77349  23911555.5754   23911561.0434
  22364440.974     9558256.31149   7528438.66649  22364441.5244   22364447.4864
  20701330.836    -8280400.78049  -6439463.35849  20701332.7624   20701338.1674
  22622407.186   -10572862.49149  -8030373.83249  22622407.4704   22622411.8914
  22631755.372   -16408040.97849 -12773925.31749  22631757.0054   22631763.3084
 96  5 15  2 37 30.0000000  0  8 28 23 22  3  6 17 26 21
  22241247.363   -11775593.902 9  -8922471.633 9  22241249.161    22241253.935
  20697191.346   -19231462.25449 -14967518.08049  20697193.1534   20697198.6634
  23571686.730    -3386319.23549  -2628798.97049  23571687.0214   23571691.9434
  23893036.940    -8616796.33049  -1911202.24849  23893036.2164   23893041.9354
  22382809.499     9654779.33249   7603651.36149  22382809.4474   22382816.4954
  20702957.096    -8271852.96449  -6432802.73549  20702959.2064   20702964.7754
  22630176.154   -10532016.08349  -7998545.44549  22630179.8364   22630185.0414
  22618780.197   -16476223.99949 -12827054.90149  22618782.3574   22618788.7344
 96  5 15  2 38  0.0000000  0  8 28 23 22  3  6 17 26 21
  22226483.764   -11853185.310 9  -8982932.443 9  22226484.203    22226489.135
  20696344.844   -19235911.13749 -14970984.73549  20696345.9394   20696352.1484
  23579791.754    -3343721.41049  -2595605.86549  23579792.0104   23579798.0114
  23874547.035    -8713965.50949  -1986918.46349  23874545.2264   23874551.6584
  22401238.083     9751634.07849   7679122.57049  22401239.5464   22401247.8374
  20704630.087    -8263065.13549  -6425955.08849  20704631.2634   20704636.6764
  22638059.226   -10490609.46349  -7966280.50149  22638059.2284   22638064.1374
  22605860.148   -16544119.69449 -12879960.59049  22605862.1624   22605868.5284
 96  5 15  2 38 30.0000000  0  8 28 23 22  3  6 17 26 21
  22211783.693   -11930434.413 9  -9043126.519 9  22211783.952    22211789.260
  20695577.906   -19239942.66049 -14974126.16549  20695579.1634   20695584.9884
  23587976.850    -3300705.96249  -2562087.35949  23587978.5204   23587983.9044
  23856089.337    -8810955.45249  -2062494.99149  23856088.9854   23856095.8114
  22419735.905     9848835.29049   7754863.73749  22419737.3384   22419743.5084
  20706351.574    -8254022.98349  -6418909.25749  20706352.2344   20706357.6104
  22646044.767   -10448631.21849  -7933570.13849  22646047.6624   22646052.4864
  22592992.327   -16611743.85149 -12932654.69749  22592993.5334   22593000.3094
 96  5 15  2 39  0.0000000  0  8 28 23 22  3  6 17 26 21
  22197147.454   -12007341.626 9  -9103054.177 9  22197148.633    22197154.050
  20694888.649   -19243560.05749 -14976944.90449  20694890.5134   20694896.6264
  23596239.826    -3257282.36349  -2528250.81649  23596240.4404   23596246.1544
  23837667.007    -8907746.85649  -2137916.80549  23837669.3364   23837676.1644
  22438300.996     9946380.27949   7830872.80449  22438300.4664   22438305.8234
  20708118.796    -8244728.82849  -6411667.06049  20708120.4874   20708126.1024
  22654142.488   -10406078.75549  -7900412.34349  22654145.1504   22654149.6014
  22580168.555   -16679129.64749 -12985163.06949  22580170.6524   22580177.1414
 96  5 15  2 39 30.0000000  0  8 28 23 22  3  6 17 26 21
  22182580.024   -12083900.541 9  -9162710.456 9  22182580.521    22182585.039
  20694279.851   -19246763.83649 -14979441.34749  20694281.3024   20694286.8094
  23604575.901    -3213470.94349  -2494112.06749  23604577.2404   23604583.1884
  23819291.256    -9004322.42849  -2213170.45149  23819293.3944   23819298.5464
  22456928.036    10044279.54849   7907157.93149  22456929.4934   22456935.0154
  20709935.463    -8235182.58449  -6404228.43549  20709937.0904   20709942.3434
  22662352.641   -10362939.43949  -7866797.26949  22662353.9584   22662358.7484
  22567391.355   -16746282.49949 -13037489.91449  22567391.4304   22567398.5894
 96  5 15  2 40  0.0000000  0  8 28 23 22  3  6 17 26 21
  22168075.240   -12160119.356 9  -9222101.728 9  22168076.429    22168080.931
  20693746.016   -19249569.43249 -14981627.51749  20693747.1444   20693753.0014
  23612987.980    -3169276.21149  -2459674.63749  23612988.0674   23612994.6914
  23800954.583    -9100678.56949  -2288253.12149  23800955.6294   23800960.3874
  22475620.744    10142513.35749   7983703.72949  22475622.3604   22475628.6654
  20711798.801    -8225390.06149  -6396597.90549  20711800.4744   20711806.0364
  22670671.369   -10319217.33349  -7832728.10249  22670673.4834   22670679.3584
  22554654.323   -16813206.76149 -13089638.65249  22554655.7044   22554663.2654
 96  5 15  2 40 30.0000000  0  8 28 23 22  3  6 17 26 21
  22153637.744   -12235988.372 9  -9281220.429 9  22153638.655    22153643.346
  20693288.083   -19251974.54049 -14983501.62549  20693289.2774   20693295.4804
  23621474.480    -3124679.65449  -2424924.09249  23621474.3174   23621480.8714
  23782661.603    -9196809.25049  -2363160.12349  23782664.3254   23782668.5654
  22494376.904    10241077.60949   8060507.04049  22494377.6604   22494384.6004
  20713710.079    -8215345.26949  -6388770.79849  20713711.7594   20713717.5824
  22679100.260   -10274922.16249  -7798212.38949  22679102.8074   22679108.1914
  22541964.770   -16879889.45449 -13141599.15949  22541966.9534   22541973.9624
 96  5 15  2 41  0.0000000  0  8 28 23 22  3  6 17 26 21
  22139266.314   -12311509.201 9  -9340067.820 9  22139267.631    22139272.467
  20692904.104   -19253994.85449 -14985075.88349  20692905.3734   20692911.1074
  23630034.933    -3079689.45249  -2389866.81649  23630036.6404   23630042.3584
  23764411.919    -9292718.74049  -2437894.72049  23764413.3714   23764418.4774
  22513192.236    10339960.59349   8137558.71849  22513194.5504   22513201.5144
  20715668.959    -8205052.71749  -6380750.62249  20715670.6044   20715675.6804
  22687637.155   -10230060.69049  -7763255.38949  22687639.4124   22687644.8644
  22529325.767   -16946316.32949 -13193360.32349  22529326.7644   22529333.3674
 96  5 15  2 41 30.0000000  0  8 28 23 22  3  6 17 26 21
  22124962.196   -12386680.321 9  -9398642.715 9  22124963.137    22124967.784
  20692588.878   -19255646.03349 -14986362.51249  20692591.0344   20692596.6404
  23638672.932    -3034309.71349  -2354505.99449  23638671.7944   23638678.7364
  23746202.729    -9388423.33349  -2512469.69849  23746199.9864   23746206.5394
  22532065.310    10439144.46449   8214844.83249  22532067.9964   22532075.4044
  20717675.566    -8194510.84449  -6372536.18349  20717676.9824   20717682.5004
  22696279.928   -10184654.53249  -7727873.94649  22696280.4184   22696285.5394
  22516736.466   -17012469.56749 -13244908.25449  22516737.6924   22516744.0084
 96  5 15  2 42  0.0000000  0  8 28 23 22  3  6 17 26 21
  22110724.200   -12461503.344 9  -9456946.365 9  22110724.555    22110729.292
  20692342.558   -19256943.57949 -14987373.57849  20692344.3614   20692349.2814
  23647380.349    -2988547.31549  -2318847.01949  23647380.4204   23647386.0814
  23728024.933    -9483936.47149  -2586895.47749  23728024.6744   23728032.2764
  22550994.292    10538613.44049   8292353.12649  22550996.5204   22551002.8604
  20719726.064    -8183734.21749  -6364138.81549  20719727.5634   20719733.2124
  22705014.523   -10138738.20349  -7692095.00349  22705017.8314   22705023.1394
  22504199.415   -17078352.77449 -13296245.77449  22504200.6364   22504207.2654
 96  5 15  2 42 30.0000000  0  8 28 23 22  3  6 17 26 21
  22096553.746   -12535966.728 9  -9514969.778 9  22096554.706    22096559.231
  20692167.076   -19257870.19949 -14988095.60349  20692167.9504   20692173.2034
  23656161.232    -2942402.97849  -2282890.41549  23656160.9354   23656167.5514
  23709877.668    -9579255.42549  -2661169.96049  23709884.9914   23709893.2604
  22569981.344    10638384.90249   8370097.15249  22569982.4244   22569989.5604
  20721822.748    -8172715.08349  -6355552.47649  20721824.4174   20721830.2154
  22713853.243   -10092307.07949  -7655914.92549  22713853.2804   22713858.9794
  22491714.976   -17143956.41649 -13347365.45449  22491716.9434   22491723.1804
 96  5 15  2 43  0.0000000  0  8 28 23 22  3  6 17 26 21
  22082451.535   -12610073.159 9  -9572715.045 9  22082452.578    22082457.570
  20692063.365   -19258416.29849 -14988521.12149  20692064.0444   20692068.9434
  23665013.842    -2895879.92349  -2246638.71149  23665013.5624   23665021.3494
  23691781.533    -9674382.60749  -2735295.02749  23691783.5574   23691790.4774
  22589024.910    10738464.06449   8448080.91849  22589027.1494   22589034.3964
  20723967.717    -8161448.05549  -6346772.97849  20723968.8174   20723974.1554
  22722783.129   -10045358.91149  -7619331.96949  22722786.8314   22722792.8314
  22479283.058   -17209287.83249 -13398273.01749  22479284.2024   22479291.3164
 96  5 15  2 43 30.0000000  0  8 28 23 22  3  6 17 26 21
  22068419.542   -12683813.575 9  -9630175.091 9  22068420.038    22068425.367
  20692032.482   -19258567.25349 -14988638.73449  20692035.2504   20692040.3214
  23673938.986    -2848974.87849  -2210089.34549  23673939.0444   23673946.7124
  23673720.608    -9769317.85349  -2809270.53549  23673718.5244   23673724.9094
  22608130.853    10838854.07849   8526306.88049  22608131.5054   22608137.8894
  20726159.323    -8149929.25649  -6337797.28049  20726160.4554   20726166.3604
  22731821.935    -9997881.82549  -7582336.86849  22731822.4124   22731828.0594
  22466903.270   -17274340.57349 -13448963.42949  22466905.0054   22466911.7654
 96  5 15  2 44  0.0000000  0  8 28 23 22  3  6 17 26 21
  22054455.092   -12757193.325 9  -9687354.098 9  22054456.321    22054461.955
  20692082.331   -19258313.17249 -14988440.73449  20692083.0534   20692088.6894
  23682938.330    -2801688.76949  -2173243.04949  23682937.5674   23682944.4074
  23655687.543    -9864049.59749  -2883087.47049  23655690.7694   23655697.5874
  22627292.680    10939549.44849   8604770.79549  22627293.5984   22627299.6884
  20728394.959    -8138174.08949  -6328637.40149  20728397.1194   20728403.1844
  22740958.591    -9949857.52849  -7544915.33949  22740960.7044   22740966.1434
  22454577.983   -17339116.18149 -13499437.89549  22454579.0054   22454585.4104
 96  5 15  2 44 30.0000000  0  8 28 23 22  3  6 17 26 21
  22040563.066   -12830200.598 9  -9744242.869 9  22040563.744    22040569.370
  20692210.847   -19257635.34049 -14987912.54449  20692212.1014   20692217.6314
  23692012.032    -2753997.84549  -2136081.32249  23692012.4324   23692018.5304
  23637703.943    -9958557.95949  -2956730.33949  23637706.2854   23637711.9154
  22646514.183    11040558.42149   8683479.10949  22646514.2894   22646521.5104
  20730681.217    -8126162.15849  -6319277.46149  20730683.2344   20730689.0004
  22750208.501    -9901255.07149  -7507043.29149  22750209.2554   22750214.4694
  22442306.562   -17403601.23149 -13549685.94549  22442308.2254   22442314.0594
 96  5 15  2 45  0.0000000  0  8 28 23 22  3  6 17 26 21
  22026742.128   -12902834.966 9  -9800841.065 9  22026741.926    22026747.534
  20692417.413   -19256548.73649 -14987065.82849  20692419.2214   20692424.5194
  23701158.826    -2705920.73649  -2098618.66749  23701161.2774   23701168.3664
  23619763.327   -10052848.15249  -3030203.23249  23619763.5864   23619769.7234
  22665787.760    11141862.09449   8762417.04849  22665791.2574   22665799.0374
  20733015.411    -8113897.91349  -6309720.91049  20733016.9864   20733023.0354
  22759565.005    -9852083.54149  -7468727.79449  22759565.8354   22759571.5124
  22430091.989   -17467795.43349 -13599707.36149  22430092.1784   22430098.4774
 96  5 15  2 45 30.0000000  0  8 28 23 22  3  6 17 26 21
  22012992.159   -12975085.812 9  -9857140.422 9  22012992.952    22012998.515
  20692698.783   -19255070.21449 -14985913.71649  20692700.4854   20692705.7814
  23710382.499    -2657459.09349  -2060856.36349  23710383.8794   23710390.5814
  23601865.360   -10146912.32249  -3103499.98449  23601864.9484   23601869.4884
  22685122.649    11243460.36249   8841584.55949  22685125.1804   22685132.9224
  20735395.970    -8101386.10049  -6299971.44249  20735397.5474   20735403.6394
  22769029.610    -9802338.83649  -7429965.69549  22769032.0134   22769038.0814
  22417932.087   -17531687.26049 -13649493.16449  22417933.6754   22417940.2584
 96  5 15  2 46  0.0000000  0  8 28 23 22  3  6 17 26 21
  21999314.504   -13046960.686 9  -9913146.799 9  21999315.573    21999321.213
  20693051.514   -19253225.13849 -14984475.98949  20693051.5134   20693057.5254
  23719676.606    -2608618.05649  -2022798.43349  23719677.3024   23719683.8814
  23584004.615   -10240747.39549  -3176618.20949  23584008.4774   23584013.9754
  22704512.853    11345345.64849   8920975.68849  22704513.3584   22704521.1644
  20737823.326    -8088631.74649  -6290032.97849  20737824.8344   20737830.6534
  22778600.197    -9752047.29549  -7390777.49549  22778603.0204   22778608.4934
  22405827.564   -17595302.90249 -13699063.75349  22405827.9754   22405834.7724
 96  5 15  2 46 30.0000000  0  8 28 23 22  3  6 17 26 21
  21985704.230   -13118481.454 9  -9968877.255 9  21985705.385    21985710.768
  20693463.429   -19251052.60449 -14982783.09649  20693464.8434   20693470.8834
  23729036.319    -2559434.66749  -1984473.73849  23729037.2814   23729042.7244
  23566187.082   -10334398.87549  -3249593.35649  23566187.2004   23566193.5484
  22723955.225    11447506.61349   9000581.61149  22723954.6174   22723962.2974
  20740295.125    -8075644.25849  -6279912.86049  20740296.2634   20740301.7744
  22788265.280    -9701265.15949  -7351207.02149  22788266.2654   22788271.1664
  22393766.546   -17658680.38849 -13748448.77149  22393767.8504   22393774.2864
 96  5 15  2 47  0.0000000  0  8 28 23 22  3  6 17 26 21
  21972167.370   -13189618.266 9 -10024308.524 9  21972168.678    21972174.525
  20693944.763   -19248529.70749 -14980817.19049  20693944.9134   20693950.9384
  23738463.600    -2509898.57249  -1945874.18549  23738463.4324   23738470.8374
  23548405.572   -10427837.01649  -3322402.29149  23548405.5834   23548411.6284
  22743449.624    11549964.67049   9080419.05649  22743451.7614   22743458.6844
  20742814.035    -8062402.16949  -6269594.35649  20742816.4584   20742821.7484
  22798023.919    -9649980.19349  -7311244.71349  22798025.2434   22798030.4544
  22381755.462   -17721797.98449 -13797631.27249  22381757.0534   22381763.7174
 96  5 15  2 47 30.0000000  0  8 28 23 22  3  6 17 26 21
  21958705.131   -13260367.811 9 -10079438.030 9  21958705.669    21958710.847
  20694494.244   -19245640.67449 -14978565.98949  20694494.6704   20694500.0704
  23747960.581    -2459985.66949  -1906981.03949  23747962.0164   23747968.2624
  23530667.343   -10521040.44549  -3395028.32649  23530669.8564   23530676.0984
  22763006.097    11652727.75149   9160494.16849  22763007.0334   22763013.5994
  20745385.083    -8048897.80349  -6259071.48149  20745386.2984   20745391.6004
  22807877.993    -9598192.24249  -7270890.46449  22807878.9704   22807885.6664
  22369792.460   -17784659.31349 -13846614.09049  22369794.3924   22369801.4134
 96  5 15  2 48  0.0000000  0  8 28 23 22  3  6 17 26 21
  21945315.693   -13330724.737 9 -10134261.594 9  21945316.762    21945321.986
  20695115.851   -19242362.57949 -14976011.61849  20695118.4344   20695124.2644
  23757532.315    -2409692.51249  -1867791.58649  23757533.2804   23757538.5904
  23512978.929   -10614000.00749  -3467464.32449  23512979.7384   23512985.9124
  22782620.950    11755803.57849   9240812.99049  22782621.3444   22782627.9004
  20748008.029    -8035115.46149  -6248332.00249  20748008.7604   20748014.6604
  22817829.639    -9545895.57349  -7230139.80849  22817831.5514   22817837.5894
  22357880.374   -17847264.14049 -13895397.04049  22357881.7074   22357888.6434
 96  5 15  2 48 30.0000000  0  8 28 23 22  3  6 17 26 21
  21932002.757   -13400686.217 9 -10188777.019 9  21932003.621    21932009.640
  20695817.499   -19238687.13649 -14973147.62649  20695818.1334   20695823.6384
  23767173.559    -2359028.93249  -1828313.49249  23767173.8614   23767180.5954
  23495336.449   -10706712.63349  -3539707.92449  23495338.0054   23495343.0734
  22802290.343    11859186.38049   9321370.97349  22802293.8704   22802299.6744
  20750681.291    -8021060.03149  -6237379.72549  20750683.2424   20750688.8764
  22827881.801    -9493073.65749  -7188979.87449  22827883.7534   22827889.3904
  22346020.539   -17909589.83949 -13943962.48949  22346021.2614   22346028.7284
 96  5 15  2 49  0.0000000  0  8 28 23 22  3  6 17 26 21
  21918762.233   -13470268.512 9 -10242996.971 9  21918762.908    21918767.817
  20696588.501   -19234633.85249 -14969989.20849  20696589.2614   20696595.1114
  23776882.873    -2308013.71149  -1788561.37149  23776881.4094   23776889.2114
  23477741.078   -10799172.76849  -3611754.77949  23477742.9244   23477749.1774
  22822013.376    11962832.22849   9402133.97449  22822016.1934   22822023.0664
  20753404.217    -8006756.20749  -6226233.90449  20753405.7854   20753410.6004
  22838034.075    -9439729.60249  -7147413.05149  22838034.6884   22838039.6634
  22334210.041   -17971643.21849 -13992315.74749  22334212.3944   22334220.0664
 96  5 15  2 49 30.0000000  0  8 28 23 22  3  6 17 26 21
  21905594.839   -13539460.478 9 -10296912.784 9  21905595.968    21905601.107
  20697430.614   -19230204.90749 -14966538.07149  20697432.0644   20697437.7724
  23786658.105    -2256629.58449  -1748521.80949  23786659.9774   23786665.8274
  23460196.135   -10891376.76549  -3683602.00149  23460198.2454   23460202.9524
  22841789.175    12066755.19449   9483112.91449  22841792.2014   22841799.3544
  20756176.414    -7992191.03249  -6214884.42349  20756177.2464   20756182.5554
  22848285.370    -9385851.12449  -7105429.81749  22848287.3014   22848292.5994
  22322457.845   -18033408.48349 -14040444.50249  22322459.0484   22322466.1784
 96  5 15  2 50  0.0000000  0  8 28 23 22  3  6 17 26 21
  21892502.955   -13608260.420 9 -10350523.115 9  21892503.933    21892509.388
  20698343.213   -19225414.48949 -14962805.26849  20698343.4914   20698349.2004
  23796506.377    -2204892.55849  -1708207.26349  23796504.3824   23796510.5614
  23442697.087   -10983335.34549  -3755258.00149  23442698.5374   23442704.2414
  22861617.312    12170940.55249   9564296.29749  22861618.4794   22861625.4734
  20758995.133    -7977371.84149  -6203337.01049  20758997.2834   20759002.7204
  22858639.098    -9331447.04349  -7063036.99749  22858640.4464   22858645.3684
  22310761.177   -18094878.29349 -14088343.02649  22310762.0354   22310768.5794
 96  5 15  2 50 30.0000000  0  8 28 23 22  3  6 17 26 21
  21879487.869   -13676659.888 9 -10403821.398 9  21879488.299    21879493.208
  20699321.715   -19220272.32849 -14958798.38249  20699322.2884   20699327.7374
  23806414.598    -2152802.50449  -1667617.62949  23806417.7224   23806423.1554
  23425244.748   -11075043.89049  -3826719.18149  23425247.1484   23425252.1194
  22881493.491    12275375.18049   9645673.90649  22881492.4914   22881499.0944
  20761863.410    -7962302.09449  -6191594.35349  20761865.0284   20761870.3874
  22869088.339    -9276528.72349  -7020243.47149  22869090.7864   22869096.1774
  22299118.244   -18156051.79749 -14136010.65049  22299120.7084   22299126.9724
 96  5 15  2 51  0.0000000  0  8 28 23 22  3  6 17 26 21
  21866547.565   -13744656.150 9 -10456805.491 9  21866548.755    21866553.733
  20700365.322   -19214782.17749 -14954520.33149  20700367.0734   20700372.3344
  23816393.400    -2100353.29449  -1626748.13349  23816397.5444   23816404.3384
  23407838.927   -11166517.55049  -3897997.36849  23407839.4454   23407844.3664
  22901411.764    12380067.79949   9727252.55749  22901414.7064   22901421.5154
  20764778.787    -7946982.86049  -6179657.27449  20764779.8384   20764785.8044
  22879634.534    -9221109.48449  -6977059.63949  22879636.0634   22879641.2564
  22287534.402   -18216936.66849 -14183453.36249  22287534.5244   22287540.8374
 96  5 15  2 51 30.0000000  0  8 28 23 22  3  6 17 26 21
  21853683.567   -13812255.565 9 -10509480.347 9  21853684.479    21853689.747
  20701478.278   -19208941.20649 -14949968.91949  20701478.2694   20701483.7714
  23826443.149    -2047566.91749  -1585615.89849  23826442.1224   23826449.2224
  23390471.367   -11257777.88749  -3969109.28849  23390473.3204   23390480.3984
  22921387.030    12485033.22749   9809043.79149  22921388.8404   22921395.6264
  20767739.758    -7931420.91749  -6167531.07849  20767741.2204   20767747.0904
  22890273.844    -9165196.00649  -6933490.69049  22890276.3894   22890281.4114
  22275999.777   -18277545.49849 -14230680.98749  22276000.8784   22276007.7704
 96  5 15  2 52  0.0000000  0  8 28 23 22  3  6 17 26 21
  21840896.318   -13879453.671 9 -10561842.496 9  21840896.989    21840902.676
  20702658.530   -19202733.55649 -14945131.77849  20702659.4594   20702665.1954
  23836549.274    -1994459.93849  -1544233.85749  23836548.7864   23836555.4894
  23373144.810   -11348821.37949  -4040052.23849  23373148.3374   23373155.2224
  22941414.344    12590280.95949   9891055.00949  22941417.3864   22941423.3004
  20770746.896    -7915618.44249  -6155217.45449  20770748.0494   20770753.7524
  22901010.555    -9108787.17449  -6889535.73849  22901011.1614   22901015.8414
  22264517.700   -18337880.68049 -14277695.38149  22264519.7514   22264526.0064
 96  5 15  2 52 30.0000000  0  8 28 23 22  3  6 17 26 21
  21828186.830   -13946238.953 9 -10613882.954 9  21828188.005    21828193.986
  20703912.802   -19196143.15749 -14939996.39549  20703913.5254   20703919.0364
  23846714.369    -1941029.21249  -1502599.53749  23846715.6844   23846722.2474
  23355867.189   -11439636.35149  -4110817.11549  23355867.2104   23355874.0394
  22961501.009    12695836.56149   9973306.11149  22961504.0904   22961510.1154
  20773801.473    -7899563.31749  -6142706.95849  20773803.1334   20773808.8174
  22911839.950    -9051864.64549  -6845180.50349  22911842.6114   22911847.5774
  22253090.608   -18397939.14149 -14324494.14649  22253091.5614   22253097.9034
 96  5 15  2 53  0.0000000  0  8 28 23 22  3  6 17 26 21
  21815554.710   -14012623.738 9 -10665611.343 9  21815555.465    21815561.433
  20705239.500   -19189170.40049 -14934563.07549  20705240.1014   20705245.8134
  23856940.419    -1887287.61149  -1460722.98149  23856942.5344   23856948.9714
  23338623.859   -11530226.18549  -4181406.55149  23338628.5394   23338634.9844
  22981646.879    12801696.08949  10055794.04349  22981648.6404   22981654.1524
  20776904.909    -7883259.10049  -6130002.36749  20776906.4484   20776911.5524
  22922772.149    -8994427.36949  -6800424.18849  22922773.0264   22922777.7794
  22241712.653   -18457727.85349 -14371082.71449  22241714.1414   22241720.5994
 96  5 15  2 53 30.0000000  0  8 28 23 22  3  6 17 26 21
  21803001.078   -14078595.435 9 -10717017.852 9  21803001.627    21803006.924
  20706641.732   -19181801.02749 -14928820.70349  20706642.7824   20706648.4604
  23867227.877    -1833223.85449  -1418595.38449  23867229.3804   23867237.1444
  23321436.025   -11620554.95049  -4251792.57649  23321439.4914   23321445.7264
  23001845.043    12907848.10249  10138509.88049  23001848.0964   23001854.4044
  20780058.331    -7866690.94849  -6117092.12249  20780059.1864   20780064.5264
  22933801.273    -8936462.59949  -6755256.83849  22933803.0414   22933808.5954
  22230388.800   -18517238.68849 -14417454.76149  22230389.2514   22230395.3994
 96  5 15  2 54  0.0000000  0  8 28 23 22  3  6 17 26 21
  21790525.572   -14144151.077 9 -10768100.164 9  21790526.844    21790532.606
  20708115.784   -19174051.06249 -14922781.76349  20708117.1524   20708123.2214
  23877583.348    -1778816.67449  -1376200.20349  23877584.3164   23877589.6714
  23304303.540   -11710600.36849  -4321957.81549  23304305.0074   23304310.1304
  23022094.768    13014264.97849  10221432.11449  23022098.6524   23022105.0134
  20783257.967    -7849870.76649  -6103985.48049  20783259.3374   20783265.1604
  22944929.741    -8877977.65849  -6709684.14149  22944932.3944   22944937.7934
  22219116.202   -18576468.20049 -14463607.59349  22219118.1824   22219123.8414
 96  5 15  2 54 30.0000000  0  8 28 23 22  3  6 17 26 21
  21778130.392   -14209288.211 9 -10818856.360 9  21778131.674    21778137.426
  20709662.344   -19165926.12449 -14916450.63449  20709663.7484   20709669.2844
  23888003.946    -1724054.13949  -1333528.12849  23888004.8054   23888011.0344
  23287225.275   -11800350.52249  -4391892.97949  23287225.1854   23287231.7824
  23042391.014    13120916.53349  10304537.20149  23042393.7854   23042400.8594
  20786508.096    -7832791.16749  -6090676.70249  20786509.7354   20786516.0474
  22956158.861    -8818974.41949  -6663707.57149  22956160.4544   22956165.4924
  22207901.699   -18635401.80649 -14509529.84549  22207903.6424   22207909.5014
 96  5 15  2 55  0.0000000  0  8 28 23 22  3  6 17 26 21
  21765817.364   -14273996.901 9 -10869278.706 9  21765818.000    21765823.623
  20711280.635   -19157422.57849 -14909824.49549  20711282.1144   20711287.7174
  23898491.487    -1668936.62149  -1290579.44449  23898493.5004   23898500.2664
  23270203.008   -11889789.82249  -4461585.90149  23270204.8774   23270212.2774
  23062732.086    13227790.74749  10387815.81149  23062731.2534   23062738.6004
  20789808.800    -7815447.89949  -6077162.47149  20789810.3174   20789816.1224
  22967483.426    -8759454.59549  -6617328.50049  22967486.6114   22967492.0434
  22196745.361   -18694029.79149 -14555213.94849  22196747.1224   22196752.3314
 96  5 15  2 55 30.0000000  0  8 28 23 22  3  6 17 26 21
  21753584.882   -14338280.820 9 -10919370.072 9  21753585.720    21753590.922
  20712967.121   -19148563.01049 -14902920.92149  20712968.0864   20712973.6124
  23909047.507    -1613482.58949  -1247368.52549  23909045.5784   23909052.6294
  23253242.002   -11978926.10849  -4531042.71849  23253243.5274   23253249.3124
  23083107.312    13334873.47049  10471256.90949  23083108.4224   23083115.3354
  20793155.842    -7797860.38249  -6063457.92249  20793157.1444   20793162.5274
  22978907.561    -8699430.69149  -6570556.62149  22978908.6814   22978912.5724
  22185644.999   -18752363.17149 -14600668.49049  22185646.0574   22185652.1174
 96  5 15  2 56  0.0000000  0  8 28 23 22  3  6 17 26 21
  21741430.503   -14402153.462 9 -10969140.955 9  21741431.016    21741436.372
  20714715.261   -19139374.96349 -14895761.39549  20714716.5694   20714722.1154
  23919658.609    -1557720.39749  -1203917.47549  23919657.5384   23919663.8964
  23236331.850   -12067791.38249  -4600288.35449  23236332.6734   23236339.2284
  23103519.354    13442153.94149  10554852.09549  23103523.4844   23103530.7474
  20796546.827    -7780038.58049  -6049570.81649  20796548.4554   20796554.0334
  22990420.242    -8638925.31249  -6523409.58249  22990422.1484   22990427.9624
  22174596.853   -18810420.69649 -14645908.07949  22174598.2024   22174604.8624
 96  5 15  2 56 30.0000000  0  8 28 23 22  3  6 17 26 21
  21729356.681   -14465597.345 9 -11018577.740 9  21729357.717    21729363.079
  20716531.238   -19129836.09549 -14888328.50549  20716531.6154   20716537.2854
  23930322.183    -1501661.39149  -1160235.16149  23930324.9094   23930331.5174
  23219471.829   -12156384.90649  -4669322.24649  23219473.7814   23219480.6134
  23123984.678    13549667.36649  10638628.78949  23123982.4944   23123989.9664
  20799990.122    -7761944.76849  -6035471.75449  20799991.5864   20799997.6044
  23002029.633    -8577921.41649  -6475874.09649  23002030.6214   23002036.8194
  22163600.302   -18868207.78049 -14690936.94749  22163601.6004   22163608.6084
 96  5 15  2 57  0.0000000  0  8 28 23 22  3  6 17 26 21
  21717368.089   -14528601.029 9 -11067671.507 9  21717368.620    21717373.752
  20718412.609   -19119942.08649 -14880618.87649  20718414.4954   20718420.0084
  23941051.408    -1445304.04949  -1116320.38049  23941049.9514   23941055.6564
  23202667.029   -12244702.77349  -4738141.35349  23202667.6964   23202674.5144
  23144493.341    13657449.29549  10722614.71649  23144493.1204   23144500.2544
  20803486.231    -7743570.96449  -6021154.50549  20803487.7534   20803493.7684
  23013734.179    -8516409.60349  -6427942.82749  23013736.7534   23013741.9184
  22152652.420   -18925741.06749 -14735768.04549  22152653.7034   22152660.1074
 96  5 15  2 57 30.0000000  0  8 28 23 22  3  6 17 26 21
  21705461.702   -14591169.236 9 -11116425.947 9  21705462.592    21705467.440
  20720360.131   -19109708.38549 -14872644.56049  20720361.8374   20720367.2744
  23951829.955    -1388646.39949  -1072171.59249  23951831.8884   23951836.4434
  23185909.746   -12332753.50649  -4806752.27249  23185911.8914   23185918.3404
  23165051.798    13765499.29249  10806809.52249  23165053.6674   23165061.0434
  20807038.643    -7724910.57249  -6006613.93049  20807039.1584   20807044.5874
  23025537.867    -8454391.32049  -6379616.89949  23025537.9814   23025543.0014
  22141750.171   -18983028.02749 -14780407.20149  22141752.5034   22141759.0454
 96  5 15  2 58  0.0000000  0  8 28 23 22  3  6 17 26 21
  21693640.609   -14653290.537 9 -11164832.155 9  21693641.216    21693646.172
  20722375.571   -19099120.68849 -14864394.40849  20722376.6204   20722382.1674
  23962673.839    -1331672.78849  -1027776.62049  23962673.3194   23962679.4034
  23169206.970   -12420523.64049  -4875144.55749  23169209.9034   23169216.3964
  23185664.614    13873829.54249  10891222.69649  23185667.9274   23185675.0494
  20810644.895    -7705955.25749  -5991843.54049  20810646.1644   20810651.6834
  23037433.494    -8391867.06949  -6330896.69749  23037436.2994   23037440.8054
  22130896.803   -19040058.52349 -14824846.52049  22130899.3924   22130906.5714
 96  5 15  2 58 30.0000000  0  8 28 23 22  3  6 17 26 21
  21681901.317   -14714982.369 9 -11212903.709 9  21681901.630    21681906.887
  20724455.555   -19088187.53149 -14855875.06449  20724457.0054   20724462.5724
  23973569.082    -1274400.83749   -983149.14749  23973571.1004   23973578.7934
  23152558.722   -12508017.93649  -4943321.90549  23152560.3904   23152566.4024
  23206328.318    13982419.06749  10975837.92149  23206331.6774   23206339.0304
  20814302.662    -7686733.62249  -5976865.62949  20814304.0714   20814309.3834
  23049422.986    -8328863.65649  -6281803.14249  23049425.2984   23049429.9604
  22120090.182   -19096852.59349 -14869101.60649  22120091.7484   22120098.6554
 96  5 15  2 59  0.0000000  0  8 28 23 22  3  6 17 26 21
  21670245.397   -14776230.312 9 -11260629.374 9  21670246.334    21670251.493
  20726602.151   -19076906.06249 -14847084.30649  20726603.6914   20726609.1804
  23984532.773    -1216798.83149   -938264.48849  23984532.0474   23984540.2514
  23135964.784   -12595218.47249  -5011270.35649  23135966.1184   23135972.8464
  23227039.941    14091259.19549  11060648.40449  23227043.7854   23227049.9314
  20818007.353    -7667258.45549  -5961690.16649  20818009.5334   20818015.0694
  23061504.943    -8265377.00449  -6232333.03249  23061506.5964   23061510.7114
  22109336.008   -19153368.08749 -14913139.61949  22109336.5124   22109344.1494
 96  5 15  2 59 30.0000000  0  8 28 23 22  3  6 17 26 21
  21658674.226   -14837038.089 9 -11308012.053 9  21658675.127    21658680.305
  20728815.475   -19065279.30149 -14838024.48649  20728816.0454   20728821.6834
  23995556.078    -1158874.11749   -893128.37049  23995555.3864   23995562.4594
  23119427.442   -12682124.23649  -5078989.11349  23119429.2784   23119435.3164
  23247798.657    14200324.38949  11145634.23049  23247798.4994   23247804.1404
  20821759.412    -7647545.89849  -5946329.72149  20821760.4984   20821766.5334
  23073675.832    -8201418.77549  -6182495.44849  23073677.4344   23073682.0974
  22098636.160   -19209595.97149 -14956953.52649  22098637.2784   22098644.1124
 96  5 15  3  0  0.0000000  0  8 28 23 22  3  6 17 26 21
  21647187.737   -14897396.799 9 -11355044.809 9  21647189.159    21647194.302
  20731097.484   -19053285.36749 -14828678.55349  20731098.6094   20731104.0754
  24006639.421    -1100624.50249   -847739.07349  24006639.9284   24006645.8904
  23102947.082   -12768726.90849  -5146471.69549  23102949.0744   23102954.7784
  23268594.984    14309615.42849  11230796.06349  23268594.9534   23268601.7594
  20825556.034    -7627592.02749  -5930781.23249  20825557.6594   20825563.4674
  23085935.642    -8136996.01449  -6132295.89149  23085937.0314   23085941.0074
  22087992.345   -19265531.61749 -15000539.70649  22087993.6284   22087999.8684
 96  5 15  3  0 30.0000000  0  8 28 23 22  3  6 17 26 21
  21635786.913   -14957308.227 9 -11401729.033 9  21635787.731    21635793.507
  20733450.089   -19040922.90549 -14819045.46549  20733451.1634   20733456.5614
  24017781.068    -1042066.16049   -802109.21849  24017782.5744   24017790.0794
  23086525.108   -12855025.86249  -5213717.61349  23086526.8454   23086532.4894
  23289429.387    14419127.58949  11316130.17849  23289434.9684   23289442.1524
  20829400.941    -7607387.66049  -5915037.55449  20829402.6944   20829408.5034
  23098284.135    -8072103.77049  -6081730.50049  23098285.0284   23098290.7164
  22077404.778   -19321167.49649 -15043892.30249  22077406.1964   22077412.5534
 96  5 15  3  1  0.0000000  0  8 28 23 22  3  6 17 26 21
  21624470.816   -15016772.233 9 -11448064.605 9  21624472.435    21624477.809
  20735870.284   -19028205.70749 -14809135.94749  20735871.1574   20735876.7714
  24028980.026     -983216.08649   -756252.05449  24028982.0814   24028988.6084
  23070162.213   -12941017.66149  -5280724.19249  23070163.3024   23070169.3714
  23310313.704    14528863.21049  11401638.46849  23310317.4384   23310323.5864
  20833294.941    -7586924.53049  -5899092.24449  20833296.7204   20833302.4184
  23110722.860    -8006732.28949  -6030791.67349  23110725.5734   23110730.1274
  22066875.247   -19376496.97049 -15087006.13949  22066877.4634   22066883.7064
 96  5 15  3  1 30.0000000  0  8 28 23 22  3  6 17 26 21
  21613242.591   -15075780.604 9 -11494045.152 9  21613243.575    21613248.888
  20738359.841   -19015115.84449 -14798936.04849  20738361.5994   20738367.5764
  24040232.555     -924089.98549   -710179.77749  24040233.2914   24040240.2294
  23053858.158   -13026688.91249  -5347480.97549  23053861.1264   23053866.9034
  23331242.642    14638831.37049  11487327.93749  23331243.1894   23331249.3234
  20837244.051    -7566169.83449  -5882919.74649  20837245.8824   20837251.4754
  23123255.715    -7940878.58949  -5979477.08949  23123256.6394   23123261.3874
  22056405.623   -19431525.74549 -15129885.67549  22056406.0904   22056412.4084
 96  5 15  3  2  0.0000000  0  8 28 23 22  3  6 17 26 21
  21602101.567   -15134324.257 9 -11539663.585 9  21602103.565    21602108.326
  20740921.518   -19001654.61749 -14788446.78049  20740923.2624   20740929.4564
  24051538.285     -864678.89549   -663885.42949  24051537.9604   24051545.2394
  23037617.430   -13112041.72149  -5413989.63949  23037619.0684   23037624.6344
  23352217.584    14749043.44049  11573207.46249  23352216.5694   23352221.5904
  20841251.948    -7545109.29749  -5866508.93049  20841253.6084   20841259.1534
  23135876.402    -7874546.34949  -5927789.64449  23135878.5584   23135883.1214
  22045991.595   -19486243.00449 -15172522.47049  22045993.4554   22045999.9044
 96  5 15  3  2 30.0000000  0  8 28 23 22  3  6 17 26 21
  21591051.184   -15192405.705 9 -11584921.861 9  21591050.967    21591055.800
  20743549.063   -18987851.62549 -14777691.20049  20743549.6754   20743555.9184
  24062899.400     -804985.05549   -617370.75749  24062897.8484   24062904.1014
  23021435.924   -13197080.63349  -5480253.70549  23021436.7204   23021442.1144
  23373231.997    14859491.60449  11659270.93449  23373232.5844   23373239.4934
  20845315.193    -7523759.32449  -5849872.55449  20845316.4894   20845322.2274
  23148591.865    -7807722.99649  -5875719.49549  23148594.8944   23148599.4824
  22035638.964   -19540649.88949 -15214917.40949  22035640.4734   22035646.2854
 96  5 15  3  3  0.0000000  0  8 28 23 22  3  6 17 26 21
  21580084.441   -15250027.237 9 -11629821.752 9  21580085.735    21580090.879
  20746236.264   -18973724.37049 -14766682.95549  20746238.4564   20746244.3624
  24074312.489     -744997.70549   -570627.40449  24074312.9804   24074319.2284
  23005309.848   -13281819.12849  -5546283.69049  23005310.7344   23005316.9704
  23394289.667    14970161.18249  11745506.96849  23394293.2154   23394296.5514
  20849430.657    -7502131.71149  -5833019.85149  20849432.3114   20849437.5954
  23161400.462    -7740426.87249  -5823280.96449  23161401.2444   23161405.4324
  22025342.187   -19594759.55549 -15257080.74049  22025343.3254   22025349.0024
 96  5 15  3  3 30.0000000  0  8 28 23 22  3  6 17 26 21
  21569205.716   -15307193.928 9 -11674367.220 9  21569207.390    21569212.422
  20748988.367   -18959272.58449 -14755421.82649  20748988.4494   20748994.4474
  24085785.449     -684706.68449   -523647.43949  24085785.5134   24085792.5174
  22989237.557   -13366273.82149  -5612092.52449  22989238.9134   22989245.5494
  23415386.582    15081035.56649  11831902.60049  23415389.5764   23415396.2604
  20853595.529    -7480246.15749  -5815966.15849  20853597.0054   20853601.9974
  23174292.901    -7672677.20849  -5770489.01449  23174293.7914   23174298.3774
  22015098.971   -19648583.78249 -15299021.65949  22015100.3324   22015106.8674
 96  5 15  3  4  0.0000000  0  8 28 23 22  3  6 17 26 21
  21558416.170   -15363896.219 9 -11718550.819 9  21558417.137    21558422.209
  20751797.808   -18944498.61249 -14743909.63749  20751799.6304   20751805.9924
  24097316.408     -624100.31749   -476421.71849  24097319.7224   24097326.6494
  22973224.303   -13450430.83449  -5677669.40049  22973223.3994   22973230.6314
  23436524.496    15192114.66049  11918457.73349  23436527.9244   23436534.4094
  20857805.661    -7458120.37949  -5798725.27549  20857807.2194   20857812.9394
  23187270.712    -7604464.83549  -5717336.53749  23187273.1514   23187279.0904
  22004911.188   -19702123.07649 -15340740.56249  22004912.4074   22004918.3704
 96  5 15  3  4 30.0000000  0  8 28 23 22  3  6 17 26 21
  21547715.543   -15420128.566 9 -11762368.230 9  21547716.554    21547721.559
  20754671.771   -18929397.22449 -14732142.32349  20754673.2784   20754679.3304
  24108910.901     -563191.30949   -428960.18849  24108910.6934   24108917.3114
  22957268.638   -13534267.25449  -5742996.46349  22957270.3684   22957277.0864
  23457703.874    15303386.72849  12005163.22649  23457704.2824   23457709.7494
  20862062.220    -7435751.08849  -5781294.64849  20862063.6064   20862069.3954
  23200343.090    -7535774.98149  -5663811.98249  23200344.0624   23200349.9944
  21994774.955   -19755381.69049 -15382240.75549  21994777.3844   21994783.0954
 96  5 15  3  5  0.0000000  0  8 28 23 22  3  6 17 26 21
  21537101.233   -15475906.645 9 -11805831.655 9  21537102.407    21537107.442
  20757608.715   -18913967.25349 -14720118.97349  20757609.7394   20757615.4094
  24120554.678     -502010.41149   -381286.79649  24120552.2374   24120559.6314
  22941374.544   -13617788.80849  -5808078.17549  22941377.2694   22941383.8934
  23478910.066    15414829.36349  12092001.63549  23478911.2624   23478917.7024
  20866363.097    -7413149.18049  -5763682.75949  20866365.0724   20866370.5144
  23213497.414    -7466645.57549  -5609944.93349  23213500.4814   23213505.1704
  21984690.838   -19808382.73449 -15423540.23549  21984691.6944   21984697.8984
 96  5 15  3  5 30.0000000  0  8 28 23 22  3  6 17 26 21
  21526574.649   -15531220.792 9 -11848933.578 9  21526576.437    21526581.704
  20760608.192   -18898199.99749 -14707832.79549  20760610.3214   20760615.8364
  24132244.617     -440565.38249   -333407.62949  24132244.5074   24132252.5444
  22925545.613   -13700978.18449  -5872901.06849  22925545.9454   22925552.8014
  23500148.500    15526445.42149  12178975.19249  23500149.6514   23500158.0764
  20870710.335    -7390306.56049  -5745883.30449  20870711.6204   20870717.4854
  23226739.066    -7397057.00149  -5555720.07249  23226741.5014   23226747.4304
  21974653.281   -19861127.54949 -15464640.06149  21974654.5304   21974661.2264
 96  5 15  3  6  0.0000000  0  8 28 23 22  3  6 17 26 21
  21516139.749   -15586061.081 9 -11891666.258 9  21516140.641    21516145.524
  20763672.966   -18882097.87649 -14695285.68549  20763674.1644   20763680.1194
  24143987.178     -378863.80549   -285328.53549  24143987.1034   24143993.8374
  22909778.075   -13783827.51949  -5937458.97149  22909780.9694   22909787.4404
  23521423.815    15638248.15449  12266094.19749  23521425.5324   23521433.5404
  20875106.481    -7367199.55949  -5727877.82849  20875108.5184   20875114.1344
  23240075.809    -7326988.50449  -5501121.24249  23240076.3144   23240081.4254
  21964664.947   -19913613.24449 -15505537.97449  21964667.0134   21964673.6504
 96  5 15  3  6 30.0000000  0  8 28 23 22  3  6 17 26 21
  21505792.990   -15640429.058 9 -11934030.905 9  21505794.623    21505799.792
  20766799.352   -18865669.42549 -14682484.29749  20766800.6514   20766806.4424
  24155772.520     -316907.43049   -237050.86249  24155775.3114   24155783.9634
  22894076.040   -13866347.02649  -6001759.86349  22894078.2204   22894084.8734
  23542737.080    15750252.96549  12353370.66449  23542738.0504   23542746.2704
  20879558.232    -7343810.29149  -5709652.40449  20879560.0264   20879565.4424
  23253497.765    -7256445.01449  -5446152.30649  23253500.4814   23253505.7654
  21954726.696   -19965838.20349 -15546232.71349  21954728.8224   21954735.0264
 96  5 15  3  7  0.0000000  0  9 28 23 22  1  3  6 17 26 21
  21495540.276   -15694311.863 9 -11976017.489 9  21495540.907    21495546.379
  20769990.077   -18848903.06749 -14669419.60149  20769991.1884   20769996.7024
  24167615.207     -254685.08449   -188565.93749  24167617.0124   24167624.7854
  24786994.064    -4253996.19159  -3291760.08859  24786995.3514   24787000.4314
  22878437.533   -13948537.48749  -6065804.34849  22878438.1164   22878444.2354
  23564094.604    15862484.78349  12440824.01649  23564096.2854   23564103.0484
  20884065.804    -7320124.96249  -5691196.28749  20884067.1054   20884072.6794
  23267013.334    -7185428.68649  -5390814.89549  23267014.1454   23267019.2744
  21944841.224   -20017791.81149 -15586716.00449  21944842.6324   21944848.9094
 96  5 15  3  7 30.0000000  0  9 28 23 22  1  3  6 17 26 21
  21485379.299   -15747710.062 9 -12017626.466 9  21485379.935    21485385.192
  20773243.874   -18831806.22249 -14656097.37849  20773245.1354   20773249.8464
  24179503.974     -192203.76549   -139879.18049  24179506.5444   24179514.5554
  24766578.615    -4361289.38049  -3375365.09149  24766579.0094   24766583.0864
  22862857.318   -14030408.59849  -6129600.00149  22862859.8044   22862864.2414
  23585497.833    15974943.85249  12528454.44549  23585497.2964   23585503.8934
  20888628.226    -7296142.76749  -5672508.83749  20888630.3244   20888635.9044
  23280614.767    -7113946.03349  -5335114.13949  23280616.6474   23280620.7304
  21935007.566   -20069467.03449 -15626982.37349  21935009.4694   21935015.3204
 96  5 15  3  8  0.0000000  0  9 28 23 22  1  3  6 17 26 21
  21475311.002   -15800615.019 9 -12058851.107 9  21475312.318    21475317.238
  20776561.860   -18814366.76149 -14642508.18649  20776563.3794   20776568.5844
  24191447.066     -129464.27949    -90991.25549  24191446.3054   24191453.7204
  24746164.596    -4468570.11749  -3458960.41549  24746161.2104   24746167.9234
  22847341.218   -14111947.74649  -6193136.98749  22847343.1654   22847347.9664
  23606944.263    16087645.87749  12616274.18549  23606943.6504   23606949.1424
  20893249.202    -7271859.55349  -5653586.84649  20893251.4194   20893257.1304
  23294303.246    -7042013.47949  -5279062.81149  23294304.9874   23294309.8694
  21925230.753   -20120841.13449 -15667014.10349  21925232.9644   21925239.2184
 96  5 15  3  8 30.0000000  0  9 28 23 22  1  3  6 17 26 21
  21465338.352   -15853024.664 9 -12099689.786 9  21465339.292    21465344.631
  20779946.702   -18796581.64349 -14628649.65449  20779947.7814   20779952.9214
  24203432.712      -66480.20149    -41912.77049  24203431.3884   24203438.3504
  24725742.863    -4575857.35149  -3542560.79749  24725744.5484   24725753.0134
  22831892.233   -14193142.86149  -6256405.88549  22831892.1374   22831896.5744
  23628436.641    16200580.30249  12704275.01049  23628434.8114   23628441.2394
  20897924.829    -7247293.67549  -5634444.59549  20897926.3544   20897931.7004
  23308070.322    -6969661.46249  -5222684.60749  23308072.7274   23308077.2294
  21915513.058   -20171910.56849 -15706808.43649  21915514.6914   21915520.7154
 96  5 15  3  9  0.0000000  0  9 28 23 22  1  3  6 17 26 21
  21455457.067   -15904950.330 9 -12140151.331 9  21455458.241    21455463.658
  20783396.175   -18778455.80949 -14614525.62649  20783396.9454   20783401.8714
  24215455.666       -3270.40749      7341.59149  24215457.8334   24215466.5164
  24705318.056    -4683175.36949  -3626185.15849  24705322.7254   24705332.4864
  22816501.464   -14274011.49349  -6319420.38549  22816503.0204   22816507.8644
  23649957.123    16313714.24249  12792431.30949  23649963.0414   23649970.2434
  20902648.258    -7222474.24549  -5615104.78049  20902649.5014   20902654.6374
  23321916.034    -6896910.21349  -5165995.32949  23321917.0844   23321922.9274
  21905851.429   -20222681.52349 -15746370.19649  21905853.4264   21905859.5154
 96  5 15  3  9 30.0000000  0  9 28 23 22  1  3  6 17 26 21
  21445667.179   -15956393.575 9 -12180236.970 9  21445668.622    21445674.182
  20786906.997   -18759998.62049 -14600143.40349  20786908.9694   20786914.3894
  24227528.280       60161.75349     56769.24949  24227529.0874   24227537.6574
  24684892.170    -4790512.27749  -3709824.25849  24684895.4264   24684905.3874
  22801176.439   -14354547.56049  -6382175.73249  22801177.3704   22801182.7764
  23671527.575    16427037.52049  12880735.17149  23671527.1044   23671534.7874
  20907417.082    -7197411.86249  -5595575.64549  20907418.1104   20907423.5384
  23335833.318    -6823759.65649  -5108994.91649  23335836.9794   23335842.5644
  21896246.455   -20273158.04149 -15785702.50849  21896248.0094   21896254.2304
 96  5 15  3 10  0.0000000  0  9 28 23 22  1  3  6 17 26 21
  21435971.997   -16007347.992 9 -12219941.697 9  21435972.481    21435977.656
  20790480.640   -18741224.09749 -14585513.90449  20790481.6634   20790487.1244
  24239638.600      123822.24049    106374.81449  24239644.3814   24239651.6364
  24664465.064    -4897854.68749  -3793467.64149  24664469.0804   24664478.5464
  22785916.131   -14434739.53449  -6444662.97049  22785918.0034   22785922.2744
  23693123.497    16540547.22349  12969184.28449  23693127.8234   23693134.4744
  20912231.507    -7172108.28749  -5575858.57649  20912233.1454   20912239.0344
  23349831.897    -6750204.99149  -5051679.59849  23349834.2824   23349840.1514
  21886695.326   -20323346.23749 -15824810.15949  21886697.4594   21886703.9964
 96  5 15  3 10 30.0000000  0  9 28 23 22  1  3  6 17 26 21
  21426367.551   -16057812.807 9 -12259264.922 9  21426369.109    21426374.584
  20794110.573   -18722145.90949 -14570647.78649  20794112.4704   20794117.9594
  24251802.767      187717.21149    156163.07949  24251802.7984   24251810.5004
  24644042.298    -5005196.47449  -3877110.55049  24644043.4434   24644053.7854
  22770721.066   -14514588.81549  -6506883.18649  22770722.7174   22770728.0244
  23714756.958    16654219.61749  13057760.18149  23714759.1044   23714765.6884
  20917094.504    -7146551.56949  -5555944.25949  20917096.7014   20917102.2654
  23363908.906    -6676230.52049  -4994037.17449  23363911.0624   23363917.1324
  21877199.549   -20373253.01849 -15863698.52949  21877200.6224   21877206.8084
 96  5 15  3 11  0.0000000  0  9 28 23 22  1  3  6 17 26 21
  21416857.119   -16107793.081 9 -12298210.584 9  21416858.324    21416863.488
  20797799.144   -18702766.65749 -14555547.06749  20797800.1634   20797805.4054
  24264006.977      251858.00049    206142.89749  24264008.5674   24264016.6144
  24623617.739    -5112536.02249  -3960751.72649  24623619.1344   24623628.0274
  22755591.988   -14594095.83449  -6568836.70049  22755592.7364   22755598.4254
  23736415.232    16768036.95649  13146449.01749  23736416.8274   23736424.3904
  20922008.197    -7120733.87949  -5535826.59649  20922009.7834   20922015.1174
  23378069.622    -6601815.02049  -4936051.07749  23378072.6154   23378077.1774
  21867755.687   -20422876.59549 -15902366.22449  21867757.3764   21867763.7284
 96  5 15  3 11 30.0000000  0  9 28 23 22  1  3  6 17 26 21
  21407442.272   -16157273.367 9 -12336766.645 9  21407442.353    21407447.931
  20801545.014   -18683079.82149 -14540206.67749  20801546.4214   20801551.9544
  24276262.991      316252.78049    256320.62849  24276262.9524   24276270.2774
  24603195.934    -5219860.08249  -4044380.82249  24603195.4944   24603202.9814
  22740531.928   -14673229.51049  -6630499.30549  22740533.6184   22740539.8154
  23758101.855    16882006.50749  13235256.46449  23758105.1174   23758111.8944
  20926973.412    -7094641.73449  -5515495.07249  20926974.6464   20926980.2264
  23392318.649    -6526943.76849  -4877709.83049  23392320.7694   23392324.3364
  21858367.609   -20472205.50549 -15940804.31349  21858369.9204   21858376.4924
 96  5 15  3 12  0.0000000  0  9 28 23 22  1  3  6 17 26 21
  21398122.570   -16206244.368 9 -12374925.856 9  21398123.601    21398129.275
  20805352.214   -18663072.34749 -14524616.43649  20805353.8014   20805359.1914
  24288566.073      380908.37649    306701.62349  24288566.5054   24288573.5334
  24582773.486    -5327173.09649  -4128001.27549  24582774.1284   24582781.2924
  22725545.549   -14751983.24849  -6691865.83949  22725547.1734   22725553.2744
  23779819.134    16996127.81549  13324182.18849  23779821.9794   23779829.3324
  20931992.742    -7068266.60049  -5494943.02749  20931994.1834   20931999.4574
  23406652.602    -6451610.33549  -4819008.46749  23406655.2674   23406659.7684
  21849040.465   -20521226.69649 -15979002.61849  21849041.8064   21849048.6084
 96  5 15  3 12 30.0000000  0  9 28 23 22  1  3  6 17 26 21
  21388899.791   -16254709.128 9 -12412690.601 9  21388901.108    21388906.210
  20809224.316   -18642727.45149 -14508763.26849  20809225.4734   20809230.3154
  24300916.474      445817.63949    357280.26449  24300918.2044   24300924.8924
  24562352.909    -5434477.50349  -4211615.03149  24562354.8474   24562362.9204
  22710630.779   -14830362.08049  -6752940.26849  22710632.3814   22710639.0894
  23801565.004    17110398.63249  13413224.40149  23801566.7444   23801572.9254
  20937067.273    -7041598.72649  -5474162.86649  20937068.9744   20937073.7364
  23421077.060    -6375809.34849  -4759942.78749  23421078.8724   23421083.4374
  21839769.659   -20569946.07349 -16016965.73949  21839770.8114   21839777.0484
 96  5 15  3 13  0.0000000  0  9 28 23 22  1  3  6 17 26 21
  21379772.154   -16302674.644 9 -12450066.329 9  21379773.620    21379778.816
  20813157.478   -18622049.92749 -14492650.90649  20813160.1174   20813164.9574
  24313313.426      510965.17149    408044.56949  24313314.6994   24313321.4864
  24541933.462    -5541774.71549  -4295223.19249  24541937.5204   24541943.1384
  22695784.300   -14908375.61949  -6813730.02649  22695786.2184   22695793.4034
  23823335.707    17224833.48649  13502394.45349  23823343.0304   23823350.5904
  20942192.545    -7014664.58349  -5453175.22549  20942194.2794   20942199.6004
  23435583.093    -6299569.16249  -4700534.87349  23435587.6184   23435592.0354
  21830552.399   -20618384.71449 -16054710.10349  21830553.5934   21830559.3264
 96  5 15  3 13 30.0000000  0  9 28 23 22  1  3  6 17 26 21
  21370742.628   -16350127.532 9 -12487042.609 9  21370743.273    21370748.716
  20817155.383   -18601048.78949 -14476286.38349  20817156.6754   20817161.4774
  24325755.304      576349.19649    458993.15049  24325756.8284   24325763.9784
  24521520.506    -5649053.48849  -4378816.97049  24521522.2174   24521530.6154
  22681011.030   -14986017.38549  -6874230.09449  22681011.8704   22681018.3104
  23845154.565    17339460.71449  13591714.38849  23845156.0164   23845163.3874
  20947370.766    -6987453.48849  -5431971.77649  20947372.0944   20947377.5134
  23450175.678    -6222903.09049  -4640795.09249  23450176.1434   23450181.6944
  21821387.374   -20666546.50349 -16092238.75449  21821388.5504   21821394.3694
 96  5 15  3 14  0.0000000  0  9 28 23 22  1  3  6 17 26 21
  21361808.176   -16397071.166 9 -12523622.059 9  21361810.288    21361815.772
  20821209.781   -18579744.46349 -14459685.60849  20821210.5964   20821215.4354
  24338241.960      641962.40649    510120.31249  24338243.1594   24338251.2464
  24501113.428    -5756309.62649  -4462393.10349  24501111.5104   24501119.3284
  22666303.575   -15063297.30249  -6934448.18549  22666305.9294   22666312.0044
  23866996.837    17454277.73549  13681182.24049  23867004.3444   23867012.0824
  20952604.145    -6959952.28449  -5410542.25849  20952605.3464   20952611.1574
  23464841.557    -6145817.90649  -4580728.74949  23464844.5604   23464850.6844
  21812272.020   -20714449.11649 -16129565.44549  21812272.9584   21812278.6974
 96  5 15  3 14 30.0000000  0  9 28 23 22  1  3  6 17 26 21
  21352977.235   -16443492.948 9 -12559794.886 9  21352977.179    21352982.108
  20825320.886   -18558139.62949 -14442850.67449  20825321.9344   20825327.0244
  24350770.580      707810.11349    561430.20349  24350773.5684   24350781.2894
  24480709.371    -5863523.21049  -4545936.10249  24480709.9614   24480717.5024
  22651670.312   -15140200.84449  -6994373.00449  22651672.3934   22651678.2434
  23888888.957    17569293.10049  13770804.62549  23888891.6464   23888898.2074
  20957894.755    -6932145.15549  -5388874.35149  20957896.7034   20957902.7244
  23479591.715    -6068312.77449  -4520335.16049  23479593.5164   23479599.0744
  21803206.457   -20762087.65749 -16166686.36149  21803207.7704   21803213.5664
 96  5 15  3 15  0.0000000  0  9 28 23 22  1  3  6 17 26 21
  21344238.744   -16489404.271 9 -12595569.944 9  21344240.233    21344245.503
  20829484.235   -18536264.75249 -14425805.30749  20829484.3984   20829489.9434
  24363343.197      773874.87849    612909.22149  24363346.5144   24363352.5094
  24460308.723    -5970704.39049  -4629453.84049  24460312.9534   24460322.1224
  22637105.666   -15216736.60849  -7054011.24349  22637107.6254   22637113.9634
  23910809.597    17684486.65849  13860565.85249  23910812.1534   23910818.3314
  20963237.227    -6904068.92949  -5366996.76249  20963239.3494   20963245.1344
  23494414.326    -5990424.49849  -4459643.00949  23494416.1464   23494419.2814
  21794190.704   -20809466.65049 -16203605.03049  21794191.9974   21794197.3264
 96  5 15  3 15 30.0000000  0  9 28 23 22  1  3  6 17 26 21
  21335601.328   -16534792.072 9 -12630937.060 9  21335603.052    21335608.228
  20833697.724   -18514108.24849 -14408540.49649  20833699.9014   20833705.8004
  24375957.948      840161.96149    664561.49549  24375958.9644   24375966.5214
  24439922.176    -6077841.75149  -4712937.44049  24439925.4804   24439934.2364
  22622615.475   -15292888.25749  -7113350.18749  22622616.8814   22622622.5494
  23932763.629    17799846.76649  13950456.85049  23932763.8164   23932770.2724
  20968635.552    -6875702.49149  -5344893.04249  20968637.2494   20968642.8034
  23509311.572    -5912128.90149  -4398633.44049  23509314.1934   23509319.3244
  21785228.036   -20856567.62749 -16240307.05749  21785228.7684   21785234.2624
 96  5 15  3 16  0.0000000  0  9 28 23 22  1  3  6 17 26 21
  21327064.702   -16579657.996 9 -12665897.514 9  21327065.390    21327070.744
  20837972.618   -18491650.73849 -14391041.13649  20837973.8994   20837979.4364
  24388614.029      906665.41449    716382.34649  24388614.1124   24388623.4124
  24419545.264    -6184928.84149  -4796381.87949  24419548.0744   24419555.9784
  22608197.002   -15368656.04449  -7172390.00349  22608198.8084   22608205.1984
  23954744.060    17915357.95949  14040465.58649  23954744.7874   23954751.2084
  20974088.778    -6847049.97349  -5322566.41049  20974090.1124   20974095.2124
  23524289.866    -5833420.44749  -4337302.17749  23524292.3364   23524297.8204
  21776318.423   -20903385.00949 -16276788.11549  21776319.3364   21776325.3124
 96  5 15  3 16 30.0000000  0  9 28 23 22  1  3  6 17 26 21
  21318626.360   -16623996.183 9 -12700446.756 9  21318628.386    21318633.519
  20842308.823   -18468865.08649 -14373286.07349  20842309.8854   20842315.3864
  24401309.536      973388.30449    768374.21549  24401311.7384   24401318.8774
  24399179.411    -6291960.74049  -4879783.31049  24399181.2964   24399187.2374
  22593852.945   -15444028.20649  -7231121.54849  22593855.6474   22593861.5504
  23976750.543    18031020.12649  14130591.93949  23976754.9224   23976760.9734
  20979591.715    -6818130.58549  -5300031.83949  20979593.1954   20979598.7614
  23539346.584    -5754295.63449  -4275646.47549  23539349.3004   23539353.8474
  21767465.384   -20949906.80949 -16313038.85149  21767466.6854   21767472.5634
 96  5 15  3 17  0.0000000  0  9 28 23 22  1  3  6 17 26 21
  21310290.758   -16667804.649 9 -12734583.228 9  21310291.656    21310296.861
  20846708.268   -18445745.01949 -14355270.43949  20846709.6744   20846715.0364
  24414047.266     1040320.97149    820529.50849  24414050.0864   24414056.0324
  24378825.420    -6398938.01549  -4963142.16249  24378823.7424   24378831.2224
  22579587.931   -15519000.60149  -7289541.58649  22579588.8204   22579594.5254
  23998791.630    18146836.64549  14220838.57549  23998794.3404   23998799.7844
  20985144.840    -6788947.02149  -5277291.40149  20985146.2314   20985152.1364
  23554485.050    -5674746.67949  -4213660.28649  23554486.8484   23554492.4884
  21758667.559   -20996132.19449 -16349058.60449  21758670.2484   21758676.0804
 96  5 15  3 17 30.0000000  0  9 28 23 22  1  3  6 17 26 21
  21302052.580   -16711095.312 9 -12768316.212 9  21302053.747    21302059.313
  20851170.348   -18422298.38449 -14337000.33249  20851171.2584   20851176.4724
  24426823.159     1107447.80849    872836.09649  24426822.9964   24426829.2394
  24358474.570    -6505869.75649  -5046465.53549  24358476.5374   24358483.3404
  22565392.777   -15593590.43949  -7347663.52949  22565394.9924   22565400.7414
  24020860.889    18262792.60149  14311193.88249  24020859.9594   24020866.1434
  20990750.947    -6759488.57349  -5254336.76049  20990752.4404   20990757.7684
  23569703.938    -5594772.76349  -4151342.96049  23569705.4264   23569711.6764
  21749927.101   -21042074.90049 -16384858.08749  21749928.1594   21749933.6114
 96  5 15  3 18  0.0000000  0  9 28 23 22  1  3  6 17 26 21
  21293914.668   -16753858.143 9 -12801637.898 9  21293916.312    21293921.776
  20855693.644   -18398525.28449 -14318475.83649  20855695.0674   20855700.3634
  24439632.909     1174773.90049    925297.96849  24439634.4104   24439641.4694
  24338134.962    -6612750.50149  -5129749.18949  24338136.6184   24338144.6754
  22551275.407   -15667785.89949  -7405478.18149  22551276.5254   22551281.6524
  24042953.481    18378899.02449  14401666.45649  24042955.3344   24042961.0744
  20996409.272    -6729753.92849  -5231166.90749  20996410.7174   20996416.3904
  23585002.601    -5514380.09849  -4088699.33849  23585003.9584   23585008.6784
  21741240.258   -21087721.89849 -16420427.15049  21741241.4764   21741247.4614
 96  5 15  3 18 30.0000000  0  9 28 23 22  1  3  6 17 26 21
  21285878.639   -16796087.869 9 -12834544.174 9  21285880.190    21285885.418
  20860276.524   -18374443.57249 -14299710.86349  20860277.8494   20860282.8504
  24452480.455     1242288.94549    977907.06249  24452482.2724   24452487.7854
  24317806.701    -6719586.17249  -5212997.71449  24317806.9854   24317814.8524
  22537231.617   -15741583.44749  -7462982.75149  22537233.3434   22537239.2784
  24065080.354    18495160.47949  14492259.80449  24065079.5564   24065084.6734
  21002120.590    -6699734.92149  -5207775.47149  21002123.1244   21002128.8434
  23600377.093    -5433576.93949  -4025735.84849  23600380.2614   23600385.6854
  21732609.883   -21133072.30449 -16455765.10649  21732611.3694   21732617.9614
 96  5 15  3 19  0.0000000  0  9 28 23 22  1  3  6 17 26 21
  21277943.727   -16837784.626 9 -12867035.144 9  21277945.313    21277951.181
  20864914.383   -18350074.74549 -14280722.17049  20864915.0474   20864919.9824
  24465361.131     1309983.34049   1030655.93749  24465362.3494   24465370.3264
  24297483.412    -6826380.74249  -5296214.19549  24297483.9994   24297490.9354
  22523262.890   -15814988.71249  -7520181.64649  22523264.4454   22523270.2564
  24087231.903    18611570.88949  14582969.21749  24087231.9794   24087236.9654
  21007892.057    -6669411.93349  -5184147.15449  21007893.3744   21007898.7694
  23615830.816    -5352377.49949  -3962463.55149  23615832.5934   23615836.4114
  21724036.897   -21178126.15549 -16490871.97749  21724037.8474   21724044.3664
 96  5 15  3 19 30.0000000  0  9 28 23 22  1  3  6 17 26 21
  21270112.128   -16878943.266 9 -12899106.804 9  21270113.409    21270118.605
  20869605.994   -18325420.93149 -14261511.40649  20869606.6534   20869611.4574
  24478279.719     1377867.67449   1083552.80649  24478281.7444   24478289.2174
  24277168.921    -6933134.59449  -5379398.98749  24277169.6154   24277176.8404
  22509370.371   -15887991.37149  -7577066.82049  22509372.7104   22509378.1424
  24109403.218    18728123.91349  14673789.77749  24109409.6984   24109416.4064
  21013719.633    -6638786.09649  -5160282.86049  21013721.4584   21013726.6874
  23631354.468    -5270790.04249  -3898888.91449  23631357.6634   23631362.6214
  21715521.788   -21222872.05449 -16525738.88649  21715522.7004   21715529.3914
 96  5 15  3 20  0.0000000  0  9 28 23 22  1  3  6 17 26 21
  21262382.150   -16919563.987 9 -12930759.312 9  21262383.655    21262388.782
  20874346.601   -18300498.52549 -14242091.34849  20874348.9604   20874354.0924
  24491234.639     1445933.91749   1136591.42549  24491234.3164   24491242.3574
  24256861.350    -7039854.54249  -5462557.35349  24256860.1264   24256868.1894
  22495557.217   -15960583.32349  -7633631.95949  22495558.4574   22495564.4314
  24131612.148    18844820.77149  14764722.41249  24131615.5914   24131623.3274
  21019602.209    -6607876.44249  -5136197.41249  21019603.6834   21019608.9394
  23646954.596    -5188825.94649  -3835020.80249  23646955.5984   23646959.4584
  21707064.076   -21267313.84149 -16560368.82949  21707065.8184   21707072.2634
 96  5 15  3 20 30.0000000  0  9 28 23 22  1  3  6 17 26 21
  21254755.303   -16959641.054 9 -12961988.193 9  21254756.884    21254761.883
  20879143.193   -18275300.75249 -14222456.71849  20879144.1234   20879149.3194
  24504223.781     1514191.31949   1189778.98749  24504222.6994   24504230.5164
  24236561.116    -7146527.64949  -5545679.22549  24236562.0314   24236569.6594
  22481821.125   -16032760.39449  -7689873.81149  22481823.6024   22481829.3634
  24153845.436    18961656.25649  14855763.07449  24153849.2004   24153856.4224
  21025538.207    -6576677.83449  -5111886.79449  21025539.6654   21025545.8904
  23662625.250    -5106471.31249  -3770848.35749  23662626.5394   23662631.2374
  21698662.769   -21311459.28349 -16594767.85449  21698665.2244   21698671.0884
 96  5 15  3 21  0.0000000  0  9 28 23 22  1  3  6 17 26 21
  21247231.386   -16999184.719 9 -12992801.438 9  21247232.165    21247236.880
  20883989.685   -18249829.54049 -14202609.01949  20883990.7884   20883996.2904
  24517250.753     1582648.26749   1243122.04949  24517249.4394   24517258.1734
  24216271.096    -7253160.96249  -5628770.07849  24216269.8704   24216276.9324
  22468165.076   -16104524.50749  -7745793.88849  22468167.1914   22468173.0734
  24176108.963    19078610.85549  14946896.54149  24176105.6434   24176112.5394
  21031524.637    -6545215.16349  -5087370.41849  21031526.7974   21031533.0274
  23678368.130    -5023735.96549  -3706379.26549  23678370.5204   23678375.3984
  21690317.148   -21355319.50849 -16628944.62849  21690319.0544   21690324.4474
 96  5 15  3 21 30.0000000  0  9 28 23 22  1  3  6 17 26 21
  21239808.393   -17038190.560 9 -13023195.591 9  21239809.536    21239814.578
  20888890.484   -18224071.34049 -14182537.69149  20888892.0484   20888897.7764
  24530316.201     1651308.36349   1296623.41749  24530315.9794   24530323.6634
  24195986.353    -7359743.41449  -5711821.30449  24195989.1954   24195994.8324
  22454589.960   -16175862.46349  -7801381.88449  22454592.0474   22454598.2604
  24198389.405    19195684.87249  15038123.09049  24198384.6074   24198389.9134
  21037562.620    -6513494.21349  -5062652.79249  21037564.1994   21037569.7294
  23694187.402    -4940606.66649  -3641603.20049  23694190.1424   23694194.2884
  21682023.903   -21398896.93349 -16662901.04449  21682026.3944   21682032.0664
 96  5 15  3 22  0.0000000  0  9 28 23 22  1  3  6 17 26 21
  21232489.878   -17076649.248 9 -13053163.389 9  21232490.813    21232496.220
  20893850.083   -18198013.70349 -14162233.04449  20893851.0794   20893856.4934
  24543419.389     1720173.24849   1350284.33749  24543420.0324   24543428.3174
  24175721.533    -7466255.31549  -5794817.55449  24175720.4754   24175727.0364
  22441096.681   -16246770.17249  -7856634.63449  22441098.8654   22441104.6454
  24220685.212    19312881.65849  15129445.28849  24220683.6154   24220693.3424
  21043653.317    -6481487.24449  -5037712.29649  21043654.2214   21043660.0074
  23710083.146    -4857072.64949  -3576511.77149  23710085.0504   23710089.8204
  21673784.331   -21442201.37849 -16696644.74049  21673786.1264   21673791.7104
 96  5 15  3 22 30.0000000  0  9 28 23 22  1  3  6 17 26 21
  21225279.993   -17114541.462 9 -13082689.782 9  21225280.446    21225285.294
  20898873.087   -18171617.31149 -14141664.42749  20898874.0674   20898879.5624
  24556568.785     1789263.67149   1404121.03249  24556567.4594   24556576.0584
  24155470.631    -7572663.64049  -5877733.10349  24155471.7474   24155477.9904
  22427687.660   -16317238.24149  -7911544.81649  22427689.6724   22427695.1804
  24243007.552    19430207.25149  15220867.84649  24243011.2524   24243018.3514
  21049803.745    -6449162.76549  -5012524.36649  21049805.5064   21049811.1374
  23726058.566    -4773123.64749  -3511096.97049  23726060.8804   23726065.5594
  21665598.050   -21485218.27449 -16730164.37249  21665600.1324   21665606.0254
 96  5 15  3 23  0.0000000  0  9 28 23 22  1  3  6 17 26 21
  21218171.875   -17151889.238 9 -13111791.947 9  21218173.466    21218178.024
  20903955.727   -18144904.39649 -14120849.17049  20903957.4244   20903962.9294
  24569747.542     1858539.69849   1458102.34249  24569749.6494   24569756.7734
  24135237.428    -7678992.32649  -5960586.59549  24135238.3974   24135244.7734
  22414358.050   -16387292.28449  -7966132.37049  22414358.9744   22414364.7964
  24265354.500    19547650.52349  15312382.08949  24265358.2234   24265366.9274
  21056012.290    -6416539.01849  -4987103.25549  21056013.8544   21056019.1804
  23742105.000    -4688794.07349  -3445385.63249  23742107.2144   23742113.8914
  21657466.242   -21527953.35649 -16763464.41049  21657467.7274   21657473.8084
 96  5 15  3 23 30.0000000  0  9 28 23 22  1  3  6 17 26 21
  21211172.650   -17188672.843 9 -13140454.493 9  21211173.772    21211178.757
  20909101.267   -18117863.77149 -14099778.55449  20909102.6944   20909108.2244
  24582964.781     1927996.16049   1512224.22749  24582967.1944   24582972.0324
  24115025.437    -7785211.48749  -6043354.76349  24115024.8144   24115032.3424
  22401105.668   -16456926.30849  -8020392.63549  22401107.5614   22401113.1954
  24287733.580    19665231.92949  15404003.95549  24287733.1754   24287742.1214
  21062282.543    -6383585.87649  -4961425.46649  21062284.2714   21062289.9164
  23758227.888    -4604070.51249  -3379367.28349  23758229.6114   23758234.5034
  21649391.951   -21570383.17549 -16796526.57749  21649393.5834   21649399.4904
 96  5 15  3 24  0.0000000  0  9 28 23 22  1  3  6 17 26 21
  21204278.660   -17224904.483 9 -13168686.944 9  21204279.101    21204283.853
  20914305.634   -18090513.89849 -14078466.96649  20914307.5414   20914312.9214
  24596217.170     1997619.04349   1566475.82549  24596215.7954   24596222.1954
  24094826.834    -7891333.80549  -6126047.46349  24094829.8344   24094837.5894
  22387929.786   -16526162.17649  -8074342.64849  22387932.5524   22387938.1324
  24310131.082    19782944.82449  15495728.29749  24310133.9044   24310142.8234
  21068612.211    -6350323.98749  -4935507.11249  21068613.4794   21068619.4084
  23774419.891    -4518984.64249  -3313066.61849  23774421.2384   23774426.0844
  21641374.206   -21612521.14649 -16829361.32849  21641375.0104   21641380.9724
 96  5 15  3 24 30.0000000  0  9 28 23 22  1  3  6 17 26 21
  21197486.648   -17260589.870 9 -13196493.725 9  21197488.300    21197493.277
  20919569.350   -18062864.53849 -14056922.01149  20919569.2904   20919574.5224
  24609494.152     2067389.19949   1620842.14649  24609492.9534   24609497.8704
  24074652.291    -7997368.26949  -6208671.71249  24074651.9124   24074660.0974
  22374830.712   -16595007.54749  -8127988.39049  22374832.2234   22374837.7474
  24332559.417    19900786.64049  15587553.10849  24332559.3924   24332567.0814
  21074992.375    -6316795.91649  -4909381.34849  21074993.8854   21074999.6554
  23790676.471    -4433554.41049  -3246497.60149  23790678.8234   23790683.4294
  21633409.453   -21654369.52249 -16861970.43249  21633411.6184   21633417.9484
 96  5 15  3 25  0.0000000  0  9 28 23 22  1  3  6 17 26 21
  21190803.324   -17295717.010 9 -13223865.527 9  21190804.088    21190808.421
  20924886.798   -18034916.09349 -14035143.99949  20924887.7804   20924893.2154
  24622795.324     2137303.27249   1675320.63049  24622797.6464   24622803.1174
  24054489.648    -8103311.82949  -6291225.09549  24054491.5724   24054499.9074
  22361810.460   -16663432.16249  -8181306.27049  22361811.6264   22361817.1274
  24355011.100    20018769.40849  15679487.76449  24355011.3314   24355018.9434
  21081423.914    -6282996.64649  -4883044.24649  21081425.9904   21081431.3714
  23807000.526    -4347773.72649  -3179655.52649  23807002.2944   23807006.8414
  21625504.574   -21695912.21149 -16894341.33649  21625506.1794   21625512.4524
 96  5 15  3 25 30.0000000  0  9 28 23 22  1  3  6 17 26 21
  21184224.522   -17330288.017 9 -13250803.973 9  21184225.349    21184230.155
  20930261.580   -18006672.04049 -14013135.64949  20930262.2944   20930267.6714
  24636125.897     2207360.52249   1729910.68449  24636128.2124   24636135.5344
  24034347.359    -8209167.94749  -6373710.37649  24034347.5394   24034355.5274
  22348870.700   -16731429.65849  -8234291.32749  22348871.7634   22348877.3824
  24377482.176    20136867.10249  15771512.01049  24377485.2364   24377492.4294
  21087906.151    -6248930.07749  -4856498.85649  21087908.4584   21087913.6484
  23823390.457    -4261649.52249  -3112545.74649  23823391.3024   23823395.3024
  21617653.160   -21737172.06049 -16926491.83849  21617654.6194   21617660.7994
 96  5 15  3 26  0.0000000  0  9 28 23 22  1  3  6 17 26 21
  21177753.787   -17364290.289 9 -13277299.247 9  21177754.633    21177759.922
  20935693.560   -17978120.08649 -13990887.36849  20935695.8334   20935701.0694
  24649490.947     2277579.90249   1784627.06749  24649490.3594   24649497.8274
  24014219.599    -8314931.77949  -6456123.72449  24014221.8614   24014229.1494
  22336017.257   -16798968.39649  -8286918.89749  22336018.9714   22336025.1904
  24399981.577    20255079.22449  15863625.36449  24399979.8944   24399986.5674
  21094442.485    -6214588.60449  -4829739.25349  21094443.4874   21094448.8164
  23839845.752    -4175170.94449  -3045159.83349  23839847.9074   23839852.3494
  21609855.965   -21778143.97049 -16958417.97849  21609857.6164   21609863.8074
 96  5 15  3 26 30.0000000  0  9 28 23 22  1  3  6 17 26 21
  21171392.344   -17397720.683 9 -13303348.908 9  21171393.506    21171398.176
  20941185.727   -17949269.63549 -13968406.49349  20941185.7254   20941191.0304
  24662883.666     2347957.46449   1839466.72149  24662883.1624   24662890.4194
  23994110.698    -8420602.54449  -6538464.57449  23994113.9374   23994121.1894
  22323253.672   -16866038.17649  -8339181.04249  22323255.7514   22323262.7144
  24422492.186    20373397.21949  15955821.23349  24422495.0144   24422501.5984
  21101031.508    -6179960.82549  -4802756.57149  21101032.9484   21101038.4994
  23856369.704    -4088331.37749  -2977492.65249  23856371.8854   23856376.5104
  21602116.297   -21818817.19949 -16990111.38749  21602117.9694   21602124.1654
 96  5 15  3 27  0.0000000  0  9 28 23 22  1  3  6 17 26 21
  21165137.819   -17430589.743 9 -13328961.167 9  21165138.518    21165143.518
  20946726.844   -17920149.60249 -13945715.55749  20946726.8464   20946732.4074
  24676304.997     2418492.28249   1894428.91349  24676304.5434   24676313.5544
  23974020.862    -8526194.79449  -6620744.22449  23974020.5744   23974027.1324
  22310579.029   -16932650.15549  -8391086.46949  22310580.5104   22310586.3984
  24445023.356    20491795.77449  16048079.87449  24445025.2364   24445032.1154
  21107678.976    -6145028.05149  -4775536.22649  21107680.4874   21107685.8444
  23872962.911    -4001135.88549  -2909548.10249  23872965.3084   23872969.8184
  21594433.439   -21859197.28249 -17021576.36849  21594433.8794   21594439.9104
 96  5 15  3 27 30.0000000  0  9 28 23 22  1  3  6 17 26 21
  21158990.089   -17462889.692 9 -13354129.954 9  21158991.785    21158996.971
  20952318.446   -17890757.96449 -13922812.98249  20952319.9804   20952325.1484
  24689762.648     2489205.77149   1949530.31949  24689762.1974   24689771.3324
  23953940.707    -8631699.59649  -6702955.73949  23953943.3644   23953949.5954
  22297988.601   -16998807.98149  -8442638.02649  22297990.8594   22297996.8784
  24467574.546    20610287.26949  16140410.90949  24467573.3584   24467579.4614
  21114384.602    -6109790.07849  -4748078.08249  21114386.1604   21114391.3924
  23889627.424    -3913566.06549  -2841311.90249  23889628.8974   23889633.3834
  21586802.839   -21899289.63049 -17052817.13049  21586804.4574   21586810.5784
 96  5 15  3 28  0.0000000  0  9 28 23 22  1  3  6 17 26 21
  21152953.645   -17494615.836 9 -13378851.630 9  21152954.875    21152959.554
  20957963.146   -17861096.10449 -13899699.83649  20957964.3984   20957969.2634
  24703252.269     2560100.08449   2004772.63549  24703253.1104   24703261.7914
  23933885.129    -8737104.31049  -6785089.25949  23933885.9934   23933892.1174
  22285485.891   -17064509.49749  -8493834.00549  22285488.0904   22285494.5594
  24490136.067    20728891.16649  16232829.52949  24490143.2394   24490147.9344
  21121148.638    -6074246.70649  -4720381.96349  21121149.8594   21121154.9974
  23906364.405    -3825613.77349  -2772777.64749  23906365.3884   23906370.7034
  21579231.167   -21939081.48849 -17083823.74749  21579232.8094   21579238.6604
 96  5 15  3 28 30.0000000  0  9 28 23 22  1  3  6 17 26 21
  21147024.178   -17525775.231 9 -13403131.675 9  21147025.168    21147029.949
  20963657.739   -17831174.65549 -13876384.41349  20963658.1824   20963663.5094
  24716773.366     2631150.58349   2060136.64049  24716773.1574   24716780.4674
  23913848.993    -8842407.02349  -6867143.29549  23913847.3394   23913853.3724
  22273067.220   -17129773.59149  -8544689.15049  22273068.4124   22273074.4854
  24512729.701    20847599.07049  16325329.20049  24512733.1194   24512736.8924
  21127968.761    -6038399.48649  -4692449.01849  21127970.6434   21127976.5664
  23923172.363    -3737283.65849  -2703948.98749  23923174.9074   23923179.3124
  21571713.521   -21978589.34449 -17114609.06049  21571714.5124   21571720.6704
 96  5 15  3 29  0.0000000  0  9 28 23 22  1  3  6 17 26 21
  21141203.962   -17556358.595 9 -13426962.877 9  21141205.339    21141210.250
  20969405.316   -17800965.12849 -13852844.51049  20969407.2124   20969412.3854
  24730319.530     2702354.15349   2115619.93649  24730321.0764   24730330.1634
  23893827.665    -8947599.72549  -6949111.60749  23893829.0544   23893836.2304
  22260733.247   -17194584.60149  -8595191.23149  22260735.8144   22260741.4424
  24535340.267    20966413.27349  16417911.71549  24535341.5214   24535346.7314
  21134851.583    -6002235.11849  -4664268.98049  21134853.0404   21134858.3434
  23940055.515    -3648560.83649  -2634814.30649  23940057.7774   23940063.1474
  21564246.018   -22017826.04449 -17145183.09849  21564247.6464   21564254.5084
 96  5 15  3 29 30.0000000  0  9 28 23 22  1  3  6 17 26 21
  21135495.936   -17586354.958 9 -13450336.663 9  21135497.173    21135502.299
  20975213.900   -17770452.80349 -13829068.66149  20975213.8944   20975218.8944
  24743896.862     2773702.98149   2171216.41649  24743898.7784   24743908.6764
  23873833.370    -9052660.12749  -7030976.85049  23873836.6044   23873843.0334
  22248491.042   -17258923.29249  -8645325.26349  22248492.5764   22248498.3104
  24557973.842    21085351.07449  16510590.51949  24557974.9584   24557978.4034
  21141792.735    -5965758.25549  -4635845.47949  21141794.4694   21141799.3184
  23957014.051    -3559448.68149  -2565376.25349  23957015.1674   23957019.8394
  21556831.882   -22056787.40949 -17175542.58049  21556833.9004   21556840.0424
 96  5 15  3 30  0.0000000  0  9 28 23 22  1  3  6 17 26 21
  21129894.871   -17615788.277 9 -13473271.716 9  21129896.173    21129901.319
  20981069.214   -17739676.47649 -13805087.10349  20981070.3254   20981075.4024
  24757496.718     2845149.01049   2226888.64949  24757496.4234   24757503.5144
  23853864.300    -9157608.75749  -7112754.99349  23853865.5424   23853873.2334
  22236332.371   -17322809.91449  -8695107.03049  22236335.0234   22236340.6574
  24580613.646    21204369.34349  16603332.02049  24580621.8844   24580627.1344
  21148790.852    -5928980.16249  -4607187.24249  21148792.8754   21148797.9924
  23974035.394    -3469993.82149  -2495671.17849  23974037.5314   23974041.8604
  21549466.908   -22095498.40249 -17205706.95549  21549467.5644   21549473.5154
 96  5 15  3 30 30.0000000  0  9 28 23 22  1  3  6 17 26 21
  21124403.440   -17644646.879 9 -13495758.940 9  21124404.685    21124409.615
  20986977.009   -17708630.45449 -13780895.39549  20986977.7904   20986983.2134
  24771111.573     2916698.26149   2282641.26849  24771111.1924   24771119.5464
  23833919.169    -9262433.66049  -7194436.72449  23833918.2354   23833926.2754
  22224264.603   -17386230.50449  -8744525.65649  22224266.9584   22224272.0604
  24603286.906    21323472.51049  16696139.74149  24603286.7804   24603291.7974
  21155848.447    -5891895.78149  -4578290.31649  21155849.7064   21155855.3694
  23991122.507    -3380198.02149  -2425700.42749  23991124.5474   23991130.0714
  21542147.606   -22133952.26349 -17235670.98149  21542149.8294   21542155.7314
 96  5 15  3 31  0.0000000  0  9 28 23 22  1  3  6 17 26 21
  21119023.309   -17672919.613 9 -13517789.651 9  21119024.787    21119029.548
  20992936.050   -17677311.75049 -13756491.21249  20992937.6924   20992943.0064
  24784745.269     2988375.45049   2338493.60149  24784748.8504   24784758.4494
  23813990.952    -9367129.55549  -7276017.93949  23813994.8974   23814004.4394
  22212288.129   -17449168.07649  -8793567.91849  22212290.1354   22212294.9904
  24625967.058    21442674.12649  16789024.16849  24625970.7704   24625975.2074
  21162960.330    -5854518.55649  -4549165.21349  21162962.4644   21162968.4564
  24008272.648    -3290073.00649  -2355473.15749  24008275.0414   24008280.1794
  21534883.023   -22172131.20149 -17265420.78049  21534884.9404   21534890.3924
 96  5 15  3 31 30.0000000  0  9 28 23 22  1  3  6 17 26 21
  21113752.464   -17700616.095 9 -13539371.329 9  21113753.933    21113759.247
  20998941.635   -17645752.69749 -13731899.74249  20998943.3464   20998948.4684
  24798414.443     3060188.61549   2394451.90049  24798415.8064   24798424.3544
  23794094.760    -9471702.11649  -7357503.05749  23794094.4184   23794102.7014
  22200400.748   -17511644.18849  -8842250.59549  22200402.1614   22200406.7554
  24648666.877    21561965.94149  16881978.87649  24648671.5324   24648676.8314
  21170124.401    -5816872.70849  -4519830.78549  21170126.1344   21170131.4324
  24025481.915    -3199641.26949  -2285006.90249  24025484.1584   24025489.5914
  21527671.301   -22210023.18249 -17294946.97949  21527673.9354   21527679.5164
 96  5 15  3 32  0.0000000  0  9 28 23 22  1  3  6 17 26 21
  21108592.008   -17727736.862 9 -13560504.392 9  21108593.109    21108598.284
  21004995.356   -17613942.82349 -13707112.82849  21004996.1964   21005001.4174
  24812111.930     3132149.91349   2450525.63349  24812111.5934   24812117.8834
  23774215.613    -9576157.12149  -7438896.55249  23774217.2724   23774225.5624
  22188597.905   -17573660.45349  -8890574.93849  22188600.3334   22188605.3244
  24671383.645    21681338.94249  16974996.85949  24671388.0554   24671393.4884
  21177338.625    -5778958.14549  -4490286.97449  21177340.9234   21177346.0944
  24042750.485    -3108891.43249  -2214292.76549  24042753.2654   24042758.9264
  21520516.674   -22247627.67049 -17324249.15749  21520518.2354   21520524.0514
 96  5 15  3 32 30.0000000  0  9 28 23 22  1  3  6 17 26 21
  21103542.691   -17754271.052 9 -13581180.379 9  21103544.019    21103549.358
  21011098.781   -17581864.31849 -13682116.58649  21011100.3304   21011105.8094
  24825836.939     3204286.41349   2506735.85749  24825838.4544   24825845.4314
  23754361.504    -9680490.11649  -7520194.98949  23754363.8004   23754371.7094
  22176886.425   -17635209.13949  -8938534.93249  22176888.1174   22176893.4954
  24694125.797    21800806.28449  17068088.33649  24694122.5394   24694128.7394
  21184604.009    -5740781.00649  -4460538.56049  21184605.8174   21184611.1444
  24060085.407    -3017804.02349  -2143315.56749  24060087.0284   24060091.0614
  21513418.663   -22284925.91249 -17353312.69649  21513420.1724   21513426.2854
 96  5 15  3 33  0.0000000  0  9 28 23 22  1  3  6 17 26 21
  21098603.294   -17780231.912 9 -13601409.623 9  21098603.989    21098608.720
  21017251.842   -17549537.63949 -13656926.96849  21017252.1454   21017257.2144
  24839593.789     3276580.82649   2563069.14349  24839594.9364   24839603.6834
  23734528.900    -9784715.31849  -7601409.42249  23734530.7804   23734536.6174
  22165257.807   -17696316.26949  -8986150.86049  22165259.8554   22165265.2724
  24716867.045    21920344.68549  17161235.19949  24716869.5494   24716875.2394
  21191919.294    -5702345.05849  -4430588.46949  21191920.4154   21191925.6804
  24077476.396    -2926405.64149  -2072096.07049  24077479.2284   24077484.3754
  21506378.450   -22321925.35949 -17382143.42049  21506379.4214   21506385.3334
 96  5 15  3 33 30.0000000  0  9 28 23 22  1  3  6 17 26 21
  21093774.222   -17805604.093 9 -13621180.164 9  21093775.977    21093780.681
  21023452.521   -17516943.91149 -13631529.24949  21023455.0514   21023459.6434
  24853381.424     3349024.02849   2619518.37149  24853379.8654   24853388.8404
  23714721.452    -9888800.90749  -7682515.06049  23714724.2194   23714731.7894
  22153715.670   -17756971.22749  -9033414.45549  22153717.7164   22153723.0834
  24739630.102    22039958.83449  17254441.08249  24739631.5804   24739637.7144
  21199290.861    -5663608.80649  -4400404.38449  21199291.4834   21199297.0254
  24094932.375    -2834677.43949  -2000619.55949  24094933.0934   24094939.6154
  21499399.352   -22358603.11149 -17410723.46649  21499400.3104   21499405.9424
 96  5 15  3 34  0.0000000  0  8 28 23 22  1  3 17 26 21
  21089058.340   -17830384.071 9 -13640489.251 9  21089060.086    21089065.143
  21029707.098   -17484078.32749 -13605919.69649  21029708.6794   21029713.6914
  24867183.391     3421586.10349   2676060.25049  24867189.5654   24867197.3514
  23694947.520    -9992736.89049  -7763504.13149  23694947.0084   23694952.7494
  22142262.598   -17817161.98949  -9080316.35149  22142264.0134   22142269.0664
  21206721.013    -5624556.68849  -4369974.15249  21206722.4184   21206728.0704
  24112450.651    -2742625.16749  -1928890.53349  24112450.9964   24112456.2854
  21492477.879   -22394971.73649 -17439062.63649  21492479.3444   21492485.4454
 96  5 15  3 34 30.0000000  0  8 28 23 22  1  3 17 26 21
  21084455.079   -17854578.156 9 -13659341.771 9  21084455.903    21084461.570
  21036008.886   -17450958.63749 -13580112.13749  21036011.0634   21036016.5014
  24881014.952     3494236.33949   2732670.78349  24881014.6754   24881022.4024
  23675193.282   -10096528.90849  -7844381.00149  23675195.2034   23675201.1994
  22130893.326   -17876900.88849  -9126866.13449  22130895.5334   22130901.7014
  21214212.490    -5585185.94249  -4339295.63449  21214214.8444   21214220.1994
  24130023.972    -2650275.31049  -1856929.61349  24130024.3624   24130030.8114
  21485614.653   -22431032.99149 -17467162.29549  21485616.7794   21485622.9904
 96  5 15  3 35  0.0000000  0  8 28 23 22  1  3 17 26 21
  21079960.653   -17878190.578 9 -13677741.056 9  21079963.041    21079968.067
  21042360.841   -17417583.45949 -13554105.50649  21042362.0084   21042367.2274
  24894851.284     3566952.31949   2789332.55349  24894851.7964   24894859.2524
  23655470.497   -10200169.30049  -7925139.73649  23655472.8604   23655478.7884
  22119613.573   -17936179.65749  -9173057.37549  22119615.3074   22119620.3694
  21221768.015    -5545484.99649  -4308359.82849  21221769.5924   21221774.7754
  24147651.658    -2557638.02749  -1784744.71849  24147653.4164   24147658.8544
  21478810.952   -22466791.83649 -17495026.30749  21478812.4604   21478818.1914
 96  5 15  3 35 30.0000000  0  8 28 23 22  1  3 17 26 21
  21075582.344   -17901205.591 9 -13695674.836 9  21075583.658    21075588.344
  21048765.638   -17383927.48649 -13527880.06949  21048766.6414   21048771.7404
  24908702.837     3639749.61449   2846057.71749  24908702.8184   24908712.4164
  23635781.282   -10303652.96649  -8005776.34449  23635780.0094   23635786.4534
  22108428.096   -17994958.53249  -9218859.09549  22108429.8804   22108436.0234
  21229387.574    -5505440.51449  -4277156.30349  21229389.7924   21229395.3454
  24165343.449    -2464671.39449  -1712303.20349  24165343.4234   24165349.1134
  21472064.238   -22502244.69549 -17522651.88949  21472065.9864   21472071.8694
 96  5 15  3 36  0.0000000  0  8 28 23 22  1  3 17 26 21
  21071314.522   -17923633.894 9 -13713151.448 9  21071315.789    21071320.437
  21055220.444   -17350008.36849 -13501449.58749  21055221.3984   21055226.5724
  24922568.963     3712628.06649   2902846.09949  24922571.1874   24922582.7964
  23616110.554   -10407011.28449  -8086315.27949  23616112.3894   23616119.3934
  22097337.926   -18053241.42249  -9264274.32849  22097339.0534   22097345.2424
  21237070.314    -5465073.19749  -4245701.24549  21237071.0804   21237076.9914
  24183094.696    -2371383.28649  -1639611.18549  24183095.9974   24183102.0224
  21465369.909   -22537422.35149 -17550063.02849  21465372.3784   21465377.5834
 96  5 15  3 36 30.0000000  0  8 28 23 22  1  3 17 26 21
  21067158.741   -17945471.795 9 -13730167.995 9  21067159.683    21067164.604
  21061723.962   -17315831.04749 -13474817.89149  21061724.8844   21061730.2594
  24936459.996     3785611.28649   2959716.13149  24936461.3694   24936468.8684
  23596467.219   -10510241.58549  -8166754.46349  23596468.2524   23596474.9364
  22086341.657   -18111021.20149  -9309297.52049  22086343.7154   22086349.8524
  21244811.780    -5424389.55549  -4213999.70249  21244812.4964   21244818.8774
  24200909.939    -2277767.18349  -1566663.55149  24200910.6704   24200915.6154
  21458730.150   -22572317.11849 -17577253.72849  21458731.6714   21458737.4914
 96  5 15  3 37  0.0000000  0  8 28 23 22  1  3 17 26 21
  21063112.576   -17966730.460 9 -13746733.184 9  21063114.148    21063119.093
  21068272.227   -17281411.89149 -13447997.75649  21068274.4474   21068280.0554
  24950366.689     3858701.39749   3016669.43349  24950369.2674   24950376.8714
  23576842.857   -10613352.97249  -8247100.97149  23576847.4954   23576854.3454
  22075441.965   -18168303.27149  -9353932.89249  22075443.8734   22075449.1354
  21252608.473    -5383414.59849  -4182071.15849  21252610.2364   21252616.1264
  24218785.749    -2183825.64549  -1493462.35249  24218787.3804   24218792.5924
  21452138.751   -22606955.42549 -17604244.58249  21452140.4124   21452146.0724
 96  5 15  3 37 30.0000000  0  8 28 23 22  1  3 17 26 21
  21059180.437   -17987399.871 9 -13762839.226 9  21059181.174    21059186.096
  21074867.407   -17246753.60949 -13420991.29449  21074869.8294   21074875.0494
  24964296.515     3931904.69749   3073710.95049  24964299.4254   24964307.1344
  23557247.289   -10716339.27349  -8327350.03549  23557248.7744   23557257.4194
  22064637.100   -18225084.20049  -9398177.77849  22064638.4684   22064643.8864
  21260461.516    -5342149.76949  -4149916.74049  21260463.0824   21260468.1964
  24236726.285    -2089551.92649  -1420002.32749  24236727.6174   24236732.4324
  21445595.670   -22641337.49749 -17631035.78249  21445597.3604   21445603.4394
 96  5 15  3 38  0.0000000  0  8 28 23 22  1  3 17 26 21
  21055359.405   -18007479.127 9 -13778485.408 9  21055360.216    21055365.286
  21081506.368   -17211874.00249 -13393812.37149  21081507.0834   21081512.6534
  24978251.371     4005222.41549   3130841.61249  24978250.8044   24978258.7284
  23537679.359   -10819182.91049  -8407487.92249  23537678.0524   23537687.9664
  22053925.616   -18281373.66249  -9442039.69749  22053926.9714   22053931.9464
  21268367.016    -5300598.57549  -4117539.16949  21268369.9244   21268375.1114
  24254722.451    -1994977.20149  -1346307.73949  24254723.4614   24254730.5514
  21439103.839   -22675453.42749 -17657619.59949  21439105.4074   21439111.2044
 96  5 15  3 38 30.0000000  0  8 28 23 22  1  3 17 26 21
  21051653.495   -18026947.940 9 -13793655.915 9  21051655.210    21051660.091
  21088191.373   -17176744.78549 -13366438.93749  21088192.4654   21088197.6284
  24992224.852     4078667.01349   3188071.14349  24992225.5754   24992233.4664
  23518137.937   -10921854.00049  -8487491.37149  23518142.0474   23518148.6344
  22043311.280   -18337150.99349  -9485502.54349  22043312.4004   22043318.1724
  21276331.059    -5258752.03549  -4084931.44749  21276332.5564   21276338.2684
  24272776.842    -1900094.00049  -1272372.80049  24272779.7154   24272785.0704
  21432668.533   -22709272.46649 -17683972.07849  21432669.9504   21432675.0954
 96  5 15  3 39  0.0000000  0  8 28 23 22  1  3 17 26 21
  21048060.471   -18045830.220 9 -13808369.380 9  21048062.332    21048067.096
  21094921.157   -17141376.50449 -13338879.21649  21094922.7984   21094928.0154
  25006217.402     4152198.11049   3245368.10049  25006219.9264   25006226.7864
  23498628.173   -11024381.96549  -8567383.28149  23498630.8864   23498637.1134
  22032787.873   -18392443.18449  -9528587.35349  22032790.5814   22032796.2394
  21284345.824    -5216636.63749  -4052114.21249  21284347.0744   21284352.6924
  24290884.606    -1804939.10349  -1198226.12349  24290886.9614   24290892.1994
  21426284.449   -22742827.70749 -17710118.98449  21426284.5704   21426289.7764
 96  5 15  3 39 30.0000000  0  8 28 23 22  1  3 17 26 21
  21044581.843   -18064114.376 9 -13822616.781 9  21044582.954    21044587.841
  21101700.132   -17105750.72749 -13311118.86049  21101701.9204   21101707.5014
  25020230.209     4225815.28849   3302732.12049  25020228.4824   25020236.9964
  23479151.769   -11126748.34949  -8647149.28349  23479151.6314   23479157.0614
  22022361.052   -18447240.83549  -9571286.81449  22022362.7954   22022368.6354
  21292414.623    -5174234.74249  -4019073.75849  21292416.4974   21292421.1884
  24309044.387    -1709510.40149  -1123866.09849  24309047.1124   24309051.6314
  21419950.786   -22776105.26349 -17736049.51949  21419952.1254   21419957.5004
 96  5 15  3 40  0.0000000  0  8 28 23 22  1  3 17 26 21
  21041215.234   -18081801.467 9 -13836398.927 9  21041216.702    21041221.835
  21108530.036   -17069861.97549 -13283153.58749  21108531.2484   21108536.8944
  25034248.295     4299509.79849   3360156.40049  25034251.7784   25034260.1444
  23459700.627   -11228955.38649  -8726791.11749  23459701.5444   23459707.2684
  22012026.621   -18501546.40949  -9613602.84449  22012029.1294   22012034.2914
  21300538.536    -5131544.86349  -3985808.93949  21300539.7354   21300544.7634
  24327256.355    -1613812.04749  -1049295.95949  24327258.0884   24327261.8754
  21413668.600   -22809117.30449 -17761773.15249  21413669.9534   21413675.3094
 96  5 15  3 40 30.0000000  0  8 28 23 22  1  3 17 26 21
  21037965.278   -18098886.235 9 -13849711.732 9  21037965.993    21037971.044
  21115413.106   -17033689.87149 -13254967.52349  21115414.7114   21115420.1094
  25048286.694     4373272.56749   3417633.86849  25048288.1464   25048294.9944
  23440280.769   -11331000.11149  -8806306.47149  23440283.0014   23440288.3104
  22001788.479   -18555351.30349  -9655528.73549  22001790.5644   22001795.5304
  21308716.445    -5088565.34249  -3952318.38449  21308718.0924   21308723.6434
  24345522.505    -1517823.29549   -974499.52049  24345523.4434   24345528.9764
  21407434.110   -22841873.64449 -17787297.56649  21407436.2624   21407441.9504
 96  5 15  3 41  0.0000000  0  8 28 23 22  1  3 17 26 21
  21034829.163   -18115365.358 9 -13862552.610 9  21034830.132    21034834.954
  21122347.538   -16997247.70749 -13226571.02449  21122349.0534   21122354.7714
  25062334.411     4447095.67949   3475158.34549  25062335.7594   25062345.0374
  23420895.569   -11432866.42249  -8885682.81549  23420899.3934   23420904.8974
  21991644.079   -18608653.80249  -9697063.14649  21991646.8754   21991652.2574
  21316952.483    -5045280.53049  -3918589.94249  21316954.8584   21316960.6654
  24363843.208    -1421540.49249   -899473.96549  24363845.9194   24363851.6874
  21401250.038   -22874375.50449 -17812623.67949  21401251.1324   21401257.0734
 96  5 15  3 41 30.0000000  0  8 28 23 22  1  3 17 26 21
  21031809.000   -18131234.654 9 -13874918.312 9  21031810.240    21031815.204
  21129332.571   -16960545.75149 -13197972.09349  21129333.3124   21129338.9384
  25076391.765     4520978.09449   3532729.05049  25076396.3054   25076407.7734
  23401550.089   -11534544.08649  -8964912.15449  23401549.7044   23401556.0854
  21981597.996   -18661445.28749  -9738199.35349  21981600.4684   21981606.7744
  21325250.739    -5001678.35049  -3884614.21849  21325252.0514   21325257.5084
  24382222.968    -1324956.56149   -824213.76549  24382225.8164   24382229.6334
  21395114.133   -22906618.09749 -17837747.77149  21395115.9934   21395121.9874
 96  5 15  3 42  0.0000000  0  8 28 23 22  1  3 17 26 21
  21028903.974   -18146501.982 9 -13886814.944 9  21028904.904    21028910.245
  21136359.951   -16923616.51249 -13169196.06449  21136360.8814   21136366.4184
  25090463.467     4594912.87849   3590340.60449  25090465.1014   25090476.3394
  23382233.711   -11636038.38749  -9043998.63349  23382236.9084   23382242.3694
  21971652.235   -18713719.89049  -9778932.80849  21971653.1544   21971658.8514
  21333606.966    -4957769.93949  -3850399.87149  21333608.2044   21333613.0454
  24400655.943    -1228082.24049   -748727.28949  24400659.2844   24400662.8834
  21389027.011   -22938605.35749 -17862672.89649  21389028.6054   21389035.2894
 96  5 15  3 42 30.0000000  0  7 28 23  1  3 17 26 21
  21026113.954   -18161160.402 9 -13898237.086 9  21026115.406    21026120.905
  21143427.259   -16886474.81149 -13140254.46949  21143428.7164   21143433.8414
  23362957.238   -11737341.19049  -9122935.89449  23362958.8684   23362964.9494
  21961805.450   -18765459.52849  -9819249.39749  21961807.7314   21961813.7824
  21342021.815    -4913545.98749  -3815939.65249  21342023.5614   21342029.2854
  24419148.475    -1130918.08649   -673014.94949  24419149.6514   24419154.5984
  21382994.107   -22970308.17449 -17887376.38049  21382995.8694   21383002.3484
 96  5 15  3 43  0.0000000  0  7 28 23  1  3 17 26 21
  21023439.713   -18175216.706 9 -13909190.054 9  21023440.697    21023445.771
  21150531.689   -16849144.48149 -13111165.88449  21150532.8174   21150537.2184
  23343716.492   -11838464.43849  -9201733.24549  23343715.4914   23343722.1874
  21952062.026   -18816665.33049  -9859150.01549  21952063.8624   21952069.8684
  21350497.612    -4869001.88349  -3781229.98149  21350499.4624   21350505.7644
  24437690.270    -1033480.05749   -597089.21449  24437690.2874   24437697.7394
  21377015.793   -23001725.04749 -17911857.03649  21377017.5024   21377024.0734
 96  5 15  3 43 30.0000000  0  7 28 23  1  3 17 26 21
  21020878.271   -18188674.120 9 -13919676.357 9  21020879.947    21020884.928
  21157670.616   -16811625.09449 -13081929.97849  21157672.0784   21157677.1224
  23324502.900   -11939418.44549  -9280398.70649  23324505.3894   23324511.8874
  21942418.069   -18867344.44849  -9898640.24349  21942420.1924   21942425.9294
  21359033.304    -4824150.79749  -3746281.06749  21359035.0614   21359040.5174
  24456280.104     -935773.44849   -520954.20049  24456283.6264   24456288.3504
  21371091.939   -23032854.67649 -17936113.86949  21371093.7464   21371100.0944
 96  5 15  3 44  0.0000000  0  7 28 23  1  3 17 26 21
  21018431.553   -18201536.563 9 -13929699.046 9  21018432.051    21018437.282
  21164846.083   -16773917.46949 -13052547.40049  21164847.6344   21164852.4834
  23305321.040   -12040209.12149  -9358936.89449  23305324.3304   23305331.8454
  21932871.605   -18917513.23449  -9937732.80549  21932873.4904   21932879.1664
  21367624.882    -4779005.43149  -3711102.86249  21367625.9144   21367630.9834
  24474925.158     -837802.71849   -444613.36949  24474926.4954   24474932.2074
  21365225.009   -23063688.64849 -17960140.30849  21365226.4874   21365232.6014
 96  5 15  3 44 30.0000000  0  7 28 23  1  3 17 26 21
  21016100.221   -18213785.593 9 -13939243.739 9  21016101.356    21016106.383
  21172064.896   -16735980.83949 -13022986.37349  21172066.3464   21172071.6664
  23286176.813   -12140817.16749  -9437332.77249  23286179.3514   23286187.7254
  21923421.188   -18967166.80349  -9976423.90749  21923424.6544   21923430.2894
  21376271.698    -4733555.99049  -3675687.71549  21376274.1354   21376279.7654
  24493621.295     -739561.13549   -368061.49249  24493621.4114   24493626.6904
  21359418.641   -23094200.58249 -17983915.81349  21359420.1534   21359426.4994
 96  5 15  3 45  0.0000000  0  7 28 23  1  3 17 26 21
  21013885.043   -18225422.058 9 -13948311.111 9  21013886.807    21013892.081
  21179332.680   -16697791.10649 -12993228.13249  21179333.4914   21179338.8914
  23267069.811   -12241234.89649  -9515580.36149  23267071.0474   23267078.5684
  21914067.908   -19016320.51249 -10014725.49449  21914070.5334   21914076.7114
  21384975.880    -4687818.22949  -3640047.92249  21384977.8014   21384983.8934
  24512365.928     -641052.09649   -291301.20949  24512367.4914   24512373.2454
  21353670.105   -23124408.69049 -18007454.59149  21353671.7164   21353677.9214
 96  5 15  3 45 30.0000000  0  7 28 23  1  3 17 26 21
  21011788.417   -18236442.995 9 -13956898.838 9  21011789.487    21011794.738
  21186649.575   -16659334.21649 -12963261.71649  21186651.8664   21186657.2294
  23248001.970   -12341456.12649  -9593674.81749  23247999.5114   23248005.9564
  21904807.549   -19064981.04749 -10052642.78149  21904810.7044   21904817.3594
  21393732.576    -4641802.92649  -3604191.81949  21393734.6684   21393740.4024
  24531159.351     -542281.06949   -214336.76149  24531162.9734   24531167.8904
  21347979.925   -23154309.88649 -18030754.19649  21347981.4224   21347987.6694
 96  5 15  3 46  0.0000000  0  7 28 23  1  3 17 26 21
  21009805.187   -18246864.003 9 -13965019.111 9  21009806.733    21009811.543
  21194016.912   -16620625.32449 -12933098.92749  21194018.2164   21194023.2384
  23228961.029   -12441495.83449  -9671627.83349  23228962.1294   23228969.1954
  21895642.909   -19113153.09349 -10090179.42849  21895644.2324   21895650.2224
  21402539.739    -4595525.73949  -3568131.64749  21402540.8424   21402545.9094
  24550003.093     -443270.38049   -137185.55449  24550004.2484   24550009.2714
  21342342.885   -23183929.89949 -18053834.70949  21342344.6284   21342351.0314
 96  5 15  3 46 30.0000000  0  7 28 23  1  3 17 26 21
  21007939.635   -18256671.518 9 -13972661.340 9  21007940.724    21007945.105
  21201433.967   -16581649.65449 -12902728.26149  21201435.1784   21201440.0614
  23209960.570   -12541337.53749  -9749426.56649  23209962.8274   23209970.0034
  21886575.712   -19160803.27049 -10127309.44549  21886577.0814   21886582.3654
  21411398.438    -4548964.98749  -3531850.54049  21411400.7974   21411406.2394
  24568890.430     -344011.55849    -59841.00749  24568892.5094   24568897.7034
  21336759.131   -23213276.63349 -18076702.28349  21336760.6594   21336766.3814
 96  5 15  3 47  0.0000000  0  7 28 23  1  3 17 26 21
  21006189.367   -18265863.683 9 -13979824.060 9  21006191.195    21006196.194
  21208901.455   -16542408.70449 -12872150.88049  21208902.5644   21208907.3654
  23190998.500   -12640983.60749  -9827072.84749  23191001.7854   23191008.2614
  21877608.136   -19207920.67549 -10164024.30749  21877610.6204   21877615.4624
  21420316.197    -4502107.04049  -3495337.84849  21420317.4174   21420323.1404
  24587826.618     -244489.51549     17708.64249  24587830.3994   24587835.1244
  21331222.371   -23242374.65549 -18099376.05349  21331223.6614   21331229.4224
 96  5 15  3 47 30.0000000  0  7 28 23  1  3 17 26 21
  21004556.959   -18274443.494 9 -13986509.629 9  21004558.478    21004563.348
  21216412.498   -16502931.29149 -12841389.25349  21216414.3844   21216419.9624
  23172073.810   -12740434.72349  -9904567.21649  23172076.7004   23172083.6724
  21868744.935   -19254495.21249 -10200316.15049  21868747.1844   21868753.1704
  21429291.834    -4454939.61549  -3458584.00149  21429293.3774   21429299.1784
  24606817.238     -144707.89049     95460.54949  24606818.1644   24606824.2684
  21325732.183   -23271219.66249 -18121852.66049  21325734.3724   21325740.4774
 96  5 15  3 48  0.0000000  0  7 28 23  1  3 17 26 21
  21003039.969   -18282422.591 9 -13992727.111 9  21003040.194    21003045.155
  21223964.473   -16463241.75949 -12810462.34049  21223966.8554   21223972.4054
  23153188.367   -12839696.31349  -9981913.89449  23153188.2154   23153195.0164
  21859984.704   -19300526.29349 -10236184.51049  21859987.8344   21859994.0964
  21438325.282    -4407465.02649  -3421590.82149  21438327.2934   21438332.8424
  24625851.380      -44677.16249    173406.58649  24625853.2444   24625858.3564
  21320289.819   -23299829.09249 -18144145.69449  21320290.1954   21320295.8404
 96  5 15  3 48 30.0000000  0  7 28 23  1  3 17 26 21
  21001635.769   -18289794.152 9 -13998471.176 9  21001637.600    21001642.443
  21231558.918   -16423341.25849 -12779371.02849  21231559.7754   21231564.7804
  23134336.123   -12938760.36649 -10059106.65349  23134337.0084   23134343.8784
  21851331.140   -19346014.77749 -10271630.08849  21851332.5384   21851337.0754
  21447420.567    -4359669.70049  -3384347.72649  21447422.4914   21447427.8714
  24644933.384       55613.00749    251554.77849  24644937.0294   24644942.7014
  21314892.489   -23328185.59849 -18166241.63649  21314894.2864   21314899.9904
 96  5 15  3 49  0.0000000  0  7 28 23  1  3 17 26 21
  21000352.863   -18296542.756 9 -14003729.838 9  21000353.328    21000358.211
  21239191.378   -16383233.74949 -12748118.41249  21239192.0414   21239197.2924
  23115522.966   -13037611.76449 -10136133.72049  23115524.9594   23115533.6174
  21842779.296   -19390952.48749 -10306646.48549  21842780.7904   21842785.8324
  21456579.568    -4311539.81949  -3346843.93449  21456581.0534   21456586.3714
  24664071.627      156170.66649    329911.36949  24664073.9574   24664079.0574
  21309550.096   -23356257.81049 -18188116.07149  21309551.9764   21309557.7584
 96  5 15  3 49 30.0000000  0  7 28 23  1  3 17 26 21
  20999183.331   -18302683.553 9 -14008514.873 9  20999184.608    20999189.949
  21246856.141   -16342949.41449 -12716728.00949  21246857.6264   21246862.9374
  23096752.876   -13136259.74249 -10213002.27749  23096752.8344   23096760.6194
  21834327.638   -19435359.62049 -10341249.43549  21834330.1584   21834335.4174
  21465799.750    -4263084.64049  -3309086.64149  21465801.9134   21465807.4324
  24683253.566      256965.00149    408452.38849  24683254.7684   24683260.0924
  21304263.591   -23384041.28749 -18209765.50449  21304265.1724   21304270.6724
 96  5 15  3 50  0.0000000  0  7 28 23  1  3 17 26 21
  20998130.767   -18308214.550 9 -14012824.736 9  20998132.248    20998137.328
  21254559.167   -16302472.88749 -12685187.85249  21254560.6834   21254565.4114
  23078018.678   -13234706.76349 -10289714.23949  23078019.8414   23078026.4344
  21825979.532   -19479236.94149 -10375439.55349  21825980.5004   21825985.6724
  21475082.319    -4214306.65149  -3271077.82949  21475084.6304   21475089.7004
  24702476.020      357986.55249    487170.48649  24702477.6674   24702482.7754
  21299031.160   -23411537.87849 -18231191.38749  21299032.1914   21299038.0494
 96  5 15  3 50 30.0000000  0  7 28 23  1  3 17 26 21
  20997191.892   -18313149.355 9 -14016670.031 9  20997192.874    20997198.417
  21262296.098   -16261815.44849 -12653506.72149  21262297.1634   21262302.5554
  23059321.694   -13332962.96749 -10366277.50749  23059322.6414   23059329.1934
  21817726.338   -19522599.78949 -10409228.75949  21817728.6644   21817733.9034
  21484424.177    -4165219.00249  -3232827.71549  21484425.4484   21484431.0054
  24721739.344      459213.39949    566048.56449  24721740.3204   24721745.3514
  21293848.995   -23438768.36449 -18252409.91849  21293850.6294   21293856.3644
 96  5 15  3 51  0.0000000  0  7 28 23  1  3 17 26 21
  20996371.366   -18317465.377 9 -14020033.160 9  20996371.865    20996377.253
  21270072.064   -16220951.08449 -12621664.34449  21270073.2724   21270078.7284
  23040665.929   -13430997.07549 -10442667.70649  23040667.1324   23040673.8324
  21809579.991   -19565416.30649 -10442592.26849  21809580.9384   21809586.7234
  21493826.571    -4115802.36149  -3194321.22949  21493828.4274   21493834.5994
  24741041.039      560654.54749    645093.60049  24741044.0964   24741049.3074
  21288718.706   -23465728.79549 -18273418.01749  21288720.4544   21288726.3494
 96  5 15  3 51 30.0000000  0  7 28 23  1  3 17 26 21
  20995666.276   -18321167.728 9 -14022918.111 9  20995667.500    20995672.515
  21277889.939   -16179868.15349 -12589651.65049  21277891.1354   21277896.6214
  23022055.411   -13528803.09849 -10518880.17249  23022054.9204   23022061.7834
  21801534.528   -19607692.07349 -10475534.41249  21801536.6464   21801542.2104
  21503287.694    -4066079.12249  -3155575.84049  21503290.8284   21503296.8834
  24760385.561      662302.35849    724299.68249  24760387.4894   24760391.8254
  21283636.334   -23492437.41649 -18294229.91349  21283637.9604   21283644.3944
 96  5 15  3 52  0.0000000  0  7 28 23  1  3 17 26 21
  20995081.811   -18324237.109 9 -14025309.843 9  20995083.379    20995088.311
  21285754.048   -16138544.44449 -12557451.33849  21285755.0744   21285760.3634
  23003489.782   -13626357.18949 -10594896.31549  23003490.5224   23003497.7304
  21793597.437   -19649400.30449 -10508034.32849  21793599.4164   21793605.1794
  21512809.440    -4016054.39449  -3116595.54349  21512810.7754   21512815.9364
  24779771.640      764177.48649    803682.90849  24779773.0364   24779777.8894
  21278603.243   -23518886.46949 -18314839.54949  21278604.7164   21278610.6664
 96  5 15  3 52 30.0000000  0  7 28 23  1  3 17 26 21
  20994617.142   -18326679.526 9 -14027213.022 9  20994618.412    20994623.828
  21293661.041   -16096990.70349 -12525071.78549  21293662.3474   21293667.9964
  22984972.850   -13723652.80249 -10670711.06249  22984975.2944   22984983.4644
  21785769.355   -19690543.96649 -10540094.31249  21785770.2034   21785775.8414
  21522382.681    -3965744.99049  -3077393.43249  21522383.8014   21522389.4284
  24799202.027      866283.80149    883246.27249  24799202.9514   24799209.0294
  21273619.096   -23545081.32749 -18335251.10449  21273619.9124   21273625.7364
 96  5 15  3 53  0.0000000  0  7 28 23  1  3 17 26 21
  20994270.074   -18328504.171 9 -14028634.818 9  20994271.245    20994276.523
  21301610.988   -16055209.44849 -12492514.94349  21301612.8094   21301618.6304
  22966509.219   -13820696.68249 -10746329.65249  22966508.8964   22966516.5034
  21778044.510   -19731129.26449 -10571719.21249  21778047.0844   21778052.8944
  21532004.995    -3915170.00449  -3037984.34049  21532007.9374   21532013.6824
  24818673.666      968611.91149    962982.45549  24818676.4614   24818681.3284
  21268682.830   -23571015.80649 -18355459.77249  21268684.4044   21268690.8434
 96  5 15  3 53 30.0000000  0  7 28 23  1  3 17 26 21
  20994040.469   -18329710.341 9 -14029574.683 9  20994041.726    20994046.702
  21309604.456   -16013204.41749 -12459783.73449  21309606.0874   21309611.8294
  22948088.467   -13917489.17349 -10821752.35149  22948090.1334   22948098.0914
  21770426.624   -19771162.65749 -10602914.06049  21770428.8914   21770434.6494
  21541680.889    -3864330.44849  -2998369.10049  21541682.3064   21541688.0644
  24838189.491     1071165.35649   1042894.20749  24838190.5664   24838196.5664
  21263801.653   -23596671.81949 -18375451.44749  21263802.7784   21263808.3054
 96  5 15  3 54  0.0000000  0  7 28 23  1  3 17 26 21
  20993930.255   -18330291.409 9 -14030027.462 9  20993931.048    20993936.066
  21317640.464   -15970979.56049 -12426881.23949  21317641.3844   21317646.7014
  22929717.206   -14014029.31149 -10896978.39449  22929719.3174   22929727.2504
  21762916.711   -19810633.42249 -10633670.49949  21762917.9304   21762923.5084
  21551410.771    -3813199.36349  -2958526.67449  21551412.4074   21551418.3034
  24857746.920     1173944.73449   1122982.03849  24857749.6904   24857754.4944
  21258974.726   -23622032.60349 -18395213.08249  21258976.6214   21258982.5164
 96  5 15  3 54 30.0000000  0  7 28 23  1  3 17 26 21
  20993939.323   -18330239.472 9 -14029986.992 9  20993940.899    20993945.608
  21325719.083   -15928522.73549 -12393798.00549  21325720.5974   21325725.9764
  22911396.330   -14110313.51449 -10972004.99449  22911396.7644   22911404.5454
  21755515.062   -19849524.41949 -10663975.14549  21755517.1454   21755522.7874
  21561200.524    -3761748.22049  -2918434.84549  21561203.3434   21561209.2984
  24877350.307     1276949.57249   1203245.49849  24877351.7324   24877356.2614
  21254207.922   -23647083.74849 -18414733.43549  21254209.5624   21254215.5234
 96  5 15  3 55  0.0000000  0  7 28 23  1  3 17 26 21
  20994067.173   -18329570.313 9 -14029465.568 9  20994068.245    20994073.458
  21333839.221   -15885853.42449 -12360549.19849  21333840.7094   21333845.4014
  22893113.996   -14206372.90449 -11046856.41449  22893117.6854   22893124.8614
  21748219.769   -19887859.81849 -10693846.86849  21748222.2074   21748227.6424
  21571051.042    -3709981.20649  -2878096.91149  21571054.0704   21571059.6054
  24896988.015     1380150.57249   1283661.89049  24896989.9544   24896993.4674
  21249495.866   -23671846.49749 -18434029.05149  21249497.2564   21249503.2774
 96  5 15  3 55 30.0000000  0  7 28 23  1  3 17 26 21
  20994309.839   -18328293.040 9 -14028470.275 9  20994311.276    20994316.726
  21341993.051   -15843002.17049 -12327158.62949  21341995.0154   21341999.6664
  22874878.785   -14302216.53349 -11121539.69949  22874879.3284   22874886.1354
  21741026.939   -19925660.25549 -10723301.74449  21741028.9584   21741035.0284
  21580963.939    -3657899.57049  -2837513.81449  21580964.8704   21580970.0894
  24916664.412     1483549.19449   1364232.23749  24916664.1224   24916668.7404
  21244834.355   -23696340.34949 -18453115.15549  21244835.8834   21244842.0344
 96  5 15  3 56  0.0000000  0  7 28 23  1  3 17 26 21
  20994669.462   -18326400.969 9 -14026995.936 9  20994671.218    20994676.176
  21350184.257   -15799960.56049 -12293619.73049  21350184.9274   21350190.5304
  22856682.352   -14397839.53449 -11196051.07049  22856682.2044   22856688.6714
  21733939.321   -19962904.94149 -10752323.57649  21733941.6204   21733947.2314
  21590935.408    -3605494.06949  -2796678.38849  21590937.1094   21590942.8824
  24936380.518     1587154.80249   1444963.86449  24936381.9774   24936385.1464
  21240223.782   -23720568.01149 -18471993.84049  21240225.3294   21240231.2624
 96  5 15  3 56 30.0000000  0  7 28 23  1  3 17 26 21
  20995147.587   -18323885.742 9 -14025036.019 9  20995149.893    20995154.846
  21358411.903   -15756718.82549 -12259924.87549  21358413.7344   21358419.1014
  22838526.920   -14493232.69949 -11270383.35649  22838529.6514   22838536.0234
  21726959.064   -19999589.94849 -10780909.28349  21726960.3274   21726966.9824
  21600970.360    -3552756.98549  -2755584.56149  21600973.0504   21600978.5894
  24956138.150     1690986.24449   1525871.46849  24956139.1164   24956143.4924
  21235663.403   -23744534.17249 -18490668.74849  21235665.2954   21235670.6044
 96  5 15  3 57  0.0000000  0  7 28 23  1  3 17 26 21
  20995746.009   -18320744.386 9 -14022588.211 9  20995747.693    20995752.746
  21366678.190   -15713282.84949 -12226078.66449  21366679.5384   21366684.5734
  22820422.562   -14588387.22049 -11344529.66649  22820422.1304   22820429.1544
  21720080.994   -20035730.96249 -10809071.09149  21720083.0114   21720088.5524
  21611071.913    -3499682.15949  -2714227.57949  21611072.9994   21611078.4364
  24975941.602     1795059.41949   1606967.49149  24975943.1544   24975949.0774
  21231153.879   -23768233.86849 -18509136.01749  21231155.7034   21231160.7834
 96  5 15  3 57 30.0000000  0  7 28 23  1  3 17 26 21
  20996461.608   -18316989.557 9 -14019662.371 9  20996462.312    20996467.109
  21374978.116   -15669666.73349 -12192092.09149  21374979.5214   21374984.2534
  22802358.040   -14683301.95849 -11418489.14849  22802360.8354   22802367.8604
  21713309.564   -20071319.16949 -10836802.15049  21713311.3394   21713316.3794
  21621232.989    -3446279.72449  -2672615.30049  21621234.5204   21621240.4144
  24995790.159     1899353.71649   1688235.79849  24995790.5444   24995792.6414
  21226693.743   -23791671.42949 -18527399.03449  21226695.0194   21226701.1544
 96  5 15  3 58  0.0000000  0  7 28 23  1  3 17 26 21
  20997293.721   -18312612.495 9 -14016251.669 9  20997295.136    20997299.807
  21383316.269   -15625847.51549 -12157947.24349  21383317.4974   21383322.8824
  22784344.590   -14777976.50049 -11492261.47949  22784345.1454   22784352.0844
  21706647.470   -20106331.66849 -10864084.60849  21706648.1494   21706653.5554
  21631458.773    -3392544.59549  -2630743.75049  21631460.4134   21631466.1724
  25015673.598     2003845.70249   1769658.16449  25015674.9254   25015678.5994
  21222284.154   -23814842.09649 -18545454.07849  21222285.8714   21222292.2054
 96  5 15  3 58 30.0000000  0  7 28 23  1  3 17 26 21
  20998245.200   -18307614.495 9 -14012357.124 9  20998246.524    20998250.981
  21391692.570   -15581832.34649 -12123649.71549  21391693.7604   21391699.1424
  22766373.515   -14872410.78949 -11565846.60749  22766374.7404   22766382.4844
  21700089.950   -20140791.07249 -10890936.08449  21700091.2484   21700096.7684
  21641746.388    -3338486.87149  -2588620.82949  21641747.0764   21641752.3964
  25035592.352     2108521.71449   1851223.87049  25035593.6064   25035596.2254
  21217925.780   -23837750.15649 -18563304.49449  21217926.7774   21217932.5344
 96  5 15  3 59  0.0000000  0  7 28 23  1  3 17 26 21
  20999312.366   -18302001.604 9 -14007983.454 9  20999314.116    20999319.125
  21400101.848   -15537636.72549 -12089211.57249  21400103.6294   21400109.1514
  22748450.366   -14966597.70749 -11639238.97149  22748451.2084   22748459.0074
  21693638.957   -20174685.16849 -10917347.05649  21693641.3184   21693646.5114
  21652089.960    -3284122.89349  -2546259.30349  21652092.5434   21652097.7734
  25055541.221     2213359.26449   1932915.49849  25055545.4064   25055546.3844
  21213615.942   -23860393.53949 -18580948.67349  21213617.7004   21213624.0384
 96  5 15  3 59 30.0000000  0  8 28 23  1  3 17 26 21 31
  21000499.616   -18295762.878 9 -14003122.095 9  21000501.210    21000506.363
  21408548.461   -15493246.53449 -12054621.82249  21408550.8574   21408556.1384
  22730577.800   -15060522.87749 -11712427.38549  22730577.1174   22730584.5284
  21687301.501   -20207988.40649 -10943297.62449  21687304.1714   21687309.2134
  21662493.059    -3229459.85849  -2503664.76049  21662494.4604   21662499.9614
  25075519.997     2318351.02449   2014727.25549  25075523.3644   25075528.9564
  21209357.937   -23882771.37749 -18598385.93449  21209359.6074   21209365.5544
  23921045.953     -193615.47319
 96  5 15  4  0  0.0000000  0  8 28 23  1  3 17 26 21 31
  21001807.331   -18288892.427 9 -13997768.498 9  21001808.879    21001814.078
  21417034.625   -15448664.41049 -12019882.50749  21417034.9644   21417039.6414
  22712753.676   -15154169.99349 -11785399.12149  22712756.6504   22712763.6514
  21681075.958   -20240708.53149 -10968793.82049  21681077.5304   21681082.9394
  21672949.425    -3174509.60149  -2460846.37449  21672951.0824   21672956.3354
  25095533.460     2423519.65249   2096676.91249  25095535.7074   25095540.1834
  21205149.341   -23904887.77349 -18615619.46749  21205151.2814   21205156.9884
  23905590.805     -274864.974 9   -195599.50859                  23905593.5974
